[[{"header":{"parameterUnit":"m.s-1","parameterCategory":1,"la1":31.0,"la2":29.5877,"lo1":-88.7671,"lo2":-86.6584,"dy":0.0162,"dx":0.0185,"nx":115,"ny":88,"refTime":"2023-10-25T00:00:00:Z","depth":0,"parameterNumber":2,"parameterNumberName":"U-component_of_WINDS"},"data":[0.0,0.0,0.0,0.0,0.0,0.0,0.0,0.0,0.0,0.0,0.0,0.0,0.0,0.0,0.0,0.0,0.0,0.0,0.0,0.0,0.0,0.0,0.0,0.0,0.0,0.0,0.0,0.0,0.0,0.0,0.0,0.0,0.0,0.0,0.0,0.0,0.0,0.0,0.0,0.0,0.0,0.0,0.0,0.0,0.0,0.0,0.0,0.0,0.0,0.0,0.0,0.0,0.0,0.0,0.0,0.0,0.0,0.0,0.0,0.0,0.0,0.0,0.0,0.0,0.0,0.0,0.0,0.0,0.0,0.0,0.0,0.0,0.0,0.0,0.0,0.0,0.0,0.0,0.0,0.0,0.0,0.0,0.0,0.0,0.0,0.0,0.0,0.0,0.0,0.0,0.0,0.0,0.0,0.0,0.0,0.0,0.0,0.0,0.0,0.0,0.0,0.0,0.0,0.0,0.0,0.0,0.0,0.0,0.0,0.0,0.0,0.0,0.0,0.0,0.0,0.0,0.0,0.0,0.0,0.0,0.0,0.0,0.0,0.0,0.0,0.0,0.0,0.0,0.0,0.0,0.0,0.0,0.0,0.0,0.0,0.0,0.0,0.0,0.0,0.0,0.0,0.0,0.0,0.0,0.0,0.0,0.0,0.0,0.0,0.0,0.0,0.0,0.0,0.0,0.0,0.0,0.0,0.0,0.0,0.0,0.0,0.0,0.0,0.0,0.0,0.0,0.0,0.0,0.0,0.0,0.0,0.0,0.0,0.0,0.0,0.0,0.0,0.0,0.0,0.0,0.0,0.0,0.0,0.0,0.0,0.0,0.0,0.0,0.0,0.0,0.0,0.0,0.0,0.0,0.0,0.0,0.0,0.0,0.0,0.0,0.0,0.0,0.0,0.0,0.0,0.0,0.0,0.0,0.0,0.0,0.0,0.0,0.0,0.0,0.0,0.0,0.0,0.0,0.0,0.0,0.0,0.0,0.0,0.0,0.0,0.0,0.0,0.0,0.0,0.0,0.0,0.0,0.0,0.0,0.0,0.0,0.0,0.0,0.0,0.0,0.0,0.0,0.0,0.0,0.0,0.0,0.0,0.0,0.0,0.0,0.0,0.0,0.0,0.0,0.0,0.0,0.0,0.0,0.0,0.0,0.0,0.0,0.0,0.0,0.0,0.0,0.0,0.0,0.0,0.0,0.0,0.0,0.0,0.0,0.0,0.0,0.0,0.0,0.0,0.0,0.0,0.0,0.0,0.0,0.0,0.0,0.0,0.0,0.0,0.0,0.0,0.0,0.0,0.0,0.0,0.0,0.0,0.0,0.0,0.0,0.0,0.0,0.0,0.0,0.0,0.0,0.0,0.0,0.0,0.0,0.0,0.0,0.0,0.0,0.0,0.0,0.0,0.0,0.0,0.0,0.0,0.0,0.0,0.0,0.0,0.0,0.0,0.0,0.0,0.0,0.0,0.0,0.0,0.0,0.0,0.0,0.0,0.0,0.0,0.0,0.0,0.0,0.0,0.0,0.0,0.0,0.0,0.0,0.0,0.0,0.0,0.0,0.0,0.0,0.0,0.0,0.0,0.0,0.0,0.0,0.0,0.0,0.0,0.0,0.0,0.0,0.0,0.0,0.0,0.0,0.0,0.0,0.0,0.0,0.0,0.0,0.0,0.0,0.0,0.0,0.0,0.0,0.0,0.0,0.0,0.0,0.0,0.0,0.0,0.0,0.0,0.0,0.0,0.0,0.0,0.0,0.0,0.0,0.0,0.0,0.0,0.0,0.0,0.0,0.0,0.0,0.0,0.0,0.0,0.0,0.0,0.0,0.0,0.0,0.0,0.0,0.0,0.0,0.0,0.0,0.0,0.0,0.0,0.0,0.0,0.0,0.0,0.0,0.0,0.0,0.0,0.0,0.0,0.0,0.0,0.0,0.0,0.0,0.0,0.0,0.0,0.0,0.0,0.0,0.0,0.0,0.0,0.0,0.0,0.0,0.0,0.0,0.0,0.0,0.0,0.0,0.0,0.0,0.0,0.0,0.0,0.0,0.0,0.0,0.0,0.0,0.0,0.0,0.0,0.0,0.0,0.0,0.0,0.0,0.0,0.0,0.0,0.0,0.0,0.0,0.0,0.0,0.0,0.0,0.0,0.0,0.0,0.0,0.0,0.0,0.0,0.0,0.0,0.0,0.0,0.0,0.0,0.0,0.0,0.0,0.0,0.0,0.0,0.0,0.0,0.0,0.0,0.0,0.0,0.0,0.0,0.0,0.0,0.0,0.0,0.0,0.0,0.0,0.0,0.0,0.0,0.0,0.0,0.0,0.0,0.0,0.0,0.0,0.0,0.0,0.0,0.0,0.0,0.0,0.0,0.0,0.0,0.0,0.0,0.0,0.0,0.0,0.0,0.0,0.0,0.0,0.0,0.0,0.0,0.0,0.0,0.0,0.0,0.0,0.0,0.0,0.0,0.0,0.0,0.0,0.0,0.0,0.0,0.0,0.0,0.0,0.0,0.0,0.0,0.0,0.0,0.0,0.0,0.0,0.0,0.0,0.0,0.0,0.0,0.0,0.0,0.0,0.0,0.0,0.0,0.0,0.0,0.0,0.0,0.0,0.0,0.0,0.0,0.0,0.0,0.0,0.0,0.0,0.0,0.0,0.0,0.0,0.0,0.0,0.0,0.0,0.0,0.0,0.0,0.0,0.0,0.0,0.0,0.0,0.0,0.0,0.0,0.0,0.0,0.0,0.0,0.0,0.0,0.0,0.0,0.0,0.0,0.0,0.0,0.0,0.0,0.0,0.0,0.0,0.0,0.0,0.0,0.0,0.0,0.0,0.0,0.0,0.0,0.0,0.0,0.0,0.0,0.0,0.0,0.0,0.0,0.0,0.0,0.0,0.0,0.0,0.0,0.0,0.0,0.0,0.0,0.0,0.0,0.0,0.0,0.0,0.0,0.0,0.0,0.0,0.0,0.0,0.0,0.0,0.0,0.0,0.0,0.0,0.0,0.0,0.0,0.0,0.0,0.0,0.0,0.0,0.0,0.0,0.0,0.0,0.0,0.0,0.0,0.0,0.0,0.0,0.0,0.0,0.0,0.0,0.0,0.0,0.0,0.0,0.0,0.0,0.0,0.0,0.0,0.0,0.0,0.0,0.0,0.0,0.0,0.0,0.0,0.0,0.0,0.0,0.0,0.0,0.0,0.0,0.0,0.0,0.0,0.0,0.0,0.0,0.0,0.0,0.0,0.0,0.0,0.0,0.0,0.0,0.0,0.0,0.0,0.0,0.0,0.0,0.0,0.0,0.0,0.0,0.0,0.0,0.0,0.0,0.0,0.0,0.0,0.0,0.0,0.0,0.0,0.0,0.0,0.0,0.0,0.0,0.0,0.0,0.0,0.0,0.0,0.0,0.0,0.0,0.0,0.0,0.0,0.0,0.0,0.0,0.0,0.0,0.0,0.0,0.0,0.0,0.0,0.0,0.0,0.0,0.0,0.0,0.0,0.0,0.0,0.0,0.0,0.0,0.0,0.0,0.0,0.0,0.0,0.0,0.0,0.0,0.0,0.0,0.0,0.0,0.0,0.0,0.0,0.0,0.0,0.0,0.0,0.0,0.0,0.0,0.0,0.0,0.0,0.0,0.0,0.0,0.0,0.0,0.0,0.0,0.0,0.0,0.0,0.0,0.0,0.0,0.0,0.0,0.0,0.0,0.0,0.0,0.0,0.0,0.0,0.0,0.0,0.0,0.0,0.0,0.0,0.0,0.0,0.0,0.0,0.0,0.0,0.0,0.0,0.0,0.0,0.0,0.0,0.0,0.0,0.0,0.0,0.0,0.0,0.0,0.0,0.0,0.0,0.0,0.0,0.0,0.0,0.0,0.0,0.0,0.0,0.0,0.0,0.0,0.0,0.0,0.0,0.0,0.0,0.0,0.0,0.0,0.0,0.0,0.0,0.0,0.0,0.0,0.0,0.0,0.0,0.0,0.0,0.0,0.0,0.0,0.0,0.0,0.0,0.0,0.0,0.0,0.0,0.0,0.0,0.0,0.0,0.0,0.0,0.0,0.0,0.0,0.0,0.0,0.0,0.0,0.0,0.0,0.0,0.0,0.0,0.0,0.0,0.0,0.0,0.0,0.0,0.0,0.0,0.0,0.0,0.0,0.0,0.0,0.0,0.0,0.0,0.0,0.0,0.0,0.0,0.0,0.0,0.0,0.0,0.0,0.0,0.0,0.0,0.0,0.0,0.0,0.0,0.0,0.0,0.0,0.0,0.0,-0.289,0.0,0.0,0.0,0.0,0.0,0.0,0.0,0.0,0.0,0.0,0.0,0.0,0.0,0.0,0.0,0.0,0.0,0.0,0.0,0.0,0.0,0.0,0.0,0.0,0.0,0.0,0.0,0.0,0.0,0.0,0.0,0.0,0.0,0.0,0.0,0.0,0.0,0.0,0.0,0.0,0.0,0.0,0.0,0.0,0.0,0.0,0.0,0.0,0.0,0.0,0.0,0.0,0.0,0.0,0.0,0.0,0.0,0.0,0.0,0.0,0.0,0.0,0.0,0.0,0.0,0.0,0.0,0.0,0.0,0.0,0.0,0.0,0.0,0.0,0.0,0.0,0.0,0.0,0.0,0.0,0.0,0.0,0.0,0.0,0.0,0.0,0.0,0.0,0.0,0.0,0.0,0.0,0.0,0.0,0.0,0.0,0.0,0.0,0.0,0.0,0.0,0.0,0.0,0.0,0.0,0.0,0.0,0.0,0.0,0.0,-0.3986,-0.3714,-0.3183,-0.2853,-0.2719,0.0,0.0,0.0,0.0,0.0,0.0,0.0,0.0,0.0,0.0,0.0,0.0,0.0,0.0,0.0,0.0,0.0,0.0,0.0,0.0,0.0,0.0,0.0,0.0,0.0,0.0,0.0,0.0,0.0,0.0,0.0,0.0,0.0,0.0,0.0,0.0,0.0,0.0,0.0,0.0,0.0,0.0,0.0,0.0,0.0,0.0,0.0,0.0,0.0,0.0,0.0,0.0,0.0,0.0,0.0,0.0,0.0,0.0,0.0,0.0,0.0,0.0,0.0,0.0,0.0,0.0,0.0,0.0,0.0,0.0,0.0,0.0,0.0,0.0,0.0,0.0,0.0,0.0,0.0,0.0,0.0,0.0,0.0,0.0,0.0,0.0,0.0,0.0,0.0,0.0,0.0,0.0,0.0,0.0,0.0,0.0,0.0,0.0,0.0,0.0,0.0,0.0,0.0,0.0,0.0,0.0,0.0,0.0,0.0,0.0,0.0,0.0,-0.3018,-0.2735,-0.2695,0.0,0.0,0.0,0.0,0.0,0.0,0.0,0.0,0.0,0.0,0.0,0.0,0.0,0.0,0.0,0.0,0.0,0.0,0.0,0.0,0.0,0.0,0.0,0.0,0.0,0.0,0.0,0.0,0.0,0.0,0.0,0.0,0.0,0.0,0.0,0.0,0.0,0.0,0.0,0.0,0.0,0.0,0.0,0.0,0.0,0.0,0.0,0.0,0.0,0.0,0.0,0.0,0.0,0.0,0.0,0.0,0.0,0.0,0.0,0.0,0.0,0.0,0.0,0.0,0.0,0.0,0.0,0.0,0.0,0.0,0.0,0.0,0.0,0.0,0.0,0.0,0.0,0.0,0.0,0.0,0.0,0.0,0.0,0.0,0.0,0.0,0.0,0.0,0.0,0.0,0.0,0.0,0.0,0.0,0.0,0.0,0.0,0.0,0.0,0.0,0.0,0.0,0.0,0.0,0.0,0.0,0.0,0.0,0.0,0.0,-0.3163,-0.2972,-0.2908,0.0,-0.2709,0.0,0.0,0.0,0.0,0.0,0.0,0.0,0.0,0.0,0.0,0.0,0.0,0.0,0.0,0.0,0.0,0.0,0.0,0.0,0.0,0.0,0.0,0.0,0.0,0.0,0.0,0.0,0.0,0.0,0.0,0.0,0.0,0.0,0.0,0.0,0.0,0.0,0.0,0.0,0.0,0.0,0.0,0.0,0.0,0.0,0.0,0.0,0.0,0.0,0.0,0.0,0.0,0.0,0.0,0.0,0.0,0.0,0.0,0.0,0.0,0.0,0.0,0.0,0.0,0.0,0.0,0.0,0.0,0.0,0.0,0.0,0.0,0.0,0.0,0.0,0.0,0.0,0.0,0.0,0.0,0.0,0.0,0.0,0.0,0.0,0.0,0.0,0.0,0.0,0.0,0.0,0.0,0.0,0.0,0.0,0.0,0.0,0.0,0.0,0.0,0.0,0.0,0.0,0.0,0.0,0.0,0.0,0.0,0.0,0.0,-0.29,-0.2895,-0.2672,-0.2555,0.0,0.0,0.0,0.0,0.0,0.0,0.0,0.0,0.0,0.0,0.0,0.0,0.0,0.0,0.0,0.0,0.0,0.0,0.0,0.0,0.0,0.0,0.0,0.0,0.0,0.0,0.0,0.0,0.0,0.0,0.0,0.0,0.0,0.0,0.0,0.0,0.0,0.0,0.0,0.0,0.0,0.0,0.0,0.0,0.0,0.0,0.0,0.0,0.0,0.0,0.0,0.0,0.0,0.0,0.0,0.0,0.0,0.0,0.0,0.0,0.0,0.0,0.0,0.0,0.0,0.0,0.0,0.0,0.0,0.0,0.0,0.0,0.0,0.0,0.0,0.0,0.0,0.0,0.0,0.0,0.0,0.0,0.0,0.0,0.0,0.0,0.0,0.0,0.0,0.0,0.0,0.0,0.0,0.0,0.0,0.0,0.0,0.0,0.0,0.0,0.0,0.0,0.0,0.0,0.0,0.0,0.0,0.0,0.0,0.0,-0.2733,-0.2606,-0.2707,-0.2478,-0.2407,-0.2498,0.0,0.0,0.0,0.0,0.0,0.0,0.0,0.0,0.0,0.0,0.0,0.0,0.0,0.0,0.0,0.0,0.0,0.0,0.0,0.0,0.0,0.0,0.0,0.0,0.0,0.0,0.0,0.0,0.0,0.0,0.0,0.0,0.0,0.0,0.0,0.0,0.0,0.0,0.0,0.0,0.0,0.0,0.0,0.0,0.0,0.0,0.0,0.0,0.0,0.0,0.0,0.0,0.0,0.0,0.0,0.0,0.0,0.0,0.0,0.0,0.0,0.0,0.0,0.0,0.0,0.0,0.0,0.0,0.0,0.0,0.0,0.0,0.0,0.0,0.0,0.0,0.0,0.0,0.0,0.0,0.0,0.0,0.0,0.0,0.0,0.0,0.0,0.0,0.0,0.0,0.0,0.0,0.0,0.0,0.0,0.0,0.0,0.0,0.0,0.0,0.0,0.0,0.0,0.0,0.0,0.0,0.0,0.0,-0.2905,-0.241,-0.2193,-0.2339,-0.2436,-0.2505,0.0,0.0,0.0,0.0,0.0,0.0,0.0,0.0,0.0,0.0,0.0,0.0,0.0,0.0,0.0,0.0,0.0,0.0,0.0,0.0,0.0,0.0,0.0,0.0,0.0,0.0,0.0,0.0,0.0,0.0,0.0,0.0,0.0,0.0,0.0,0.0,0.0,0.0,0.0,0.0,0.0,0.0,0.0,0.0,0.0,0.0,0.0,0.0,0.0,0.0,0.0,0.0,0.0,0.0,0.0,0.0,0.0,0.0,0.0,0.0,0.0,0.0,0.0,0.0,0.0,0.0,0.0,0.0,0.0,0.0,0.0,0.0,0.0,0.0,0.0,0.0,0.0,0.0,0.0,0.0,0.0,0.0,0.0,0.0,0.0,0.0,0.0,0.0,0.0,0.0,0.0,0.0,0.0,0.0,0.0,0.0,0.0,0.0,0.0,0.0,0.0,0.0,0.0,0.0,0.0,0.0,0.0,0.0,0.0,-0.2754,-0.2422,-0.2244,-0.2284,-0.2333,-0.2409,0.0,0.0,0.0,0.0,0.0,0.0,0.0,0.0,0.0,0.0,0.0,0.0,0.0,0.0,0.0,0.0,0.0,0.0,0.0,0.0,0.0,0.0,0.0,0.0,0.0,0.0,0.0,0.0,0.0,0.0,0.0,0.0,0.0,0.0,0.0,0.0,0.0,0.0,0.0,0.0,0.0,0.0,0.0,0.0,0.0,0.0,0.0,0.0,0.0,0.0,0.0,0.0,0.0,0.0,0.0,0.0,0.0,0.0,0.0,0.0,0.0,0.0,0.0,0.0,0.0,0.0,0.0,0.0,0.0,0.0,0.0,0.0,0.0,0.0,0.0,0.0,0.0,0.0,0.0,0.0,0.0,0.0,0.0,0.0,0.0,0.0,0.0,0.0,0.0,0.0,0.0,0.0,0.0,0.0,0.0,0.0,0.0,0.0,0.0,0.0,0.0,0.0,0.0,0.0,0.0,0.0,0.0,0.0,0.0,-0.2699,0.0,-0.2237,-0.2237,-0.2286,-0.2321,0.0,0.0,0.0,0.0,0.0,0.0,0.0,0.0,0.0,0.0,0.0,0.0,0.0,0.0,0.0,0.0,0.0,0.0,0.0,0.0,0.0,0.0,0.0,0.0,0.0,0.0,0.0,0.0,0.0,0.0,0.0,0.0,0.0,0.0,0.0,0.0,0.0,0.0,0.0,0.0,0.0,0.0,0.0,0.0,0.0,0.0,0.0,0.0,0.0,0.0,0.0,0.0,0.0,0.0,0.0,0.0,0.0,0.0,0.0,0.0,0.0,0.0,0.0,0.0,0.0,0.0,0.0,0.0,0.0,0.0,0.0,0.0,0.0,0.0,0.0,0.0,0.0,0.0,0.0,0.0,0.0,0.0,0.0,0.0,0.0,0.0,0.0,0.0,0.0,0.0,0.0,0.0,0.0,0.0,0.0,0.0,0.0,0.0,0.0,0.0,0.0,0.0,0.0,0.0,0.0,0.0,0.0,0.0,-0.3335,-0.2704,-0.2309,-0.2105,-0.2108,-0.2234,-0.2251,0.0,0.0,0.0,0.0,0.0,0.0,0.0,0.0,0.0,0.0,0.0,0.0,0.0,0.0,0.0,0.0,0.0,0.0,0.0,0.0,0.0,0.0,0.0,0.0,0.0,0.0,0.0,0.0,0.0,0.0,0.0,0.0,0.0,0.0,0.0,0.0,0.0,0.0,0.0,0.0,0.0,0.0,0.0,0.0,0.0,0.0,0.0,0.0,0.0,0.0,0.0,0.0,0.0,0.0,0.0,0.0,0.0,0.0,0.0,0.0,0.0,0.0,0.0,0.0,0.0,0.0,0.0,0.0,0.0,0.0,0.0,0.0,0.0,0.0,0.0,0.0,0.0,0.0,0.0,0.0,0.0,0.0,0.0,0.0,0.0,0.0,0.0,0.0,0.0,0.0,0.0,0.0,0.0,0.0,0.0,0.0,0.0,0.0,0.0,0.0,0.0,0.0,0.0,0.0,0.0,0.0,0.0,0.0,0.0,-0.23,-0.2158,-0.2183,-0.236,-0.2237,-0.2278,0.0,0.0,0.0,0.0,0.0,0.0,0.0,0.0,0.0,0.0,0.0,0.0,0.0,0.0,0.0,0.0,0.0,0.0,0.0,0.0,0.0,0.0,0.0,0.0,0.0,0.0,0.0,0.0,0.0,0.0,0.0,0.0,0.0,0.0,0.0,0.0,0.0,0.0,0.0,0.0,0.0,0.0,0.0,0.0,0.0,0.0,0.0,0.0,0.0,0.0,0.0,0.0,0.0,0.0,0.0,0.0,0.0,0.0,0.0,0.0,0.0,0.0,0.0,0.0,0.0,0.0,0.0,0.0,0.0,0.0,0.0,0.0,0.0,0.0,0.0,0.0,0.0,0.0,0.0,0.0,0.0,0.0,0.0,0.0,0.0,0.0,0.0,0.0,0.0,0.0,0.0,0.0,0.0,0.0,0.0,0.0,0.0,0.0,0.0,0.0,0.0,0.0,0.0,0.0,0.0,0.0,0.0,0.0,0.0,-0.2195,-0.2175,-0.2251,-0.2404,-0.225,-0.2202,-0.229,0.0,0.0,0.0,0.0,0.0,0.0,0.0,0.0,0.0,0.0,0.0,0.0,0.0,0.0,0.0,0.0,0.0,0.0,0.0,0.0,0.0,0.0,0.0,0.0,0.0,0.0,0.0,0.0,0.0,0.0,0.0,0.0,0.0,0.0,0.0,0.0,0.0,0.0,0.0,0.0,0.0,0.0,0.0,0.0,0.0,0.0,0.0,0.0,0.0,0.0,0.0,0.0,0.0,0.0,0.0,0.0,0.0,0.0,0.0,0.0,0.0,0.0,0.0,0.0,0.0,0.0,0.0,0.0,0.0,0.0,0.0,0.0,0.0,0.0,0.0,0.0,0.0,0.0,0.0,0.0,0.0,0.0,0.0,0.0,0.0,0.0,0.0,0.0,0.0,0.0,0.0,0.0,0.0,0.0,0.0,0.0,0.0,0.0,0.0,0.0,0.0,0.0,0.0,0.0,0.0,0.0,0.0,0.0,-0.2336,-0.2332,-0.2329,-0.2319,-0.2308,-0.2081,0.0,0.0,0.0,0.0,0.0,0.0,0.0,0.0,0.0,0.0,0.0,0.0,0.0,0.0,0.0,0.0,0.0,0.0,0.0,0.0,0.0,0.0,0.0,0.0,0.0,0.0,0.0,0.0,0.0,0.0,0.0,0.0,0.0,0.0,0.0,0.0,0.0,0.0,0.0,0.0,0.0,0.0,0.0,0.0,0.0,0.0,0.0,0.0,0.0,0.0,0.0,0.0,0.0,0.0,0.0,0.0,0.0,0.0,0.0,0.0,0.0,0.0,0.0,0.0,0.0,0.0,0.0,0.0,0.0,0.0,0.0,0.0,0.0,0.0,0.0,0.0,0.0,0.0,0.0,0.0,0.0,0.0,0.0,0.0,0.0,0.0,0.0,0.0,0.0,0.0,0.0,0.0,0.0,0.0,0.0,0.0,0.0,0.0,0.0,0.0,0.0,0.0,0.0,0.0,0.0,0.0,0.0,0.0,0.0,-0.2658,-0.2711,-0.2639,-0.2446,-0.2348,-0.2182,0.0,0.0,0.0,0.0,0.0,0.0,0.0,0.0,0.0,0.0,0.0,0.0,0.0,0.0,0.0,0.0,0.0,0.0,0.0,0.0,0.0,0.0,0.0,0.0,0.0,0.0,0.0,0.0,0.0,0.0,0.0,0.0,0.0,0.0,0.0,0.0,0.0,0.0,0.0,0.0,0.0,0.0,0.0,0.0,0.0,0.0,0.0,0.0,0.0,0.0,0.0,0.0,0.0,0.0,0.0,0.0,0.0,0.0,0.0,0.0,0.0,0.0,0.0,0.0,0.0,0.0,0.0,0.0,0.0,0.0,0.0,0.0,0.0,0.0,0.0,0.0,0.0,0.0,0.0,0.0,0.0,0.0,0.0,0.0,0.0,0.0,0.0,0.0,0.0,0.0,0.0,0.0,0.0,0.0,0.0,0.0,0.0,0.0,0.0,0.0,0.0,0.0,0.0,0.0,0.0,0.0,0.0,0.0,-0.2581,-0.2834,-0.2904,-0.2849,-0.2661,-0.2603,-0.2283,0.0,0.0,0.0,0.0,0.0,0.0,0.0,0.0,0.0,0.0,0.0,0.0,0.0,0.0,0.0,0.0,0.0,0.0,0.0,0.0,0.0,0.0,0.0,0.0,0.0,0.0,0.0,0.0,0.0,0.0,0.0,0.0,0.0,0.0,0.0,0.0,0.0,0.0,0.0,0.0,0.0,0.0,0.0,0.0,0.0,0.0,0.0,0.0,0.0,0.0,0.0,0.0,0.0,0.0,0.0,0.0,0.0,0.0,0.0,0.0,0.0,0.0,0.0,0.0,0.0,0.0,0.0,0.0,0.0,0.0,0.0,0.0,0.0,0.0,0.0,0.0,0.0,0.0,0.0,0.0,0.0,0.0,0.0,0.0,0.0,0.0,0.0,0.0,0.0,0.0,0.0,0.0,0.0,0.0,0.0,0.0,0.0,0.0,0.0,0.0,0.0,0.0,0.0,0.0,0.0,0.0,0.0,0.0,-0.2804,-0.2929,-0.297,-0.2983,-0.2973,-0.2923,-0.2402,0.0,0.0,0.0,0.0,0.0,0.0,0.0,0.0,0.0,0.0,0.0,0.0,0.0,0.0,0.0,0.0,0.0,0.0,0.0,0.0,0.0,0.0,0.0,0.0,0.0,0.0,0.0,0.0,0.0,0.0,0.0,0.0,0.0,0.0,0.0,0.0,0.0,0.0,0.0,0.0,0.0,0.0,0.0,0.0,0.0,0.0,0.0,0.0,0.0,0.0,0.0,0.0,0.0,0.0,0.0,0.0,0.0,0.0,0.0,0.0,0.0,0.0,0.0,0.0,0.0,0.0,0.0,0.0,0.0,0.0,0.0,0.0,0.0,0.0,0.0,0.0,0.0,0.0,0.0,0.0,0.0,0.0,0.0,0.0,0.0,0.0,0.0,0.0,0.0,0.0,0.0,0.0,0.0,0.0,0.0,0.0,0.0,0.0,0.0,0.0,0.0,0.0,0.0,0.0,0.0,0.0,0.0,0.0,-0.2951,-0.3123,-0.3034,-0.315,-0.3452,-0.3096,-0.2391,0.0,0.0,0.0,0.0,0.0,0.0,0.0,0.0,0.0,0.0,0.0,0.0,0.0,0.0,0.0,0.0,0.0,0.0,0.0,0.0,0.0,0.0,0.0,0.0,0.0,0.0,0.0,0.0,0.0,0.0,0.0,0.0,0.0,0.0,0.0,0.0,0.0,0.0,0.0,0.0,0.0,0.0,0.0,0.0,0.0,0.0,0.0,0.0,0.7809,0.0,0.0,0.0,0.0,0.0,0.0,0.0,0.0,0.0,0.0,0.0,0.0,0.0,0.0,0.0,0.0,0.0,0.0,0.0,0.0,0.0,0.0,0.0,0.0,0.0,0.0,0.0,0.0,0.0,0.0,0.0,0.0,0.0,0.0,0.0,0.0,0.0,0.0,0.0,0.0,0.0,0.0,0.0,0.0,0.0,0.0,0.0,0.0,0.0,0.0,0.0,0.0,0.0,0.0,0.0,0.0,0.0,0.0,0.0,-0.3028,-0.3195,-0.3124,-0.3152,-0.3311,-0.3074,-0.2497,0.0,0.0,0.0,0.0,0.0,0.0,0.0,0.0,0.0,0.0,0.0,0.0,0.0,0.0,0.0,0.0,0.0,0.0,0.0,0.0,0.0,0.0,0.0,0.0,0.0,0.0,0.0,0.0,0.0,0.0,0.0,0.0,0.0,0.0,0.0,0.0,0.0,0.0,0.0,0.0,0.0,0.0,0.0,0.0,0.0,0.0,0.0,0.0,0.0,0.0,0.0,0.0,0.0,0.0,0.0,0.0,0.0,0.0,0.0,0.0,0.0,0.0,0.0,0.0,0.0,0.0,0.0,0.0,0.0,0.0,0.0,0.0,0.0,0.0,0.0,0.0,0.0,0.0,0.0,0.0,0.0,0.0,0.0,0.0,0.0,0.0,0.0,0.0,0.0,0.0,0.0,0.0,0.0,0.0,0.0,0.0,0.0,0.0,0.0,0.0,0.0,0.0,0.0,0.0,0.0,0.0,0.0,-0.2954,-0.31,-0.3193,-0.3172,-0.3148,-0.3072,-0.3015,-0.2609,-0.1837,0.0,0.0,0.0,0.0,0.0,0.0,0.0,0.0,0.0,0.0,0.0,0.0,0.0,0.0,0.0,0.0,0.0,0.0,0.0,0.0,0.0,0.0,0.0,0.0,0.0,0.0,0.0,0.0,0.0,0.0,0.0,0.0,0.0,0.0,0.0,0.0,0.0,0.0,0.6881,0.7091,0.0,0.0,0.0,0.0,0.0,0.0,0.0,0.0,0.8942,0.0,0.0,0.0,0.0,0.0,0.0,0.0,0.0,0.0,0.0,0.0,0.0,0.0,0.0,0.0,0.0,0.0,0.0,0.0,0.0,0.0,0.0,0.0,0.0,0.0,0.0,0.0,0.0,0.0,0.0,0.0,0.0,0.0,0.0,0.0,0.0,0.0,0.0,0.0,0.0,0.0,0.0,0.0,0.0,0.0,0.0,0.0,0.0,0.0,0.0,0.0,0.0,0.0,0.0,0.0,0.0,-0.3114,-0.3161,-0.3178,-0.321,-0.3098,-0.3124,-0.331,-0.3109,-0.2623,-0.1844,0.0,0.0,0.0,0.0,0.0,0.0,0.0,0.0,0.0,0.0,0.0,0.0,0.0,0.0,0.0,0.0,0.0,0.0,0.0,0.0,0.0,0.0,0.0,0.0,0.0,0.0,0.0,0.0,0.0,0.0,0.0,0.0,0.0,0.0,0.0,0.0,0.0,0.0,0.0,0.7025,0.7133,0.0,0.0,0.0,0.0,0.0,0.0,0.0,0.0,0.9309,0.0,0.0,0.0,0.0,0.0,0.0,0.0,0.0,0.0,0.0,0.0,0.0,0.0,0.0,0.0,0.0,0.0,0.0,0.0,0.0,0.0,0.0,0.0,0.0,0.0,0.0,0.0,0.0,0.0,0.0,0.0,0.0,0.0,0.0,0.0,0.0,0.0,0.0,0.0,0.0,0.0,0.0,0.0,0.0,0.0,0.0,0.0,0.0,0.0,0.0,0.0,0.0,0.0,0.0,0.0,-0.3106,-0.3301,-0.3363,-0.3298,-0.3016,-0.2871,-0.292,-0.2568,-0.2042,0.0,0.0,0.0,0.0,0.0,0.0,0.0,0.0,0.0,0.0,0.0,0.0,0.0,0.0,0.0,0.0,0.0,0.0,0.0,0.0,0.0,0.0,0.0,0.0,0.0,0.0,0.0,0.0,0.0,0.0,0.0,0.0,0.0,0.0,0.0,0.0,0.0,0.0,0.0,0.0,0.7051,0.7126,0.7349,0.0,0.0,0.0,0.0,0.0,0.0,0.8832,0.9492,0.0,0.0,0.0,0.0,0.0,0.0,0.0,0.0,0.0,0.0,0.0,0.0,0.0,0.0,0.0,0.0,0.0,0.0,0.0,0.0,0.0,0.0,0.0,0.0,0.0,0.0,0.0,0.0,0.0,0.0,0.0,0.0,0.0,0.0,0.0,0.0,0.0,0.0,0.0,0.0,0.0,0.0,0.0,0.0,0.0,0.0,0.0,0.0,0.0,0.0,0.0,0.0,0.0,0.0,0.0,-0.3058,-0.3391,-0.3497,-0.3383,-0.3032,-0.2785,-0.2626,-0.2183,-0.1657,0.0,0.0,0.0,0.0,0.0,0.0,0.0,0.0,0.0,0.0,0.0,0.0,0.0,0.0,0.0,0.0,0.0,0.0,0.0,0.0,0.0,0.0,0.0,0.0,0.0,0.0,0.0,0.0,0.0,0.0,0.0,0.0,0.0,0.0,0.0,0.0,0.0,0.0,0.0,0.0,0.0,0.7194,0.7116,0.7496,0.0,0.0,0.0,0.0,0.833,0.9136,0.0,0.0,0.0,0.0,0.0,0.0,0.0,0.0,0.0,0.0,0.0,0.0,0.0,0.0,0.0,0.0,0.0,0.0,0.0,0.0,0.0,0.0,0.0,0.0,0.0,0.0,0.0,0.0,0.0,0.0,0.0,0.0,0.0,0.0,0.0,0.0,0.0,0.0,0.0,0.0,0.0,0.0,0.0,0.0,0.0,0.0,0.0,0.0,0.0,0.0,0.0,0.0,0.0,0.0,0.0,0.0,-0.3182,-0.3355,-0.342,-0.3398,-0.3339,-0.3251,-0.3126,-0.266,-0.2123,0.0,0.0,0.0,0.0,0.0,0.0,0.0,0.0,0.0,0.0,0.0,0.0,0.0,0.0,0.0,0.0,0.0,0.0,0.0,0.0,0.0,0.0,0.0,0.0,0.0,0.0,0.0,0.0,0.0,0.0,0.0,0.0,0.0,0.0,0.0,0.0,0.0,0.0,0.0,0.0,0.0,0.7141,0.7715,0.7597,0.7454,0.0,0.0,0.8634,0.8058,0.9381,0.0,0.0,0.0,0.0,0.0,0.0,0.0,0.0,0.0,0.0,0.0,0.0,0.0,0.0,0.0,0.0,0.0,0.0,0.0,0.0,0.0,0.0,0.0,0.0,0.0,0.0,0.0,0.0,0.0,0.0,0.0,0.0,0.0,0.0,0.0,0.0,0.0,0.0,0.0,0.0,0.0,0.0,0.0,0.0,0.0,0.0,0.0,0.0,0.0,0.0,0.0,0.0,0.0,0.0,0.0,-0.3402,-0.3544,-0.3602,-0.3631,-0.3617,-0.3365,-0.3169,-0.3026,-0.2652,-0.2119,0.0,0.0,0.0,0.0,0.0,0.0,0.0,0.0,0.0,0.0,0.0,0.0,0.0,0.0,0.0,0.0,0.0,0.0,0.0,0.0,0.0,0.0,0.0,0.0,0.0,0.0,0.0,0.0,0.0,0.0,0.0,0.0,0.0,0.0,0.0,0.0,0.0,0.0,0.0,0.0,0.0,0.0,0.7339,0.7527,0.0,0.0,0.0,0.9154,0.9054,0.0,0.0,0.0,0.0,0.0,0.0,0.0,0.0,0.0,0.0,0.0,0.0,0.0,0.0,0.0,0.0,0.0,0.0,0.0,0.0,0.0,0.0,0.0,0.0,0.0,0.0,0.0,0.0,0.0,0.0,0.0,0.0,0.0,0.0,0.0,0.0,0.0,0.0,0.0,0.0,0.0,0.0,0.0,0.0,0.0,0.0,0.0,0.0,0.0,0.0,0.0,0.0,0.0,0.0,0.0,0.0,0.0,-0.3795,-0.3835,-0.3838,-0.3834,-0.3516,-0.3263,-0.3167,-0.2785,0.0,0.0,0.0,0.0,0.0,0.0,0.0,0.0,0.0,0.0,0.0,0.0,0.0,0.0,0.0,0.0,0.0,0.0,0.0,0.0,0.0,0.0,0.0,0.0,0.0,0.0,0.0,0.5363,0.0,0.0,0.0,0.0,0.0,0.0,0.0,0.0,0.0,0.0,0.0,0.0,0.0,0.0,0.7581,0.6985,0.7348,0.7733,0.0,0.0,0.9357,0.9616,1.0246,1.0846,0.0,0.0,0.0,0.0,0.0,0.0,0.0,0.0,0.0,0.0,0.0,0.0,0.0,0.0,0.0,0.0,0.0,0.0,0.0,0.0,0.0,0.0,0.0,0.0,0.0,0.0,0.0,0.0,0.0,0.0,0.0,0.0,0.0,0.0,0.0,0.0,0.0,0.0,0.0,0.0,0.0,0.0,0.0,0.0,0.0,0.0,0.0,0.0,0.0,0.0,0.0,0.0,0.0,0.0,-0.3795,-0.3801,-0.3922,-0.3981,-0.3981,-0.3968,-0.3937,-0.3911,-0.3369,-0.2718,0.0,0.0,0.0,0.0,0.0,0.0,0.0,0.0,0.0,0.0,0.0,0.0,0.0,0.0,0.0,0.0,0.0,0.0,0.0,0.0,0.0,0.0,0.0,0.0,0.0,0.0,0.0,0.0,0.0,0.0,0.0,0.0,0.0,0.0,0.0,0.0,0.0,0.0,0.0,0.0,0.0,0.7376,0.6954,0.7051,0.73,0.0,0.8442,0.8947,0.8958,1.0103,1.1088,1.1438,0.0,0.0,0.0,0.0,0.0,0.0,0.0,0.0,0.0,0.0,0.0,0.0,0.0,0.0,0.0,0.0,0.0,0.0,0.0,0.0,0.0,0.0,0.0,0.0,0.0,0.0,0.0,0.0,0.0,0.0,0.0,0.0,0.0,0.0,0.0,0.0,0.0,0.0,0.0,0.0,0.0,0.0,0.0,0.0,0.0,0.0,0.0,0.0,0.0,0.0,0.0,0.0,0.0,-0.4111,-0.4234,-0.415,-0.411,-0.4123,-0.4136,-0.4089,-0.3994,-0.3865,-0.3309,0.0,0.0,0.0,0.0,0.0,0.0,0.0,0.0,0.0,0.0,0.0,0.0,0.0,0.0,0.0,0.0,0.0,0.0,0.0,0.0,0.0,0.0,0.0,0.0,0.0,0.0,0.0,0.0,0.5335,0.5775,0.6717,0.0,0.0,0.0,0.0,0.0,0.0,0.0,0.0,0.0,0.0,0.7196,0.7035,0.6959,0.0,0.0,0.8575,0.9222,0.9732,1.0467,1.1157,1.1613,1.1977,0.0,0.0,0.0,0.0,0.0,0.0,0.0,0.0,0.0,0.0,0.0,0.0,0.0,0.0,0.0,0.0,0.0,0.0,0.0,0.0,0.0,0.0,0.0,0.0,0.0,0.0,0.0,0.0,0.0,0.0,0.0,0.0,0.0,0.0,0.0,0.0,0.0,0.0,0.0,0.0,0.0,0.0,0.0,0.0,0.0,0.0,0.0,0.0,0.0,0.0,0.0,0.0,-0.4372,-0.4487,-0.4348,-0.4287,-0.4301,-0.4284,-0.425,-0.4145,-0.419,-0.3735,0.0,0.0,0.0,0.0,0.0,0.0,0.0,0.0,0.0,0.0,0.0,0.0,0.0,0.0,0.0,0.0,0.0,0.0,0.0,0.0,0.0,0.0,0.0,0.0,0.0,0.0,0.0,0.0,0.501,0.5533,0.6541,0.0,0.0,0.0,0.0,0.0,0.0,0.0,0.0,0.0,0.0,0.7024,0.6868,0.6865,0.7211,0.8146,0.8696,0.9341,1.0276,1.0482,1.0761,1.1452,0.0,0.0,0.0,0.0,0.0,0.0,0.0,0.0,0.0,0.0,0.0,0.0,0.0,0.0,0.0,0.0,0.0,0.0,0.0,0.0,0.0,0.0,0.0,0.0,0.0,0.0,0.0,0.0,0.0,0.0,-0.4457,0.0,0.0,0.0,0.0,0.0,0.0,0.0,0.0,0.0,0.0,0.0,0.0,0.0,0.0,0.0,0.0,0.0,0.0,0.0,0.0,0.0,0.0,-0.4484,-0.4491,-0.4484,-0.4484,-0.4481,-0.4484,-0.4477,-0.447,-0.4307,-0.391,-0.3293,0.0,0.0,0.0,0.0,0.0,0.0,0.0,0.0,0.0,0.0,0.0,0.0,0.0,0.0,0.0,0.0,0.0,0.0,0.0,0.0,0.0,0.0,0.0,0.0,0.0,0.0,0.4308,0.4718,0.5152,0.0,0.0,0.0,0.0,0.0,0.0,0.0,0.0,0.0,0.0,0.648,0.6833,0.64,0.6707,0.7387,0.8554,0.8761,0.9182,1.0264,0.989,0.9777,0.0,0.0,0.0,0.0,0.0,0.0,0.0,0.0,0.0,0.0,0.0,0.0,0.0,0.0,0.0,0.0,0.0,0.0,0.0,0.0,0.0,0.0,0.0,0.0,0.0,0.0,0.0,-0.4832,-0.4832,0.0,0.0,0.0,0.0,0.0,0.0,0.0,0.0,0.0,0.0,0.0,-0.4914,-0.4987,0.0,0.0,0.0,0.0,0.0,0.0,0.0,0.0,0.0,0.0,0.0,0.0,-0.4491,-0.4491,-0.4491,-0.4491,-0.4491,-0.4491,-0.4491,-0.4491,-0.4429,-0.4122,-0.3525,0.0,0.0,0.0,0.0,0.0,0.0,0.0,0.0,0.0,0.0,0.0,0.0,0.0,0.0,0.0,0.0,0.0,0.0,0.0,0.0,0.0,0.0,0.0,0.0,0.0,0.3882,0.0,0.0,0.0,0.0,0.0,0.0,0.0,0.0,0.0,0.0,0.0,0.6004,0.5905,0.6128,0.6308,0.641,0.6452,0.6749,0.0,0.0,0.0,0.0,0.0,0.0,0.0,0.0,0.0,0.0,0.0,0.0,0.0,0.0,1.2245,1.205,1.2871,1.3613,1.3604,0.0,0.0,0.0,0.0,0.0,0.0,0.0,0.0,0.0,0.0,0.0,0.0,0.0,0.0,-0.5182,0.0,-0.5423,0.0,0.0,0.0,0.0,0.0,0.0,0.0,0.0,-0.5265,-0.5332,-0.5257,-0.5332,-0.5318,0.0,-0.5171,-0.5074,0.0,0.0,0.0,0.0,0.0,0.0,0.0,0.0,-0.4587,-0.4625,-0.4639,-0.4625,-0.4574,-0.4574,-0.4546,-0.4505,-0.4491,-0.4225,-0.3611,-0.3222,-0.2917,0.0,0.0,0.0,0.0,0.0,0.0,0.0,0.0,0.0,0.0,0.0,0.0,0.0,0.0,0.0,0.0,0.0,0.0,0.0,0.0,0.0,0.0,0.0,0.3377,0.0,0.0,0.0,0.0,0.0,0.0,0.0,0.0,0.0,0.605,0.566,0.5322,0.535,0.5623,0.5896,0.614,0.0,0.0,0.0,0.0,0.0,0.0,0.0,0.9104,0.9792,1.0263,1.0904,1.2069,1.1849,1.1634,1.1947,0.0,0.0,1.1822,1.2871,1.3685,1.3526,1.4579,1.5522,1.551,1.5716,1.5911,0.0,0.0,0.0,0.0,0.0,0.0,0.0,0.0,-0.5651,-0.5729,0.0,-0.6359,0.0,0.0,0.0,0.0,0.0,-0.5631,0.0,0.0,-0.5876,-0.5914,-0.5884,-0.588,-0.5888,-0.5876,-0.5687,-0.5538,-0.5393,-0.5099,0.0,0.0,0.0,0.0,0.0,0.0,-0.4784,-0.4887,-0.4901,-0.4836,-0.4719,-0.4688,-0.4632,-0.4491,-0.4491,-0.4239,-0.3669,-0.3624,-0.3347,-0.2764,-0.2054,0.0,0.0,0.0,0.0,0.0,0.0,0.0,0.0,0.0,0.0,0.0,0.0,0.0,0.0,0.0,0.0,0.0,0.0,0.0,0.0,0.25,0.0,0.0,0.0,0.0,0.0,0.0,0.0,0.0,0.0,0.0,0.4632,0.4993,0.5007,0.4353,0.0,0.0,0.0,0.0,0.6793,0.7203,0.7643,0.8077,0.8531,0.823,0.8128,0.8692,0.0,0.0,1.1249,1.128,1.1204,1.1694,1.1417,1.1131,1.147,1.2791,1.3689,1.3348,1.4141,1.4903,1.4992,1.507,1.5124,-0.9511,0.0,0.0,0.0,0.0,-0.6793,-0.6655,-0.6649,-0.6228,-0.6331,-0.6747,-0.6328,0.0,0.0,0.0,0.0,0.0,0.0,-0.6868,-0.6424,-0.6553,-0.6347,-0.5888,-0.5888,-0.5888,-0.5888,-0.5835,-0.5796,-0.5751,-0.5669,-0.5355,-0.4849,0.0,0.0,0.0,0.0,-0.4859,-0.4901,-0.4914,-0.4887,-0.4849,-0.4739,-0.4632,-0.4491,-0.4491,-0.4405,-0.4239,-0.4253,-0.3959,-0.3361,-0.3153,0.0,0.0,0.0,0.0,0.0,0.0,0.0,0.0,0.0,0.0,0.0,0.0,0.0,0.0,0.0,0.0,0.0,0.0,0.0,0.2597,0.2569,0.25,0.0,0.0,0.0,0.0,0.0,0.0,0.0,0.0,0.0,0.3896,0.4007,0.4295,0.0,0.0,0.5011,0.6084,0.5843,0.5828,0.6609,0.6678,0.0,0.7268,0.7653,0.8017,0.8315,0.926,1.0173,1.0733,1.1153,1.151,1.1752,1.1677,1.1647,1.1888,1.2288,1.2586,1.256,1.3359,1.4225,1.4576,1.4968,1.5431,-1.2004,-1.011,-0.9258,-0.8908,-0.885,-0.8075,-0.7864,-0.7981,-0.7025,-0.6924,-0.7471,-0.7293,-0.7521,-0.8058,-0.7878,0.0,0.0,0.0,-0.8075,-0.76,-0.7652,-0.7424,-0.6963,-0.6928,-0.699,-0.707,-0.6897,-0.6891,-0.6996,-0.6827,-0.6538,-0.6124,0.0,0.0,-0.5103,-0.5099,-0.5128,-0.518,-0.51,-0.5028,-0.4969,-0.4863,-0.4739,-0.4656,-0.4601,-0.4574,-0.4574,-0.4519,-0.4339,-0.3959,-0.3486,-0.3028,0.0,0.0,0.0,0.0,0.0,0.0,0.0,0.0,0.0,0.0,0.0,0.0645,0.1316,0.0,0.0,0.0,0.13,0.1202,0.1341,0.1661,0.0,0.0,0.0,0.0,0.0,0.0,0.0,0.2968,0.3218,0.3402,0.3402,0.3516,0.3848,0.4475,0.4399,0.4597,0.5462,0.0,0.5357,0.5879,0.6092,0.6308,0.6607,0.7261,0.784,0.8155,0.9013,0.9765,0.9969,1.0423,1.0888,1.1193,1.1287,1.1428,1.1903,1.1992,1.2104,1.2408,1.3229,1.3939,1.4257,1.4593,1.4991,-1.4257,-1.3559,-1.1589,-1.067,-1.0419,-0.9377,-0.9167,-0.9414,-0.8124,-0.7804,-0.8254,-0.8962,-0.8971,-0.8486,-0.923,0.0,-0.931,-0.9478,-0.9359,-0.9018,-0.8996,-0.8821,-0.8538,-0.8511,-0.8636,-0.8847,-0.8424,-0.8358,-0.8538,-0.814,-0.7908,-0.7832,-0.6457,-0.5708,-0.5605,-0.5554,-0.5582,-0.5686,-0.5478,-0.5268,-0.5153,-0.501,-0.4947,-0.4933,-0.4774,-0.4719,-0.4719,-0.4591,-0.4522,-0.4494,-0.345,-0.3044,-0.3471,0.0,0.0,0.0,0.0,0.0,0.0,0.0,0.0,0.0,0.0,0.0,0.0,0.0,0.0,0.0,0.0517,0.0,-0.0589,0.0266,0.0,0.0,0.0,0.2565,0.2521,0.2593,0.2651,0.2659,0.0,0.0,0.3072,0.3345,0.3521,0.353,0.4012,0.4338,0.4314,0.4835,0.5182,0.5214,0.5781,0.6311,0.6446,0.7079,0.7646,0.7986,0.8339,0.8717,0.9074,0.9369,0.9739,1.032,1.0455,1.0726,1.1545,1.1694,1.2019,1.2687,1.3356,1.3822,1.3858,1.3912,1.4025,-1.6075,-1.564,-1.4929,-1.3775,-1.233,-1.1916,-1.164,-1.1449,-1.0884,-1.0695,-1.0788,-1.0317,-1.0196,-1.036,-1.0902,-1.1127,-1.1085,-1.0972,-1.0606,-1.0052,-0.9839,-0.9392,-0.8815,-0.8592,-0.8533,-0.8576,-0.8474,-0.8206,-0.7788,-0.7678,-0.7288,-0.6653,-0.6345,-0.6614,-0.7323,-0.6821,-0.6574,-0.6588,-0.6045,-0.5699,-0.5558,-0.5379,-0.5223,-0.5119,-0.494,-0.4846,-0.4846,-0.4725,-0.4703,-0.4787,-0.4342,-0.3781,-0.3098,-0.2689,0.0,0.0,0.0,0.0,0.0,0.0,0.0,0.0,0.0,-0.0463,-0.0154,0.0,-0.0322,0.0,-0.0476,-0.0434,0.0084,0.0266,0.0,0.0,0.1118,0.1441,0.1008,0.1666,0.222,0.2378,0.2685,0.2871,0.2871,0.2931,0.2977,0.2941,0.3509,0.4266,0.5099,0.4715,0.4662,0.5301,0.544,0.5707,0.6497,0.7114,0.7493,0.7438,0.8021,0.8489,0.8442,0.8906,0.9379,0.9689,1.0037,1.0385,1.0752,1.1247,1.1669,1.1911,1.2266,1.2674,1.3009,1.3152,1.3388,-1.6902,-1.6609,-1.6475,-1.5669,-1.4427,-1.3565,-1.3132,-1.298,-1.2081,-1.1824,-1.1976,-1.1582,-1.1745,-1.2296,-1.2565,-1.2598,-1.2456,-1.2341,-1.1942,-1.1349,-1.1175,-1.077,-1.0153,-0.999,-0.9951,-1.0003,-0.9791,-0.9573,-0.9363,-0.9092,-0.874,-0.8238,-0.826,-0.8567,-0.9065,-0.7446,-0.6745,-0.703,-0.6285,-0.5858,-0.5793,-0.5672,-0.5595,-0.5513,-0.5347,-0.526,-0.526,-0.5095,-0.5013,-0.5022,-0.4631,-0.4214,-0.3798,-0.3184,-0.2527,0.0,0.0,0.0,0.0,0.0,0.0,0.0,0.0,0.0,0.0,0.0,-0.067,-0.0576,-0.0781,-0.0688,-0.0143,-0.0043,-0.0029,-0.0029,0.0527,0.076,0.0439,0.1126,0.1692,0.1797,0.2295,0.2612,0.2576,0.2717,0.2801,0.2797,0.315,0.3682,0.4357,0.4259,0.429,0.4753,0.4932,0.5352,0.6331,0.6992,0.7305,0.7123,0.7606,0.8003,0.7793,0.8116,0.8571,0.8976,0.9265,0.9681,1.0357,1.0785,1.1185,1.1544,1.1755,1.1965,1.2197,1.2313,1.2528,-1.7165,-1.6961,-1.6939,-1.6771,-1.6337,-1.4828,-1.4277,-1.4297,-1.2895,-1.245,-1.2749,-1.2868,-1.3311,-1.3968,-1.3949,-1.3753,-1.3445,-1.34,-1.3091,-1.2568,-1.2519,-1.2245,-1.1816,-1.1741,-1.1805,-1.1896,-1.1492,-1.1389,-1.1519,-1.1068,-1.0733,-1.0564,-1.0413,-1.0385,-1.034,-0.772,-0.6598,-0.7083,-0.635,-0.5957,-0.5953,-0.5948,-0.5936,-0.5936,-0.579,-0.5733,-0.5733,-0.5536,-0.5381,-0.5274,-0.4735,-0.4564,-0.4838,-0.3758,-0.3077,0.0,-0.2395,0.0,0.0,0.0,0.0,0.0,0.0,0.0,0.0,-0.0741,-0.0674,-0.0484,-0.0743,-0.086,-0.0741,-0.0532,-0.0386,-0.0386,-0.0015,0.0247,0.0309,0.0724,0.1064,0.1207,0.1828,0.2254,0.2294,0.2521,0.2716,0.2713,0.2768,0.2936,0.3206,0.3627,0.3875,0.3791,0.4379,0.5088,0.5918,0.6623,0.6983,0.6843,0.7117,0.7342,0.7202,0.7305,0.7583,0.8195,0.843,0.8839,1.004,1.0295,1.0595,1.1092,1.124,1.1334,1.1591,1.1669,1.1638,-1.7273,-1.7214,-1.7214,-1.707,-1.6762,-1.6441,-1.6165,-1.5944,-1.5646,-1.5092,-1.4434,-1.4241,-1.423,-1.4367,-1.4223,-1.3946,-1.3641,-1.3476,-1.3203,-1.282,-1.2593,-1.2445,-1.234,-1.2061,-1.1943,-1.1967,-1.1873,-1.1461,-1.0724,-1.0887,-1.04,-0.9348,-0.9156,-0.9297,-0.9673,0.0,0.0,0.0,-0.6384,-0.6319,-0.6298,-0.6188,-0.6146,-0.6142,-0.5957,0.0,-0.5858,-0.5733,-0.5689,-0.5743,-0.5413,0.0,0.0,0.0,0.0,0.0,0.0,0.0,0.0,0.0,0.0,0.0,-0.1644,-0.1303,-0.0967,-0.0934,-0.0932,-0.0896,-0.0946,-0.098,-0.0949,-0.0908,-0.088,-0.0864,-0.0772,-0.0587,-0.0216,-0.0077,0.0295,0.1178,0.1405,0.1689,0.2072,0.2157,0.2147,0.214,0.2241,0.2388,0.2554,0.2961,0.3184,0.3217,0.3868,0.4672,0.5434,0.6006,0.6443,0.654,0.676,0.6915,0.6897,0.6774,0.6932,0.7575,0.7866,0.8172,0.8824,0.9288,0.9741,0.9869,0.9939,1.0256,1.1334,1.1591,1.1607,-1.7309,0.0,-1.7309,-1.7214,0.0,-1.7091,-1.6996,-1.6821,-1.6528,-1.6096,-1.5607,-1.5341,-1.5182,-1.5174,-1.4912,-1.4598,-1.4301,-1.4169,-1.3966,-1.3703,-1.3545,-1.3429,-1.3347,-1.3147,-1.3039,-1.2915,-1.2703,-1.2347,-1.1856,-1.1689,-1.1303,-1.0639,-1.043,-1.0488,-1.0735,-0.9337,-0.7935,-0.6554,-0.6448,-0.6404,-0.64,-0.6347,-0.631,-0.6294,-0.6197,0.0,0.0,0.0,0.0,0.0,0.0,0.0,0.0,0.0,0.0,-0.4229,-0.3399,-0.2905,-0.2888,-0.2696,-0.2451,-0.2202,-0.2025,-0.1643,-0.1045,-0.1013,-0.1003,-0.1004,-0.1001,-0.101,-0.1011,-0.1038,-0.1047,-0.1064,-0.1047,-0.0951,-0.0725,-0.0451,-0.0097,0.0443,0.097,0.1425,0.1678,0.1927,0.2009,0.1966,0.2035,0.214,0.2234,0.263,0.2947,0.296,0.3399,0.3981,0.4545,0.5313,0.5898,0.6174,0.6533,0.6777,0.6806,0.6722,0.6817,0.7253,0.7468,0.7732,0.8377,0.8796,0.9118,0.9406,0.9486,0.9678,1.0462,1.0832,1.1068,-1.7396,-1.7309,-1.7309,-1.7309,-1.7309,-1.7309,-1.7309,-1.7266,0.0,0.0,0.0,-1.6045,-1.595,-1.5965,-1.5578,-1.5293,-1.5075,-1.4958,-1.4781,-1.4572,-1.4521,-1.4406,-1.4269,-1.425,-1.4116,-1.3921,-1.3586,-1.3362,-1.324,-1.2815,-1.2527,-1.2416,-1.2077,-1.1744,-1.1427,-1.0433,-0.8941,-0.7099,-0.6742,-0.658,-0.6513,-0.6513,-0.6513,-0.6497,-0.6509,-0.6513,-0.6497,-0.6513,-0.6459,-0.6338,-0.6338,-0.6271,-0.6074,-0.5426,-0.5087,-0.5121,-0.4122,-0.3463,-0.348,-0.2995,-0.2593,-0.2371,-0.2356,-0.1987,-0.1175,-0.1098,-0.1067,-0.102,-0.1011,-0.1025,-0.1009,-0.1061,-0.1092,-0.1092,-0.1092,-0.1092,-0.1075,-0.0722,-0.0419,-0.0235,0.047,0.11,0.1304,0.1664,0.1981,0.1999,0.2018,0.2018,0.2072,0.24,0.2694,0.2763,0.2961,0.3246,0.3727,0.4386,0.5162,0.5637,0.6113,0.6492,0.6637,0.6663,0.6782,0.7024,0.7094,0.7395,0.8064,0.8238,0.8473,0.9032,0.915,0.915,0.9198,0.9662,1.0145,-1.7707,-1.7309,-1.7309,-1.7309,-1.7309,-1.7309,-1.7309,-1.7273,-1.6968,-1.6675,-1.6374,-1.6052,-1.606,-1.6294,-1.5673,-1.5513,-1.5717,-1.5148,-1.4878,-1.482,-1.4596,-1.4484,-1.4472,-1.4445,-1.428,-1.402,-1.4199,-1.4021,-1.3547,-1.3645,-1.3463,-1.2843,-1.1969,-1.0826,-0.9525,-0.9259,-0.8808,-0.8184,-0.7668,-0.7271,-0.6932,-0.6932,-0.6914,-0.6914,-0.6906,-0.6914,-0.6914,-0.6906,-0.6897,-0.6875,-0.6893,-0.6875,-0.6826,-0.6294,-0.6213,-0.6624,-0.6068,-0.5746,-0.5707,-0.5131,-0.4239,-0.3026,-0.2884,-0.2489,-0.1613,-0.1516,-0.1395,-0.113,-0.1119,-0.1086,-0.1087,-0.1125,-0.1145,-0.1127,-0.1109,-0.1109,-0.1109,-0.1041,-0.0806,-0.0386,-0.0185,0.0336,0.1066,0.1341,0.1613,0.1949,0.2018,0.2025,0.2022,0.2009,0.2136,0.2313,0.2357,0.2633,0.3197,0.3463,0.4062,0.4906,0.5135,0.5516,0.6079,0.6162,0.6302,0.6629,0.6648,0.6833,0.7328,0.7385,0.7584,0.7889,0.7961,0.7912,0.7956,0.842,0.9005,-1.797,-1.7707,-1.7419,-1.7309,-1.7309,-1.7309,-1.7309,-1.7295,-1.7179,-1.7033,-1.6865,-1.6587,-1.6528,-1.6631,-1.6169,-1.6023,-1.6148,-1.5855,-1.5716,-1.5701,-1.5583,-1.5429,-1.529,-1.5255,-1.4896,-1.4292,-1.4549,-1.4193,-1.328,-1.3531,-1.3452,-1.2986,-1.2355,-1.161,-1.0774,-1.0224,-0.9606,-0.8898,-0.8273,-0.7717,-0.7348,-0.7313,-0.7241,-0.7001,-0.6984,-0.6984,-0.6984,-0.6984,-0.6984,-0.6984,-0.6984,-0.6984,-0.6988,-0.6752,-0.6734,-0.6956,-0.6516,-0.619,-0.619,-0.5297,-0.4486,-0.3817,-0.3459,-0.3031,-0.2412,-0.216,-0.1966,-0.1826,-0.1808,-0.1791,-0.1807,-0.1769,-0.1755,-0.1737,-0.1732,-0.1614,-0.1412,-0.1378,-0.1193,-0.0789,-0.047,-0.0118,0.0353,0.093,0.1368,0.1664,0.1871,0.2084,0.2099,0.2064,0.2015,0.2084,0.2034,0.2191,0.2641,0.2945,0.3345,0.3967,0.4536,0.5,0.544,0.5633,0.5978,0.6264,0.6313,0.6494,0.6929,0.7049,0.7169,0.7437,0.751,0.751,0.7554,0.7766,0.828,-1.8567,-1.8357,-1.8035,-1.7831,-1.7757,-1.7666,-1.7637,-1.7637,-1.7652,-1.766,-1.7592,-1.7134,-1.6939,-1.6946,-1.6565,-1.647,-1.658,-1.6448,-1.6433,-1.6492,-1.6426,-1.6257,-1.6038,-1.6016,-1.5562,-1.4853,-1.5022,-1.4543,-1.3598,-1.3641,-1.3441,-1.2916,-1.2517,-1.2183,-1.1827,-1.1133,-1.0365,-0.9602,-0.8986,-0.84,-0.7875,-0.7857,-0.7712,-0.7418,-0.7292,-0.7233,-0.7255,-0.716,-0.711,-0.7106,-0.711,-0.711,-0.7106,-0.7124,-0.7106,-0.7074,-0.6739,-0.6353,-0.6044,-0.5219,-0.4562,-0.427,-0.3852,-0.3448,-0.3185,-0.2907,-0.2614,-0.2444,-0.2377,-0.2379,-0.2355,-0.2326,-0.2316,-0.2313,-0.2244,-0.2077,-0.1816,-0.1756,-0.1664,-0.1344,-0.089,-0.0588,-0.0286,0.037,0.099,0.1325,0.1816,0.2171,0.2197,0.2151,0.2053,0.1959,0.1877,0.1921,0.2123,0.2401,0.2782,0.3095,0.3801,0.4363,0.4729,0.5256,0.5637,0.5891,0.6025,0.6211,0.6599,0.675,0.6919,0.7191,0.7295,0.7363,0.7412,0.744,0.7831,-1.9997,-1.936,-1.9486,-1.9486,-1.9146,-1.88,-1.8635,-1.8627,-1.8666,-1.8666,-1.8488,-1.7439,-1.7064,-1.7156,-1.6697,-1.6741,-1.7143,-1.6653,-1.6558,-1.68,-1.6528,-1.6367,-1.6345,-1.6345,-1.614,-1.5741,-1.574,-1.5467,-1.4985,-1.4793,-1.3983,-1.2619,-1.1927,-1.1378,-1.0836,-1.0688,-1.0562,-1.0482,-1.0242,-0.9622,-0.8656,-0.8609,-0.859,-0.8533,-0.8173,-0.8011,-0.7985,-0.7645,-0.745,-0.7454,-0.7461,-0.7465,-0.7461,-0.7469,-0.7446,-0.7465,-0.7404,-0.6896,-0.5829,-0.5547,-0.5016,-0.399,-0.3844,-0.3749,-0.3711,-0.3674,-0.3282,-0.2677,-0.2442,-0.2484,-0.2419,-0.2433,-0.2465,-0.2482,-0.2394,-0.2271,-0.2248,-0.2171,-0.2136,-0.2119,-0.1667,-0.1311,-0.0857,-0.0386,0.0252,0.1109,0.1664,0.2085,0.2167,0.216,0.2119,0.2062,0.1968,0.1911,0.1952,0.1898,0.221,0.2659,0.2834,0.3389,0.4125,0.4622,0.4967,0.5455,0.5695,0.5854,0.6152,0.6314,0.6537,0.6829,0.6973,0.7028,0.7171,0.722,0.7608,-2.0506,-2.015,-1.9974,-1.9813,-1.9654,-1.9304,-1.9153,-1.9129,-1.8884,-1.8804,-1.8742,-1.8233,-1.8087,-1.8149,-1.7629,-1.7559,-1.7723,-1.7193,-1.7004,-1.7121,-1.6996,-1.6843,-1.6712,-1.6697,-1.6335,-1.5658,-1.552,-1.5252,-1.4798,-1.4636,-1.3876,-1.2564,-1.2192,-1.1886,-1.1411,-1.0865,-1.0597,-1.0592,-1.0526,-1.0265,-0.9809,-0.9313,-0.8937,-0.8723,-0.8537,-0.846,-0.8441,-0.8284,-0.8208,-0.8208,-0.8227,-0.8203,-0.8203,-0.8222,-0.8093,-0.7887,-0.7618,-0.7273,-0.6742,-0.6031,-0.5389,-0.489,-0.419,-0.3821,-0.3821,-0.3821,-0.3612,-0.3326,-0.3213,-0.3214,-0.3209,-0.3154,-0.3087,-0.3096,-0.3058,-0.2925,-0.2725,-0.2627,-0.2498,-0.229,-0.209,-0.1885,-0.1597,-0.1176,-0.042,0.0571,0.1176,0.1515,0.1898,0.2099,0.217,0.2139,0.2074,0.1992,0.1917,0.1894,0.1993,0.2157,0.2476,0.3016,0.3316,0.3832,0.4266,0.4935,0.5085,0.5424,0.6039,0.6143,0.6302,0.6561,0.6797,0.693,0.7012,0.7028,0.7237,-2.1136,-2.0987,-2.063,-2.0484,-2.0443,-2.011,-1.9931,-1.9922,-1.9631,-1.9454,-1.9373,-1.9388,-1.9308,-1.9135,-1.8566,-1.8295,-1.8249,-1.7893,-1.7699,-1.7699,-1.7707,-1.7603,-1.7439,-1.7424,-1.7039,-1.6398,-1.6193,-1.5624,-1.4794,-1.418,-1.3549,-1.2689,-1.2461,-1.2266,-1.1976,-1.1257,-1.0902,-1.0876,-1.079,-1.0729,-1.0615,-1.0016,-0.9523,-0.9242,-0.9101,-0.9063,-0.9043,-0.8946,-0.8893,-0.8893,-0.8893,-0.8893,-0.8893,-0.8893,-0.8734,-0.8393,-0.8032,-0.7748,-0.7599,-0.6722,-0.6086,-0.5738,-0.4768,-0.4172,-0.4036,-0.3899,-0.3821,-0.3778,-0.3821,-0.3776,-0.3795,-0.3703,-0.3648,-0.3658,-0.3587,-0.3424,-0.3178,-0.3056,-0.2905,-0.267,-0.2551,-0.2253,-0.1959,-0.1523,-0.0902,0.0085,0.0561,0.0846,0.1432,0.1816,0.2101,0.2118,0.2128,0.2082,0.1983,0.1947,0.1916,0.1938,0.2254,0.2528,0.2697,0.3185,0.3606,0.4277,0.4383,0.4699,0.5348,0.5672,0.59,0.633,0.6563,0.6648,0.6748,0.6791,0.6872,-2.2295,-2.1938,-2.1896,-2.1847,-2.1862,-2.1454,-2.1292,-2.1212,-2.1193,-2.1062,-2.0749,-2.0738,-2.0573,-2.0152,-1.9267,-1.8781,-1.8781,-1.8689,-1.8635,-1.8643,-1.8666,-1.8704,-1.8742,-1.8711,-1.8619,-1.8202,-1.7811,-1.7071,-1.5738,-1.4148,-1.3132,-1.3057,-1.2524,-1.2156,-1.2044,-1.1738,-1.1634,-1.1515,-1.1176,-1.0966,-1.0945,-1.0668,-1.0505,-1.0419,-1.0135,-0.9908,-0.9883,-0.9553,-0.9391,-0.9375,-0.9377,-0.9386,-0.9371,-0.9361,-0.9275,-0.9045,-0.8788,-0.8393,-0.7923,-0.7701,-0.725,-0.6351,-0.5711,-0.5087,-0.4729,-0.4278,-0.3986,-0.381,-0.384,-0.3814,-0.3812,-0.3795,-0.3785,-0.3762,-0.3673,-0.3588,-0.3563,-0.3471,-0.3481,-0.3346,-0.3112,-0.2608,-0.1554,-0.1418,-0.112,-0.0384,0.0175,0.0555,0.0848,0.145,0.1838,0.1952,0.2043,0.2159,0.2095,0.2034,0.2001,0.2002,0.209,0.2237,0.2616,0.2988,0.3321,0.3613,0.3783,0.412,0.4628,0.4983,0.5225,0.5551,0.5868,0.6046,0.6213,0.6521,0.6641,-2.2525,-2.238,-2.2372,-2.2372,-2.2362,-2.1944,-2.179,-2.1764,-2.1516,-2.1321,-2.1191,-2.1009,-2.0925,-2.0979,-2.0414,-1.9832,-1.9311,-1.8966,-1.8804,-1.8804,-1.8804,-1.8804,-1.8804,-1.8804,-1.8427,-1.7824,-1.7224,-1.6347,-1.5383,-1.5295,-1.4816,-1.3683,-1.3206,-1.2734,-1.2165,-1.1817,-1.1698,-1.1666,-1.1348,-1.1177,-1.1198,-1.1091,-1.1053,-1.1032,-1.0624,-1.0384,-1.039,-1.0242,-1.0166,-1.0187,-1.0172,-1.0166,-1.0126,-0.9933,-0.9741,-0.9662,-0.9343,-0.9041,-0.8821,-0.8453,-0.8105,-0.7705,-0.7119,-0.6388,-0.5777,-0.5291,-0.4844,-0.4308,-0.3975,-0.3872,-0.3838,-0.3819,-0.3821,-0.3798,-0.3753,-0.3729,-0.3697,-0.3636,-0.356,-0.3536,-0.3408,-0.3116,-0.2627,-0.2257,-0.1668,-0.0932,-0.0126,0.0479,0.1009,0.1503,0.1751,0.174,0.1883,0.1995,0.1979,0.2037,0.2055,0.2017,0.2059,0.2092,0.2331,0.2418,0.2677,0.314,0.3324,0.3564,0.4062,0.4404,0.4615,0.4636,0.4965,0.5399,0.5598,0.593,0.62,-2.2628,-2.2628,-2.2628,-2.2628,-2.2568,-2.2303,-2.22,-2.2166,-2.1917,-2.1713,-2.1567,-2.1369,-2.1319,-2.1362,-2.1156,-2.0768,-2.0197,-1.9793,-1.9645,-1.9629,-1.9629,-1.9588,-1.9498,-1.9467,-1.8876,-1.7722,-1.649,-1.5567,-1.5028,-1.5458,-1.5005,-1.3801,-1.3582,-1.3211,-1.2591,-1.2232,-1.2066,-1.2,-1.1721,-1.1531,-1.1439,-1.1418,-1.138,-1.1278,-1.0973,-1.0849,-1.0828,-1.0823,-1.0843,-1.0823,-1.0849,-1.0823,-1.0802,-1.0511,-1.0326,-1.028,-0.9989,-0.9801,-0.9694,-0.913,-0.8671,-0.8467,-0.7663,-0.6826,-0.6084,-0.5669,-0.5131,-0.4576,-0.4231,-0.4065,-0.4032,-0.3948,-0.385,-0.382,-0.3821,-0.3821,-0.3819,-0.3729,-0.3675,-0.3658,-0.3579,-0.3433,-0.3202,-0.2868,-0.2358,-0.1693,-0.0755,0.0036,0.0464,0.1196,0.1587,0.1574,0.1691,0.1769,0.1793,0.183,0.2027,0.2029,0.2054,0.2042,0.2032,0.2051,0.219,0.2638,0.2931,0.3162,0.3453,0.3807,0.3893,0.3854,0.4234,0.4747,0.5019,0.5352,0.572,-2.2628,-2.2603,-2.2628,-2.2645,-2.2645,-2.262,-2.2594,-2.2594,-2.2551,-2.2286,-2.2004,-2.1953,-2.1747,-2.1525,-2.1465,-2.1381,-2.135,-2.127,-2.1219,-2.1159,-2.1191,-2.1038,-2.0766,-2.071,-1.9917,-1.8504,-1.6537,-1.5507,-1.5373,-1.4554,-1.3909,-1.3674,-1.3609,-1.349,-1.3468,-1.2947,-1.2776,-1.2652,-1.2304,-1.1971,-1.1753,-1.1721,-1.1602,-1.1359,-1.1295,-1.1268,-1.1273,-1.1268,-1.1225,-1.1241,-1.1246,-1.1278,-1.1198,-1.1037,-1.0982,-1.0914,-1.0727,-1.0594,-1.0487,-0.9804,-0.9199,-0.8684,-0.7351,-0.6593,-0.602,-0.5386,-0.4945,-0.476,-0.4548,-0.4406,-0.4365,-0.4182,-0.3991,-0.3843,-0.3807,-0.3818,-0.3812,-0.3804,-0.3819,-0.3781,-0.3679,-0.3307,-0.2919,-0.2969,-0.2931,-0.2305,-0.1492,-0.0842,-0.0493,0.0574,0.1287,0.1415,0.1506,0.1615,0.1598,0.1616,0.1868,0.2048,0.2099,0.2117,0.2089,0.2087,0.2131,0.2458,0.2473,0.2677,0.2895,0.3239,0.3423,0.3482,0.3857,0.4048,0.4386,0.4761,0.5405,-2.2628,-2.2637,-2.286,-2.2937,-2.2937,-2.2963,-2.2963,-2.2903,-2.2697,-2.2534,-2.2388,-2.2115,-2.2089,-2.214,-2.1969,-2.1977,-2.2209,-2.2225,-2.1943,-2.149,-2.1398,-2.1347,-2.122,-2.121,-2.0154,-1.8374,-1.749,-1.6559,-1.572,-1.5211,-1.4991,-1.4758,-1.4088,-1.3714,-1.3522,-1.3223,-1.3068,-1.3034,-1.275,-1.2438,-1.2213,-1.2185,-1.198,-1.1623,-1.1591,-1.1477,-1.1321,-1.1289,-1.1289,-1.1289,-1.1289,-1.1289,-1.1268,-1.1236,-1.1193,-1.1187,-1.1134,-1.1091,-1.1043,-1.0778,-1.0227,-0.9594,-0.897,-0.8072,-0.6867,-0.6297,-0.5798,-0.5273,-0.492,-0.4725,-0.4716,-0.4594,-0.4347,-0.3977,-0.3895,-0.3888,-0.3854,-0.3817,-0.3808,-0.38,-0.3758,-0.3622,-0.3361,-0.3316,-0.2863,-0.2496,-0.1431,-0.0575,-0.0263,0.0407,0.1227,0.1264,0.1374,0.1465,0.1457,0.1496,0.1662,0.1835,0.1904,0.1987,0.2018,0.2085,0.2136,0.2204,0.2204,0.228,0.249,0.2657,0.2867,0.2817,0.2856,0.3193,0.3668,0.4205,0.4784,-2.2783,-2.2809,-2.3014,-2.3194,-2.3288,-2.3186,-2.3117,-2.3083,-2.2886,-2.2697,-2.2568,-2.2337,-2.2346,-2.2517,-2.2329,-2.2363,-2.2594,-2.2628,-2.2345,-2.1811,-2.1351,-2.1162,-2.0825,-1.9957,-1.8957,-1.7599,-1.7044,-1.6417,-1.5582,-1.543,-1.53,-1.5011,-1.4401,-1.3997,-1.3793,-1.3582,-1.346,-1.3419,-1.3204,-1.2944,-1.2749,-1.2709,-1.2494,-1.2158,-1.212,-1.1976,-1.1728,-1.1695,-1.157,-1.1348,-1.1289,-1.1289,-1.1289,-1.1284,-1.1289,-1.1289,-1.1284,-1.1278,-1.1267,-1.0885,-1.0581,-0.9946,-0.9266,-0.8408,-0.7246,-0.6741,-0.6058,-0.5605,-0.5244,-0.5092,-0.5061,-0.4906,-0.467,-0.4409,-0.4254,-0.4095,-0.4014,-0.3939,-0.3867,-0.3841,-0.38,-0.3821,-0.3645,-0.3429,-0.2999,-0.2784,-0.1821,-0.0723,-0.0442,0.019,0.0656,0.1054,0.1277,0.1324,0.1326,0.1387,0.1497,0.1576,0.1653,0.1731,0.1799,0.1951,0.2052,0.2153,0.2204,0.2204,0.2371,0.2325,0.2418,0.219,0.2181,0.2739,0.3324,0.3499,0.4081,-2.3117,-2.3143,-2.3177,-2.3408,-2.3666,-2.3374,-2.3237,-2.3211,-2.3109,-2.2929,-2.2697,-2.2577,-2.2568,-2.2594,-2.2551,-2.2568,-2.2628,-2.2603,-2.2577,-2.2148,-2.1348,-2.052,-2.0042,-1.8447,-1.7428,-1.6727,-1.5973,-1.5398,-1.5174,-1.4978,-1.4727,-1.4709,-1.4491,-1.431,-1.4178,-1.4016,-1.3896,-1.386,-1.3662,-1.3445,-1.3256,-1.325,-1.3077,-1.2797,-1.2734,-1.2569,-1.2325,-1.224,-1.198,-1.1424,-1.131,-1.1289,-1.1289,-1.1289,-1.1289,-1.1289,-1.1289,-1.1289,-1.1111,-1.0711,-1.0142,-0.9833,-0.8632,-0.7161,-0.7117,-0.6504,-0.5975,-0.5688,-0.5497,-0.5383,-0.5359,-0.5213,-0.5048,-0.5,-0.4725,-0.4466,-0.418,-0.4152,-0.411,-0.3937,-0.384,-0.3832,-0.384,-0.3736,-0.3704,-0.3507,-0.2842,-0.1975,-0.1169,-0.0347,0.0343,0.0811,0.1216,0.1271,0.1293,0.1274,0.1352,0.1394,0.1453,0.1525,0.1646,0.181,0.1968,0.2085,0.2175,0.219,0.2193,0.2199,0.2201,0.2178,0.2375,0.2704,0.2896,0.3058,0.3672,-2.3271,-2.3572,-2.3793,-2.3972,-2.4068,-2.3947,-2.3904,-2.3835,-2.3322,-2.3091,-2.2912,-2.2714,-2.2611,-2.2628,-2.2628,-2.2628,-2.2552,-2.2603,-2.2628,-2.2291,-2.05,-1.9682,-1.9471,-1.8836,-1.7895,-1.7034,-1.6573,-1.6094,-1.517,-1.5052,-1.4895,-1.4721,-1.4642,-1.4497,-1.431,-1.422,-1.4208,-1.4208,-1.413,-1.3944,-1.3741,-1.3694,-1.3507,-1.3129,-1.292,-1.2696,-1.2419,-1.2249,-1.2015,-1.1628,-1.1413,-1.1289,-1.1305,-1.1305,-1.1305,-1.1289,-1.1289,-1.1289,-1.1241,-1.103,-1.0591,-0.9963,-0.9235,-0.8566,-0.7205,-0.6877,-0.6374,-0.5911,-0.5621,-0.5621,-0.5599,-0.5552,-0.5474,-0.5341,-0.5053,-0.4767,-0.4573,-0.4538,-0.4476,-0.4285,-0.418,-0.4067,-0.3944,-0.3849,-0.3829,-0.3647,-0.3116,-0.2313,-0.1563,-0.0703,0.0058,0.0854,0.1278,0.1276,0.1269,0.1212,0.1218,0.1232,0.1282,0.1356,0.1517,0.1696,0.1849,0.1968,0.2084,0.2122,0.2164,0.2205,0.2201,0.219,0.2332,0.2544,0.2513,0.2649,0.3464,-2.3814,-2.3913,-2.4109,-2.4306,-2.4417,-2.428,-2.4212,-2.4135,-2.3767,-2.3356,-2.3126,-2.292,-2.2714,-2.2611,-2.2628,-2.2308,-2.1971,-2.2384,-2.2342,-2.1582,-2.0055,-1.8779,-1.8047,-1.7785,-1.739,-1.6762,-1.6658,-1.6197,-1.5548,-1.5336,-1.5191,-1.5071,-1.4938,-1.4745,-1.4479,-1.4443,-1.4401,-1.4322,-1.4298,-1.4208,-1.407,-1.407,-1.3951,-1.3684,-1.3483,-1.3255,-1.2895,-1.2561,-1.2235,-1.1944,-1.1715,-1.1579,-1.1483,-1.1472,-1.1434,-1.1332,-1.1289,-1.1289,-1.1219,-1.1032,-1.0804,-1.0406,-0.978,-0.8692,-0.7811,-0.7186,-0.6242,-0.5808,-0.5713,-0.571,-0.571,-0.571,-0.5678,-0.5563,-0.5365,-0.5124,-0.4888,-0.4856,-0.474,-0.458,-0.4421,-0.4299,-0.4068,-0.395,-0.3847,-0.3736,-0.347,-0.2725,-0.1979,-0.1077,-0.0215,0.051,0.1198,0.1291,0.1287,0.1253,0.1245,0.1241,0.1224,0.1267,0.1403,0.1599,0.1729,0.1855,0.198,0.2093,0.2142,0.2186,0.2194,0.2229,0.2285,0.233,0.2354,0.2687,0.3478,-2.4481,-2.4272,-2.4263,-2.4468,-2.4699,-2.4417,-2.4306,-2.428,-2.4169,-2.3818,-2.3331,-2.316,-2.2937,-2.2629,-2.2359,-2.1852,-2.1013,-2.1607,-2.1225,-2.0413,-1.9286,-1.8091,-1.6505,-1.6357,-1.6219,-1.6029,-1.5933,-1.5935,-1.5759,-1.5614,-1.5543,-1.5396,-1.5228,-1.5016,-1.4762,-1.4696,-1.4545,-1.4401,-1.4322,-1.4304,-1.4256,-1.4256,-1.4208,-1.4166,-1.4058,-1.3824,-1.3431,-1.3073,-1.2684,-1.2232,-1.2155,-1.1964,-1.1769,-1.1736,-1.1655,-1.1493,-1.1455,-1.1445,-1.1341,-1.0946,-1.0686,-1.0895,-0.9175,-0.7962,-0.8136,-0.7102,-0.615,-0.5741,-0.5713,-0.571,-0.571,-0.571,-0.5705,-0.5667,-0.5655,-0.551,-0.5254,-0.5149,-0.5066,-0.4793,-0.4603,-0.4479,-0.4301,-0.4112,-0.3927,-0.3889,-0.3597,-0.3133,-0.2351,-0.1495,-0.0687,0.0078,0.0706,0.1317,0.1315,0.1313,0.1291,0.1286,0.125,0.1265,0.134,0.15,0.1619,0.1732,0.1827,0.1956,0.21,0.2139,0.2164,0.2236,0.2286,0.233,0.2404,0.298,0.3688,-2.4437,-2.4665,-2.4665,-2.4708,-2.4776,-2.4708,-2.4665,-2.4631,-2.434,-2.4118,-2.3852,-2.3356,-2.31,-2.2954,-2.195,-2.1097,-2.0761,-2.0349,-1.9339,-1.8417,-1.8362,-1.7506,-1.638,-1.609,-1.5936,-1.591,-1.5891,-1.5891,-1.5861,-1.5831,-1.5698,-1.5511,-1.5457,-1.5288,-1.5046,-1.4834,-1.4672,-1.4594,-1.4425,-1.431,-1.4322,-1.4322,-1.4322,-1.4298,-1.4118,-1.3853,-1.3582,-1.3416,-1.3215,-1.2842,-1.242,-1.2185,-1.204,-1.2019,-1.1953,-1.1893,-1.1882,-1.1899,-1.1858,-1.1647,-1.1347,-1.0724,-0.9916,-0.909,-0.7652,-0.7211,-0.6432,-0.5936,-0.571,-0.5735,-0.5727,-0.5716,-0.5716,-0.5716,-0.5686,-0.5667,-0.5574,-0.5558,-0.5435,-0.5269,-0.5103,-0.4896,-0.4525,-0.4383,-0.4203,-0.401,-0.3741,-0.3452,-0.2744,-0.1928,-0.1093,-0.0298,0.0652,0.1269,0.1306,0.1303,0.1317,0.1317,0.1285,0.1277,0.1334,0.1374,0.1509,0.1583,0.1653,0.181,0.1991,0.2073,0.2069,0.2177,0.2256,0.2271,0.2473,0.313,0.391,-2.4726,-2.4785,-2.4821,-2.4821,-2.4821,-2.4821,-2.4821,-2.4759,-2.4588,-2.4374,-2.4152,-2.375,-2.3545,-2.3279,-2.1971,-2.1097,-2.037,-1.9389,-1.8862,-1.8636,-1.8483,-1.7861,-1.7264,-1.6612,-1.6223,-1.6115,-1.6112,-1.6051,-1.5946,-1.6,-1.5952,-1.5704,-1.5686,-1.5541,-1.5324,-1.5131,-1.495,-1.4733,-1.4557,-1.4443,-1.4322,-1.4322,-1.4322,-1.4298,-1.416,-1.3968,-1.3708,-1.369,-1.3539,-1.3254,-1.2945,-1.2581,-1.2283,-1.2238,-1.219,-1.211,-1.2089,-1.2089,-1.2071,-1.1706,-1.1221,-1.0641,-0.9827,-0.873,-0.7647,-0.7094,-0.6527,-0.6053,-0.5876,-0.5862,-0.58,-0.5792,-0.5775,-0.5696,-0.5716,-0.5713,-0.5713,-0.5713,-0.5666,-0.5522,-0.5379,-0.5143,-0.4896,-0.4675,-0.443,-0.4235,-0.4006,-0.3693,-0.326,-0.2418,-0.1471,-0.055,0.0584,0.1221,0.1298,0.1311,0.1318,0.1317,0.1313,0.129,0.1321,0.1344,0.1385,0.1468,0.157,0.1691,0.1844,0.1909,0.1956,0.1994,0.2043,0.2122,0.256,0.339,0.4171,-2.5128,-2.4868,-2.4932,-2.4876,-2.4821,-2.4849,-2.4849,-2.4821,-2.4821,-2.4588,-2.4314,-2.4246,-2.3938,-2.3484,-2.2071,-2.0885,-1.9598,-1.8741,-1.8288,-1.8714,-1.827,-1.7961,-1.7654,-1.7098,-1.6634,-1.6435,-1.6368,-1.6263,-1.6169,-1.6211,-1.6211,-1.5994,-1.5952,-1.5807,-1.5608,-1.5481,-1.5282,-1.4931,-1.4804,-1.4702,-1.4527,-1.4485,-1.4473,-1.4401,-1.4286,-1.419,-1.3997,-1.3949,-1.3835,-1.3588,-1.3563,-1.3209,-1.2771,-1.2499,-1.2416,-1.2201,-1.2047,-1.2017,-1.2082,-1.1497,-1.0867,-1.0613,-0.928,-0.8073,-0.749,-0.6786,-0.6341,-0.6162,-0.6048,-0.6041,-0.5945,-0.5934,-0.5885,-0.5805,-0.5775,-0.5734,-0.5738,-0.5738,-0.5721,-0.5663,-0.5556,-0.5357,-0.5168,-0.4949,-0.4694,-0.4452,-0.4219,-0.3951,-0.3526,-0.2856,-0.19,-0.0977,0.0082,0.1044,0.1225,0.1322,0.1307,0.1309,0.1307,0.1321,0.132,0.1325,0.137,0.1434,0.1523,0.1626,0.1694,0.1763,0.1786,0.178,0.1902,0.2057,0.2765,0.3669,0.4443,-2.5431,-2.5146,-2.5431,-2.5283,-2.4868,-2.5045,-2.497,-2.4821,-2.471,-2.4759,-2.4565,-2.4294,-2.4005,-2.342,-2.1449,-1.9401,-1.7953,-1.7397,-1.7316,-1.76,-1.7428,-1.747,-1.7413,-1.722,-1.6984,-1.6911,-1.6767,-1.6616,-1.6537,-1.6598,-1.6483,-1.6272,-1.6245,-1.6079,-1.5861,-1.5632,-1.5523,-1.5312,-1.5143,-1.4992,-1.4914,-1.4883,-1.4787,-1.4593,-1.4437,-1.431,-1.4256,-1.4202,-1.4112,-1.3859,-1.3835,-1.3637,-1.3321,-1.3088,-1.2857,-1.2424,-1.1812,-1.1691,-1.1996,-1.1584,-1.0704,-0.9999,-0.9238,-0.8108,-0.703,-0.6366,-0.6221,-0.6162,-0.6113,-0.6086,-0.6085,-0.608,-0.6048,-0.6021,-0.5983,-0.5956,-0.5888,-0.5844,-0.5786,-0.5702,-0.5641,-0.5566,-0.5375,-0.522,-0.5012,-0.4752,-0.4513,-0.4325,-0.4039,-0.3248,-0.2279,-0.1387,-0.0502,0.0418,0.1151,0.1251,0.1303,0.1317,0.1306,0.1312,0.1308,0.1319,0.1354,0.139,0.1409,0.1461,0.1536,0.1615,0.1633,0.1611,0.181,0.2051,0.2883,0.3761,0.4772,-2.5596,-2.5459,-2.545,-2.5293,-2.5026,-2.4998,-2.4545,-2.3924,-2.3868,-2.3496,-2.2983,-2.268,-2.2601,-2.208,-2.0695,-1.8706,-1.7487,-1.7105,-1.7105,-1.7153,-1.726,-1.7321,-1.7315,-1.7286,-1.7292,-1.7261,-1.7153,-1.693,-1.6742,-1.6845,-1.6764,-1.6589,-1.6523,-1.6429,-1.6284,-1.606,-1.5843,-1.5698,-1.5463,-1.5252,-1.5112,-1.5119,-1.4974,-1.4751,-1.4588,-1.4449,-1.431,-1.4322,-1.4256,-1.4142,-1.4118,-1.3973,-1.3757,-1.3515,-1.3093,-1.2306,-1.1565,-1.1077,-1.1179,-1.0567,-0.9895,-0.893,-0.8728,-0.7968,-0.6833,-0.6339,-0.6257,-0.626,-0.6263,-0.6241,-0.6213,-0.6205,-0.6172,-0.6086,-0.6048,-0.5986,-0.5915,-0.586,-0.5792,-0.5746,-0.5702,-0.5649,-0.5574,-0.5428,-0.528,-0.5063,-0.4811,-0.4619,-0.4474,-0.3687,-0.2711,-0.1397,-0.0429,0.0532,0.1214,0.1254,0.133,0.1326,0.1309,0.1317,0.1319,0.1312,0.1303,0.1335,0.1336,0.1368,0.1374,0.1447,0.1452,0.1537,0.198,0.2444,0.3079,0.3893,0.4991,-2.5761,-2.5688,-2.5422,-2.5083,-2.475,-2.4593,-2.3776,-2.2797,-2.2628,-2.2112,-2.118,-2.1144,-2.1194,-2.0809,-1.9898,-1.8639,-1.7537,-1.7461,-1.7436,-1.743,-1.7443,-1.7502,-1.7479,-1.7485,-1.7461,-1.743,-1.7418,-1.7267,-1.7032,-1.7086,-1.7002,-1.6845,-1.6779,-1.673,-1.6616,-1.6416,-1.6251,-1.6075,-1.5795,-1.5529,-1.5324,-1.5203,-1.5095,-1.4865,-1.4756,-1.46,-1.4443,-1.4328,-1.4304,-1.4304,-1.428,-1.4202,-1.4022,-1.3931,-1.3214,-1.1955,-1.1297,-1.0587,-1.0293,-0.9382,-0.8937,-0.8241,-0.8046,-0.7425,-0.675,-0.6385,-0.6393,-0.6412,-0.6398,-0.6363,-0.6312,-0.6301,-0.6284,-0.6192,-0.6097,-0.601,-0.5996,-0.5964,-0.592,-0.5863,-0.5773,-0.5718,-0.5668,-0.5599,-0.5463,-0.5307,-0.5053,-0.49,-0.469,-0.4142,-0.3093,-0.1459,-0.022,0.0826,0.1321,0.1297,0.1349,0.1349,0.1339,0.1329,0.1327,0.1306,0.1319,0.1318,0.1307,0.1334,0.1316,0.132,0.1363,0.161,0.2231,0.2835,0.3434,0.4406,0.5543,-2.5907,-2.5688,-2.5651,-2.475,-2.3508,-2.36,-2.2761,-2.1472,-2.1415,-2.1273,-2.0787,-2.0959,-2.0873,-2.0594,-1.9723,-1.8577,-1.7801,-1.7485,-1.7485,-1.7485,-1.7485,-1.7485,-1.7485,-1.7485,-1.7485,-1.7485,-1.7485,-1.7496,-1.7363,-1.7364,-1.7292,-1.7092,-1.7026,-1.6954,-1.6815,-1.67,-1.664,-1.6549,-1.632,-1.6042,-1.5777,-1.5592,-1.5463,-1.527,-1.501,-1.4696,-1.4618,-1.4455,-1.4334,-1.4322,-1.4322,-1.4274,-1.4202,-1.3997,-1.3335,-1.2174,-1.1146,-1.0464,-1.0603,-0.9275,-0.817,-0.7822,-0.7847,-0.7375,-0.6758,-0.6412,-0.6412,-0.6412,-0.6412,-0.6404,-0.6379,-0.6385,-0.6377,-0.6344,-0.6276,-0.6249,-0.6211,-0.6053,-0.601,-0.598,-0.592,-0.5816,-0.575,-0.5693,-0.5621,-0.5485,-0.5327,-0.5171,-0.4723,-0.4052,-0.3336,-0.1696,-0.0022,0.1082,0.1385,0.136,0.1367,0.137,0.1363,0.1357,0.1333,0.1311,0.1312,0.1313,0.132,0.1313,0.1313,0.1321,0.1317,0.1713,0.2355,0.3081,0.3792,0.4894,0.6147,-2.6008,-2.5907,-2.5761,-2.5174,-2.4298,-2.4203,-2.2994,-2.1387,-2.1073,-2.03,-1.9248,-1.908,-1.908,-1.9029,-1.8431,-1.8006,-1.7537,-1.7485,-1.7485,-1.7485,-1.7485,-1.7485,-1.7485,-1.7485,-1.7485,-1.7485,-1.7485,-1.7485,-1.7485,-1.7473,-1.7436,-1.7334,-1.7333,-1.728,-1.7074,-1.6984,-1.6936,-1.6839,-1.6668,-1.6329,-1.6006,-1.5918,-1.5821,-1.5543,-1.527,-1.5016,-1.4738,-1.463,-1.4437,-1.4358,-1.4322,-1.4298,-1.4298,-1.4178,-1.3841,-1.3492,-1.212,-1.0921,-0.9715,-0.8241,-0.7577,-0.7154,-0.7104,-0.683,-0.6462,-0.6412,-0.6412,-0.6412,-0.6412,-0.6412,-0.6412,-0.6412,-0.6412,-0.6404,-0.6379,-0.6352,-0.6285,-0.6192,-0.6097,-0.607,-0.6043,-0.5975,-0.5893,-0.5777,-0.5725,-0.5642,-0.5489,-0.5337,-0.4523,-0.3444,-0.273,-0.1856,-0.0201,0.1341,0.1405,0.138,0.1385,0.139,0.1382,0.1373,0.1332,0.1319,0.1321,0.1318,0.1317,0.1306,0.1308,0.1328,0.1333,0.1884,0.253,0.3376,0.4304,0.561,0.6679,-2.619,-2.6072,-2.5706,-2.5303,-2.4797,-2.4267,-2.2749,-2.0873,-2.0372,-1.9232,-1.7912,-1.7596,-1.7567,-1.7514,-1.7596,-1.7567,-1.7514,-1.7485,-1.7485,-1.7485,-1.7485,-1.7485,-1.7485,-1.7485,-1.7485,-1.7485,-1.7485,-1.7485,-1.7485,-1.7479,-1.7479,-1.7485,-1.7443,-1.7449,-1.7448,-1.7315,-1.7165,-1.7026,-1.6803,-1.6489,-1.6205,-1.6154,-1.6003,-1.5791,-1.5541,-1.5312,-1.498,-1.4829,-1.466,-1.4479,-1.4431,-1.4292,-1.3883,-1.3709,-1.3444,-1.2931,-1.178,-1.0529,-0.923,-0.8,-0.7086,-0.6639,-0.6412,-0.6509,-0.6462,-0.6412,-0.6412,-0.6412,-0.6412,-0.6412,-0.6412,-0.6412,-0.6412,-0.639,-0.638,-0.6339,-0.6304,-0.6257,-0.6233,-0.6227,-0.6198,-0.6146,-0.6051,-0.5903,-0.5818,-0.5788,-0.5663,-0.5472,-0.4515,-0.3257,-0.2398,-0.1705,-0.0157,0.1235,0.1391,0.1386,0.1395,0.141,0.1402,0.1397,0.1361,0.1354,0.1354,0.1349,0.1319,0.1338,0.1352,0.1351,0.1435,0.2205,0.3007,0.3902,0.493,0.6217,0.699,-2.6382,-2.6072,-2.545,-2.475,-2.3935,-2.241,-2.1188,-1.9983,-1.8852,-1.8188,-1.7567,-1.7485,-1.7485,-1.7485,-1.7485,-1.7485,-1.7485,-1.7485,-1.7485,-1.7485,-1.7485,-1.7485,-1.7485,-1.7485,-1.7485,-1.7485,-1.7485,-1.7485,-1.7485,-1.7485,-1.7485,-1.7485,-1.7485,-1.7485,-1.7473,-1.7418,-1.7267,-1.7117,-1.6899,-1.673,-1.6453,-1.6266,-1.6075,-1.6081,-1.5759,-1.5469,-1.5427,-1.5178,-1.4937,-1.4678,-1.4611,-1.4045,-1.3389,-1.3147,-1.2791,-1.1882,-1.1121,-1.0071,-0.9114,-0.8347,-0.7702,-0.7036,-0.6564,-0.6412,-0.6412,-0.6412,-0.6412,-0.6412,-0.6412,-0.6412,-0.6412,-0.6412,-0.6412,-0.6401,-0.6382,-0.6374,-0.6385,-0.6366,-0.6347,-0.6382,-0.6344,-0.6276,-0.6241,-0.6098,-0.5979,-0.5943,-0.543,-0.5238,-0.4573,-0.3448,-0.2458,-0.1463,0.0,0.1013,0.1324,0.1387,0.1411,0.1406,0.1398,0.14,0.14,0.1394,0.1381,0.1379,0.1373,0.1374,0.1373,0.1363,0.1659,0.2592,0.3476,0.4356,0.5304,0.6464,0.6956,-2.4981,-2.4158,-2.3732,-2.3676,-2.3852,-2.3255,-2.19,-2.0199,-1.9397,-1.8467,-1.7491,-1.7485,-1.7485,-1.7491,-1.7485,-1.7485,-1.7485,-1.7485,-1.7485,-1.7485,-1.7485,-1.7485,-1.7485,-1.7503,-1.7485,-1.7503,-1.7497,-1.7485,-1.7485,-1.7515,-1.7485,-1.7485,-1.7509,-1.7485,-1.7485,-1.7473,-1.7334,-1.7201,-1.7086,-1.6996,-1.6471,-1.6465,-1.6311,-1.6021,-1.5928,-1.5644,-1.5511,-1.5409,-1.5197,-1.4967,-1.4773,-1.3914,-1.2961,-1.2707,-1.201,-1.1184,-1.0473,-1.0035,-0.9266,-0.8499,-0.7562,-0.6989,-0.6564,-0.6412,-0.6412,-0.6412,-0.6412,-0.6412,-0.6412,-0.6412,-0.6412,-0.6412,-0.6412,-0.6412,-0.6412,-0.6412,-0.6412,-0.6412,-0.6409,-0.6387,-0.6382,-0.6352,-0.6331,-0.6328,-0.6208,-0.6079,-0.5482,-0.4915,-0.4287,-0.3383,-0.2248,-0.1328,0.0023,0.0866,0.1203,0.1317,0.141,0.1427,0.1419,0.1422,0.1424,0.1412,0.1401,0.1402,0.1406,0.1406,0.1402,0.1389,0.1911,0.2881,0.3835,0.4782,0.5761,0.676,0.6962,-2.3768,-2.301,-2.2749,-2.3002,-2.3544,-2.3143,-2.1989,-2.0484,-1.9626,-1.8781,-1.7629,-1.7629,-1.7689,-1.7714,-1.7659,-1.7641,-1.7623,-1.7562,-1.7491,-1.7515,-1.7563,-1.7581,-1.7624,-1.7696,-1.7828,-1.7738,-1.7659,-1.763,-1.7781,-1.7683,-1.7659,-1.7653,-1.7623,-1.7611,-1.7485,-1.7473,-1.7388,-1.7304,-1.7213,-1.7231,-1.6706,-1.6634,-1.667,-1.6266,-1.6145,-1.5952,-1.5795,-1.568,-1.5481,-1.511,-1.4628,-1.3783,-1.2915,-1.2118,-1.1372,-1.0724,-1.0246,-0.9937,-0.9109,-0.8283,-0.7369,-0.6867,-0.6667,-0.6514,-0.6437,-0.6412,-0.6412,-0.6412,-0.6412,-0.6412,-0.6412,-0.6412,-0.6412,-0.6412,-0.6412,-0.6412,-0.6412,-0.6412,-0.6412,-0.6406,-0.6401,-0.6396,-0.6387,-0.636,-0.6309,-0.6016,-0.5346,-0.4815,-0.4311,-0.3214,-0.1713,-0.0891,-0.0047,0.0605,0.1082,0.1181,0.1303,0.1459,0.1452,0.1445,0.1442,0.1431,0.1435,0.1447,0.1449,0.1441,0.1439,0.1462,0.2216,0.3176,0.4338,0.5644,0.6126,0.7007,0.7029,-2.2982,-2.301,-2.2869,-2.2869,-2.2672,-2.1395,-2.0722,-2.0234,-1.9099,-1.8309,-1.787,-1.7865,-1.8016,-1.81,-1.798,-1.7907,-1.7859,-1.7689,-1.7581,-1.7648,-1.7828,-1.7883,-1.7974,-1.8076,-1.8131,-1.8173,-1.8064,-1.7986,-1.8197,-1.8004,-1.7913,-1.7835,-1.7768,-1.7695,-1.7497,-1.7485,-1.7473,-1.7443,-1.7278,-1.7243,-1.7165,-1.6905,-1.6815,-1.6634,-1.6392,-1.6157,-1.6018,-1.5879,-1.5692,-1.5433,-1.4691,-1.359,-1.2142,-1.1211,-1.0103,-0.8689,-0.861,-0.8437,-0.8093,-0.7781,-0.7406,-0.6973,-0.6767,-0.6642,-0.6464,-0.6412,-0.6412,-0.6412,-0.6412,-0.6412,-0.6412,-0.6412,-0.6412,-0.6412,-0.6412,-0.6412,-0.6412,-0.6412,-0.6412,-0.6412,-0.6412,-0.6412,-0.6412,-0.6396,-0.6369,-0.5991,-0.5245,-0.4639,-0.4133,0.0,0.0,-0.06,0.0048,0.038,0.0849,0.1044,0.1189,0.1373,0.1482,0.1473,0.1469,0.1464,0.1473,0.149,0.1485,0.1471,0.1507,0.1544,0.2426,0.3409,0.536,0.6592,0.6954,0.7161,0.7215,-2.1345,-2.0615,-2.0608,-2.0615,-2.0608,-2.0709,-2.0236,-1.9394,-1.8716,-1.8223,-1.7949,-1.7901,-1.8058,-1.8173,-1.8215,-1.8143,-1.8125,-1.8112,-1.8016,-1.8022,-1.8143,-1.8137,-1.8203,-1.8294,-1.833,-1.8281,-1.8185,-1.8215,-1.8269,-1.8215,-1.8058,-1.7937,-1.7804,-1.7611,-1.7503,-1.7485,-1.7479,-1.7473,-1.7388,-1.7322,-1.7225,-1.7044,-1.6863,-1.6658,-1.6429,-1.6247,-1.6109,-1.6009,-1.5831,-1.569,-1.4963,-1.3848,-1.2286,-1.1272,-1.022,-0.8819,-0.8423,-0.8366,-0.8238,-0.8064,-0.7762,-0.7287,-0.6895,-0.6717,-0.6464,-0.6412,-0.6412,-0.6412,-0.6412,-0.6412,-0.6412,-0.6412,-0.6412,-0.6412,-0.6412,-0.6412,-0.6412,-0.6412,-0.6412,-0.6412,-0.6412,-0.6412,-0.6412,-0.6412,-0.6374,-0.5738,-0.494,-0.4175,-0.3603,0.0,0.0,0.0,0.0147,0.0364,0.0628,0.0873,0.1063,0.1249,0.1408,0.1494,0.1492,0.1496,0.1499,0.1509,0.1506,0.1502,0.1583,0.1779,0.2543,0.372,0.5287,0.6556,0.6979,0.721,0.7472,-2.0097,-1.943,-1.9395,-1.9336,-1.9323,-1.9817,-1.9446,-1.8625,-1.8412,-1.824,-1.8088,-1.8058,-1.8276,-1.8469,-1.8384,-1.8384,-1.8402,-1.8318,-1.8287,-1.8312,-1.8402,-1.842,-1.8444,-1.8542,-1.8663,-1.8541,-1.8475,-1.85,-1.8601,-1.8512,-1.8385,-1.8179,-1.7835,-1.7726,-1.7641,-1.7599,-1.7485,-1.7479,-1.7436,-1.7394,-1.7304,-1.7183,-1.7074,-1.6843,-1.6601,-1.6374,-1.6181,-1.6024,-1.5885,-1.5784,-1.5179,-1.4195,-1.2704,-1.1521,-1.0482,-0.9102,-0.8498,-0.8454,-0.8393,-0.8369,-0.8016,-0.7538,-0.7153,-0.6845,-0.6564,-0.6464,-0.6412,-0.6412,-0.642,-0.6417,-0.642,-0.642,-0.6412,-0.6412,-0.6412,-0.6412,-0.6412,-0.6412,-0.6412,-0.6412,-0.6412,-0.6412,-0.6412,-0.6412,-0.6401,-0.5525,-0.4624,-0.3877,-0.3049,0.0,0.0,0.0,0.0,0.0272,0.0493,0.0766,0.0959,0.1097,0.1284,0.147,0.1528,0.1558,0.1531,0.153,0.1539,0.1566,0.1681,0.2013,0.2435,0.3236,0.4494,0.5673,0.6693,0.7246,0.7611,-1.9424,-1.9395,-1.9395,-1.9214,-1.8997,-1.9049,-1.8638,-1.8099,-1.8252,-1.8337,-1.8337,-1.8356,-1.8538,-1.8858,-1.8542,-1.8487,-1.8613,-1.8481,-1.8463,-1.845,-1.8619,-1.8668,-1.8802,-1.8917,-1.8935,-1.8941,-1.8886,-1.8814,-1.8994,-1.8766,-1.8633,-1.8542,-1.8137,-1.7974,-1.7859,-1.772,-1.7557,-1.7503,-1.7473,-1.7449,-1.7394,-1.7418,-1.7322,-1.7139,-1.6922,-1.6658,-1.6429,-1.6199,-1.5988,-1.5577,-1.4867,-1.3629,-1.2381,-1.1256,-0.9961,-0.8996,-0.8586,-0.8553,-0.8522,-0.8519,-0.8333,-0.792,-0.7528,-0.7162,-0.6849,-0.6651,-0.658,-0.651,-0.6479,-0.6452,-0.6436,-0.6423,-0.6412,-0.6412,-0.6412,-0.6412,-0.6412,-0.6412,-0.6412,-0.6412,-0.6412,-0.6412,-0.6412,-0.6412,-0.6337,-0.5709,-0.4805,-0.3726,-0.2771,0.0,0.0,0.0,0.0,0.0,0.0377,0.0601,0.0825,0.0966,0.1259,0.1452,0.1537,0.1591,0.1561,0.1563,0.158,0.1606,0.1665,0.1778,0.1991,0.2933,0.3943,0.5204,0.6366,0.7272,0.7702,-1.9395,-1.9395,-1.9395,-1.9336,-1.9243,-1.8997,-1.8793,-1.8656,-1.8641,-1.8755,-1.9004,-1.8742,-1.8728,-1.8791,-1.884,-1.8782,-1.8786,-1.8826,-1.8886,-1.8917,-1.8899,-1.8971,-1.9019,-1.9062,-1.9104,-1.908,-1.9038,-1.9001,-1.9019,-1.8844,-1.8735,-1.8633,-1.8379,-1.824,-1.8094,-1.7925,-1.7714,-1.7527,-1.7485,-1.7485,-1.7485,-1.7485,-1.74,-1.7248,-1.6972,-1.668,-1.6335,-1.6067,-1.5859,-1.5559,-1.4713,-1.3606,-1.2447,-1.1298,-1.0089,-0.8999,-0.8774,-0.8743,-0.8672,-0.8645,-0.8528,-0.8331,-0.8011,-0.7502,-0.7167,-0.6938,-0.6849,-0.6684,-0.6569,-0.6547,-0.6525,-0.6507,-0.6471,-0.6447,-0.6444,-0.6433,-0.6431,-0.6412,-0.6412,-0.6412,-0.6412,-0.6412,-0.6412,-0.6412,-0.6287,-0.5784,-0.4981,-0.3827,-0.2595,-0.1084,0.0,0.0,0.0,0.0,0.0,0.0352,0.0605,0.0856,0.1152,0.1424,0.1552,0.1581,0.1584,0.1587,0.159,0.1592,0.1588,0.1704,0.1817,0.2423,0.341,0.4751,0.5982,0.6994,0.7748,-1.9395,-1.9395,-1.9395,-1.9395,-1.9366,-1.9178,-1.9138,-1.9196,-1.8924,-1.8943,-1.9057,-1.8851,-1.8837,-1.89,-1.8927,-1.8895,-1.8911,-1.8973,-1.9056,-1.9056,-1.9104,-1.9086,-1.9098,-1.9104,-1.9104,-1.9104,-1.9104,-1.908,-1.9056,-1.8989,-1.8849,-1.8862,-1.8614,-1.8408,-1.8233,-1.8016,-1.7756,-1.7599,-1.7485,-1.7485,-1.7485,-1.7485,-1.7364,-1.7111,-1.6825,-1.6222,-1.5771,-1.5478,-1.4834,-1.4614,-1.3702,-1.296,-1.176,-1.0594,-0.986,-0.8916,-0.8882,-0.8845,-0.8787,-0.8777,-0.8713,-0.8608,-0.8458,-0.8132,-0.7651,-0.7355,-0.7066,-0.6836,-0.6746,-0.6661,-0.6634,-0.6604,-0.6547,-0.6496,-0.6479,-0.6463,-0.6442,-0.6417,-0.6412,-0.6412,-0.6412,-0.6412,-0.6412,-0.6412,-0.6262,-0.5809,-0.4931,-0.3676,-0.2494,-0.1185,0.0,0.0,0.0,0.0,0.0,0.0202,0.048,0.0783,0.1059,0.1309,0.1491,0.1591,0.1589,0.159,0.1591,0.1592,0.1592,0.1592,0.1737,0.2346,0.3099,0.4489,0.5797,0.6955,0.76,-1.9348,-1.9395,-1.9395,-1.9395,-1.9395,-1.9401,-1.9512,-1.9694,-1.9075,-1.8845,-1.8864,-1.8833,-1.8894,-1.8891,-1.8845,-1.8877,-1.8937,-1.9035,-1.9104,-1.9104,-1.9104,-1.9104,-1.9104,-1.9104,-1.9104,-1.9104,-1.9104,-1.9104,-1.9104,-1.9056,-1.9038,-1.9086,-1.8843,-1.865,-1.85,-1.8161,-1.7919,-1.7774,-1.7569,-1.7485,-1.7485,-1.7485,-1.742,-1.7014,-1.6162,-1.5214,-1.4688,-1.381,-1.2627,-1.2613,-1.2284,-1.1803,-1.0682,-0.9798,-0.9168,-0.8981,-0.8929,-0.8899,-0.8879,-0.8872,-0.8818,-0.8787,-0.879,-0.8556,-0.8113,-0.7675,-0.7371,-0.7086,-0.697,-0.6852,-0.6796,-0.6741,-0.6684,-0.6649,-0.6627,-0.6608,-0.6558,-0.6517,-0.6474,-0.6463,-0.6428,-0.6425,-0.6412,-0.6412,-0.6412,-0.5934,-0.4778,-0.345,-0.247,-0.1261,0.0,0.0,0.0,0.0,0.0,0.0177,0.0404,0.0707,0.096,0.1212,0.1389,0.1491,0.1592,0.1592,0.1592,0.1592,0.1592,0.1592,0.1667,0.2019,0.2948,0.43,0.5575,0.6803,0.7556,-1.8993,-1.9395,-1.9395,-1.9395,-1.9395,-1.9395,-1.9428,-1.9437,-1.9073,-1.8985,-1.9114,-1.8939,-1.8758,-1.8624,-1.8722,-1.8785,-1.8824,-1.9023,-1.908,-1.9104,-1.9104,-1.9104,-1.9104,-1.9104,-1.9104,-1.9104,-1.9104,-1.9104,-1.9104,-1.9104,-1.9104,-1.9098,-1.8989,-1.8899,-1.8778,-1.8415,-1.8088,-1.7955,-1.7671,-1.7497,-1.7485,-1.7332,-1.715,-1.6455,-1.5502,-1.475,-1.4151,-1.3398,-1.2921,-1.2809,-1.1859,-1.0895,-0.9788,-0.9362,-0.9166,-0.9083,-0.9005,-0.894,-0.8909,-0.8909,-0.8875,-0.8869,-0.8851,-0.8682,-0.8409,-0.802,-0.7686,-0.7417,-0.7198,-0.7048,-0.6923,-0.6861,-0.6806,-0.6779,-0.6755,-0.673,-0.6703,-0.6615,-0.6555,-0.6512,-0.6469,-0.6442,-0.6428,-0.6414,-0.6412,-0.5607,-0.4252,-0.3098,-0.2471,0.0,0.0,0.0,0.0,0.0,0.0,0.0101,0.0303,0.053,0.0783,0.1035,0.1289,0.1465,0.1592,0.1592,0.1592,0.1592,0.1592,0.1592,0.1717,0.1918,0.3022,0.4499,0.545,0.6578,0.7357,-1.8758,-1.9172,-1.9341,-1.9395,-1.9395,-1.9395,-1.9395,-1.9366,-1.9185,-1.9118,-1.909,-1.882,-1.8569,-1.8448,-1.861,-1.8723,-1.8757,-1.8979,-1.9062,-1.9104,-1.9104,-1.9104,-1.9104,-1.9104,-1.9104,-1.9104,-1.9104,-1.9104,-1.9104,-1.9104,-1.9104,-1.9104,-1.9104,-1.905,-1.8929,-1.8511,-1.8239,-1.8101,-1.7726,-1.7556,-1.7491,-1.7361,-1.7273,-1.6496,-1.5335,-1.4429,-1.34,-1.2579,-1.1578,-1.1346,-1.0616,-1.0257,-0.9571,-0.9376,-0.9243,-0.9179,-0.9107,-0.9008,-0.8943,-0.8926,-0.8926,-0.8926,-0.8916,-0.8764,-0.8699,-0.8336,-0.7919,-0.7651,-0.7458,-0.7311,-0.7139,-0.7037,-0.6975,-0.691,-0.688,-0.685,-0.6796,-0.673,-0.67,-0.6661,-0.6599,-0.6525,-0.6498,-0.6433,-0.6353,-0.5987,-0.4504,-0.333,-0.2601,-0.1705,0.0,0.0,0.0,0.0,0.0,0.0,0.0151,0.0379,0.0583,0.0987,0.1342,0.1466,0.1592,0.1592,0.1592,0.1592,0.1592,0.1592,0.1592,0.1717,0.3123,0.4749,0.5579,0.6395,0.7388,-1.8557,-1.8863,-1.9232,-1.9395,-1.9395,-1.9395,-1.9395,-1.9395,-1.933,-1.9178,-1.89,-1.8574,-1.8411,-1.8494,-1.859,-1.8685,-1.8821,-1.9004,-1.908,-1.9104,-1.9104,-1.9104,-1.9104,-1.9104,-1.9104,-1.9104,-1.9104,-1.9104,-1.9104,-1.9104,-1.9104,-1.9104,-1.9062,-1.8969,-1.8753,-1.8481,-1.8287,-1.8046,-1.7762,-1.7587,-1.7532,-1.7455,-1.7244,-1.6437,-1.5154,-1.3784,-1.2709,-1.1425,-0.9914,-0.9724,-0.9806,-0.969,-0.9557,-0.9471,-0.939,-0.9318,-0.9247,-0.9137,-0.9069,-0.9024,-0.899,-0.896,-0.8943,-0.8905,-0.885,-0.8608,-0.822,-0.7962,-0.7765,-0.7512,-0.7337,-0.7155,-0.7095,-0.7057,-0.7024,-0.6999,-0.6934,-0.6866,-0.6825,-0.682,-0.6718,-0.6634,-0.6577,-0.6507,-0.63,-0.5927,-0.5184,-0.407,-0.2971,-0.1902,0.0,0.0,0.0,0.0,0.0,0.0,0.0,0.0231,0.049,0.0971,0.1346,0.1504,0.1604,0.1618,0.1618,0.16,0.1595,0.1592,0.1592,0.1592,0.3272,0.483,0.5429,0.6325,0.7516,-1.8076,-1.8617,-1.9167,-1.9395,-1.9395,-1.9395,-1.9395,-1.9336,-1.9113,-1.8939,-1.8852,-1.8606,-1.8483,-1.8665,-1.8679,-1.8809,-1.9067,-1.9145,-1.9118,-1.9104,-1.9104,-1.9104,-1.9104,-1.9136,-1.9104,-1.9104,-1.9104,-1.9104,-1.9104,-1.9104,-1.9104,-1.9104,-1.9104,-1.9062,-1.9001,-1.8716,-1.837,-1.7978,-1.766,-1.744,-1.7286,-1.7103,-1.6773,-1.5811,-1.453,-1.325,-1.1976,-1.0578,-0.9993,-0.9768,-0.9707,-0.9707,-0.9666,-0.9605,-0.953,-0.9452,-0.9381,-0.9339,-0.9249,-0.9225,-0.9195,-0.9117,-0.91,-0.9055,-0.8972,-0.8884,-0.8538,-0.8294,-0.8069,-0.7684,-0.7485,-0.7263,-0.7138,-0.7138,-0.7119,-0.7119,-0.7087,-0.7021,-0.6977,-0.6912,-0.6853,-0.6796,-0.676,-0.6714,-0.6669,-0.6238,-0.5605,-0.4505,-0.3301,-0.2162,-0.1028,0.0,0.0,0.0,0.0,0.0,0.0,0.0,0.0368,0.086,0.1269,0.1525,0.1623,0.1642,0.1641,0.1646,0.1638,0.1601,0.1594,0.1846,0.3525,0.4889,0.5424,0.6361,0.7671]},{"header":{"parameterUnit":"m.s-1","parameterCategory":1,"la1":31.0,"la2":29.5877,"lo1":-88.7671,"lo2":-86.6584,"dy":0.0162,"dx":0.0185,"nx":115,"ny":88,"refTime":"2023-10-25T00:00:00:Z","depth":0,"parameterNumber":3,"parameterNumberName":"V-component_of_WINDS"},"data":[0.0,0.0,0.0,0.0,0.0,0.0,0.0,0.0,0.0,0.0,0.0,0.0,0.0,0.0,0.0,0.0,0.0,0.0,0.0,0.0,0.0,0.0,0.0,0.0,0.0,0.0,0.0,0.0,0.0,0.0,0.0,0.0,0.0,0.0,0.0,0.0,0.0,0.0,0.0,0.0,0.0,0.0,0.0,0.0,0.0,0.0,0.0,0.0,0.0,0.0,0.0,0.0,0.0,0.0,0.0,0.0,0.0,0.0,0.0,0.0,0.0,0.0,0.0,0.0,0.0,0.0,0.0,0.0,0.0,0.0,0.0,0.0,0.0,0.0,0.0,0.0,0.0,0.0,0.0,0.0,0.0,0.0,0.0,0.0,0.0,0.0,0.0,0.0,0.0,0.0,0.0,0.0,0.0,0.0,0.0,0.0,0.0,0.0,0.0,0.0,0.0,0.0,0.0,0.0,0.0,0.0,0.0,0.0,0.0,0.0,0.0,0.0,0.0,0.0,0.0,0.0,0.0,0.0,0.0,0.0,0.0,0.0,0.0,0.0,0.0,0.0,0.0,0.0,0.0,0.0,0.0,0.0,0.0,0.0,0.0,0.0,0.0,0.0,0.0,0.0,0.0,0.0,0.0,0.0,0.0,0.0,0.0,0.0,0.0,0.0,0.0,0.0,0.0,0.0,0.0,0.0,0.0,0.0,0.0,0.0,0.0,0.0,0.0,0.0,0.0,0.0,0.0,0.0,0.0,0.0,0.0,0.0,0.0,0.0,0.0,0.0,0.0,0.0,0.0,0.0,0.0,0.0,0.0,0.0,0.0,0.0,0.0,0.0,0.0,0.0,0.0,0.0,0.0,0.0,0.0,0.0,0.0,0.0,0.0,0.0,0.0,0.0,0.0,0.0,0.0,0.0,0.0,0.0,0.0,0.0,0.0,0.0,0.0,0.0,0.0,0.0,0.0,0.0,0.0,0.0,0.0,0.0,0.0,0.0,0.0,0.0,0.0,0.0,0.0,0.0,0.0,0.0,0.0,0.0,0.0,0.0,0.0,0.0,0.0,0.0,0.0,0.0,0.0,0.0,0.0,0.0,0.0,0.0,0.0,0.0,0.0,0.0,0.0,0.0,0.0,0.0,0.0,0.0,0.0,0.0,0.0,0.0,0.0,0.0,0.0,0.0,0.0,0.0,0.0,0.0,0.0,0.0,0.0,0.0,0.0,0.0,0.0,0.0,0.0,0.0,0.0,0.0,0.0,0.0,0.0,0.0,0.0,0.0,0.0,0.0,0.0,0.0,0.0,0.0,0.0,0.0,0.0,0.0,0.0,0.0,0.0,0.0,0.0,0.0,0.0,0.0,0.0,0.0,0.0,0.0,0.0,0.0,0.0,0.0,0.0,0.0,0.0,0.0,0.0,0.0,0.0,0.0,0.0,0.0,0.0,0.0,0.0,0.0,0.0,0.0,0.0,0.0,0.0,0.0,0.0,0.0,0.0,0.0,0.0,0.0,0.0,0.0,0.0,0.0,0.0,0.0,0.0,0.0,0.0,0.0,0.0,0.0,0.0,0.0,0.0,0.0,0.0,0.0,0.0,0.0,0.0,0.0,0.0,0.0,0.0,0.0,0.0,0.0,0.0,0.0,0.0,0.0,0.0,0.0,0.0,0.0,0.0,0.0,0.0,0.0,0.0,0.0,0.0,0.0,0.0,0.0,0.0,0.0,0.0,0.0,0.0,0.0,0.0,0.0,0.0,0.0,0.0,0.0,0.0,0.0,0.0,0.0,0.0,0.0,0.0,0.0,0.0,0.0,0.0,0.0,0.0,0.0,0.0,0.0,0.0,0.0,0.0,0.0,0.0,0.0,0.0,0.0,0.0,0.0,0.0,0.0,0.0,0.0,0.0,0.0,0.0,0.0,0.0,0.0,0.0,0.0,0.0,0.0,0.0,0.0,0.0,0.0,0.0,0.0,0.0,0.0,0.0,0.0,0.0,0.0,0.0,0.0,0.0,0.0,0.0,0.0,0.0,0.0,0.0,0.0,0.0,0.0,0.0,0.0,0.0,0.0,0.0,0.0,0.0,0.0,0.0,0.0,0.0,0.0,0.0,0.0,0.0,0.0,0.0,0.0,0.0,0.0,0.0,0.0,0.0,0.0,0.0,0.0,0.0,0.0,0.0,0.0,0.0,0.0,0.0,0.0,0.0,0.0,0.0,0.0,0.0,0.0,0.0,0.0,0.0,0.0,0.0,0.0,0.0,0.0,0.0,0.0,0.0,0.0,0.0,0.0,0.0,0.0,0.0,0.0,0.0,0.0,0.0,0.0,0.0,0.0,0.0,0.0,0.0,0.0,0.0,0.0,0.0,0.0,0.0,0.0,0.0,0.0,0.0,0.0,0.0,0.0,0.0,0.0,0.0,0.0,0.0,0.0,0.0,0.0,0.0,0.0,0.0,0.0,0.0,0.0,0.0,0.0,0.0,0.0,0.0,0.0,0.0,0.0,0.0,0.0,0.0,0.0,0.0,0.0,0.0,0.0,0.0,0.0,0.0,0.0,0.0,0.0,0.0,0.0,0.0,0.0,0.0,0.0,0.0,0.0,0.0,0.0,0.0,0.0,0.0,0.0,0.0,0.0,0.0,0.0,0.0,0.0,0.0,0.0,0.0,0.0,0.0,0.0,0.0,0.0,0.0,0.0,0.0,0.0,0.0,0.0,0.0,0.0,0.0,0.0,0.0,0.0,0.0,0.0,0.0,0.0,0.0,0.0,0.0,0.0,0.0,0.0,0.0,0.0,0.0,0.0,0.0,0.0,0.0,0.0,0.0,0.0,0.0,0.0,0.0,0.0,0.0,0.0,0.0,0.0,0.0,0.0,0.0,0.0,0.0,0.0,0.0,0.0,0.0,0.0,0.0,0.0,0.0,0.0,0.0,0.0,0.0,0.0,0.0,0.0,0.0,0.0,0.0,0.0,0.0,0.0,0.0,0.0,0.0,0.0,0.0,0.0,0.0,0.0,0.0,0.0,0.0,0.0,0.0,0.0,0.0,0.0,0.0,0.0,0.0,0.0,0.0,0.0,0.0,0.0,0.0,0.0,0.0,0.0,0.0,0.0,0.0,0.0,0.0,0.0,0.0,0.0,0.0,0.0,0.0,0.0,0.0,0.0,0.0,0.0,0.0,0.0,0.0,0.0,0.0,0.0,0.0,0.0,0.0,0.0,0.0,0.0,0.0,0.0,0.0,0.0,0.0,0.0,0.0,0.0,0.0,0.0,0.0,0.0,0.0,0.0,0.0,0.0,0.0,0.0,0.0,0.0,0.0,0.0,0.0,0.0,0.0,0.0,0.0,0.0,0.0,0.0,0.0,0.0,0.0,0.0,0.0,0.0,0.0,0.0,0.0,0.0,0.0,0.0,0.0,0.0,0.0,0.0,0.0,0.0,0.0,0.0,0.0,0.0,0.0,0.0,0.0,0.0,0.0,0.0,0.0,0.0,0.0,0.0,0.0,0.0,0.0,0.0,0.0,0.0,0.0,0.0,0.0,0.0,0.0,0.0,0.0,0.0,0.0,0.0,0.0,0.0,0.0,0.0,0.0,0.0,0.0,0.0,0.0,0.0,0.0,0.0,0.0,0.0,0.0,0.0,0.0,0.0,0.0,0.0,0.0,0.0,0.0,0.0,0.0,0.0,0.0,0.0,0.0,0.0,0.0,0.0,0.0,0.0,0.0,0.0,0.0,0.0,0.0,0.0,0.0,0.0,0.0,0.0,0.0,0.0,0.0,0.0,0.0,0.0,0.0,0.0,0.0,0.0,0.0,0.0,0.0,0.0,0.0,0.0,0.0,0.0,0.0,0.0,0.0,0.0,0.0,0.0,0.0,0.0,0.0,0.0,0.0,0.0,0.0,0.0,0.0,0.0,0.0,0.0,0.0,0.0,0.0,0.0,0.0,0.0,0.0,0.0,0.0,0.0,0.0,0.0,0.0,0.0,0.0,0.0,0.0,0.0,0.0,0.0,0.0,0.0,0.0,0.0,0.0,0.0,0.0,0.0,0.0,0.0,0.0,0.0,0.0,0.0,0.0,0.0,0.0,0.0,0.0,0.0,0.0,0.0,0.0,0.0,0.0,0.0,0.0,0.0,0.0,0.0,0.0,0.0,0.0,0.0,0.0,0.0,0.0,0.0,0.0,0.0,0.0,0.0,0.0,0.0,0.0,0.0,0.0,0.0,0.0,0.0,0.0,0.0,0.0,0.0,0.0,0.0,0.0,0.0,0.0,0.0,1.5176,0.0,0.0,0.0,0.0,0.0,0.0,0.0,0.0,0.0,0.0,0.0,0.0,0.0,0.0,0.0,0.0,0.0,0.0,0.0,0.0,0.0,0.0,0.0,0.0,0.0,0.0,0.0,0.0,0.0,0.0,0.0,0.0,0.0,0.0,0.0,0.0,0.0,0.0,0.0,0.0,0.0,0.0,0.0,0.0,0.0,0.0,0.0,0.0,0.0,0.0,0.0,0.0,0.0,0.0,0.0,0.0,0.0,0.0,0.0,0.0,0.0,0.0,0.0,0.0,0.0,0.0,0.0,0.0,0.0,0.0,0.0,0.0,0.0,0.0,0.0,0.0,0.0,0.0,0.0,0.0,0.0,0.0,0.0,0.0,0.0,0.0,0.0,0.0,0.0,0.0,0.0,0.0,0.0,0.0,0.0,0.0,0.0,0.0,0.0,0.0,0.0,0.0,0.0,0.0,0.0,0.0,0.0,0.0,0.0,0.0,1.4845,1.4896,1.5058,1.5164,1.5228,0.0,0.0,0.0,0.0,0.0,0.0,0.0,0.0,0.0,0.0,0.0,0.0,0.0,0.0,0.0,0.0,0.0,0.0,0.0,0.0,0.0,0.0,0.0,0.0,0.0,0.0,0.0,0.0,0.0,0.0,0.0,0.0,0.0,0.0,0.0,0.0,0.0,0.0,0.0,0.0,0.0,0.0,0.0,0.0,0.0,0.0,0.0,0.0,0.0,0.0,0.0,0.0,0.0,0.0,0.0,0.0,0.0,0.0,0.0,0.0,0.0,0.0,0.0,0.0,0.0,0.0,0.0,0.0,0.0,0.0,0.0,0.0,0.0,0.0,0.0,0.0,0.0,0.0,0.0,0.0,0.0,0.0,0.0,0.0,0.0,0.0,0.0,0.0,0.0,0.0,0.0,0.0,0.0,0.0,0.0,0.0,0.0,0.0,0.0,0.0,0.0,0.0,0.0,0.0,0.0,0.0,0.0,0.0,0.0,0.0,0.0,0.0,1.539,1.5661,1.6104,0.0,0.0,0.0,0.0,0.0,0.0,0.0,0.0,0.0,0.0,0.0,0.0,0.0,0.0,0.0,0.0,0.0,0.0,0.0,0.0,0.0,0.0,0.0,0.0,0.0,0.0,0.0,0.0,0.0,0.0,0.0,0.0,0.0,0.0,0.0,0.0,0.0,0.0,0.0,0.0,0.0,0.0,0.0,0.0,0.0,0.0,0.0,0.0,0.0,0.0,0.0,0.0,0.0,0.0,0.0,0.0,0.0,0.0,0.0,0.0,0.0,0.0,0.0,0.0,0.0,0.0,0.0,0.0,0.0,0.0,0.0,0.0,0.0,0.0,0.0,0.0,0.0,0.0,0.0,0.0,0.0,0.0,0.0,0.0,0.0,0.0,0.0,0.0,0.0,0.0,0.0,0.0,0.0,0.0,0.0,0.0,0.0,0.0,0.0,0.0,0.0,0.0,0.0,0.0,0.0,0.0,0.0,0.0,0.0,0.0,1.5461,1.6234,1.6285,0.0,1.8612,0.0,0.0,0.0,0.0,0.0,0.0,0.0,0.0,0.0,0.0,0.0,0.0,0.0,0.0,0.0,0.0,0.0,0.0,0.0,0.0,0.0,0.0,0.0,0.0,0.0,0.0,0.0,0.0,0.0,0.0,0.0,0.0,0.0,0.0,0.0,0.0,0.0,0.0,0.0,0.0,0.0,0.0,0.0,0.0,0.0,0.0,0.0,0.0,0.0,0.0,0.0,0.0,0.0,0.0,0.0,0.0,0.0,0.0,0.0,0.0,0.0,0.0,0.0,0.0,0.0,0.0,0.0,0.0,0.0,0.0,0.0,0.0,0.0,0.0,0.0,0.0,0.0,0.0,0.0,0.0,0.0,0.0,0.0,0.0,0.0,0.0,0.0,0.0,0.0,0.0,0.0,0.0,0.0,0.0,0.0,0.0,0.0,0.0,0.0,0.0,0.0,0.0,0.0,0.0,0.0,0.0,0.0,0.0,0.0,0.0,1.5552,1.6367,1.6464,1.7095,0.0,0.0,0.0,0.0,0.0,0.0,0.0,0.0,0.0,0.0,0.0,0.0,0.0,0.0,0.0,0.0,0.0,0.0,0.0,0.0,0.0,0.0,0.0,0.0,0.0,0.0,0.0,0.0,0.0,0.0,0.0,0.0,0.0,0.0,0.0,0.0,0.0,0.0,0.0,0.0,0.0,0.0,0.0,0.0,0.0,0.0,0.0,0.0,0.0,0.0,0.0,0.0,0.0,0.0,0.0,0.0,0.0,0.0,0.0,0.0,0.0,0.0,0.0,0.0,0.0,0.0,0.0,0.0,0.0,0.0,0.0,0.0,0.0,0.0,0.0,0.0,0.0,0.0,0.0,0.0,0.0,0.0,0.0,0.0,0.0,0.0,0.0,0.0,0.0,0.0,0.0,0.0,0.0,0.0,0.0,0.0,0.0,0.0,0.0,0.0,0.0,0.0,0.0,0.0,0.0,0.0,0.0,0.0,0.0,0.0,1.5305,1.5624,1.6399,1.6771,1.7196,1.7774,0.0,0.0,0.0,0.0,0.0,0.0,0.0,0.0,0.0,0.0,0.0,0.0,0.0,0.0,0.0,0.0,0.0,0.0,0.0,0.0,0.0,0.0,0.0,0.0,0.0,0.0,0.0,0.0,0.0,0.0,0.0,0.0,0.0,0.0,0.0,0.0,0.0,0.0,0.0,0.0,0.0,0.0,0.0,0.0,0.0,0.0,0.0,0.0,0.0,0.0,0.0,0.0,0.0,0.0,0.0,0.0,0.0,0.0,0.0,0.0,0.0,0.0,0.0,0.0,0.0,0.0,0.0,0.0,0.0,0.0,0.0,0.0,0.0,0.0,0.0,0.0,0.0,0.0,0.0,0.0,0.0,0.0,0.0,0.0,0.0,0.0,0.0,0.0,0.0,0.0,0.0,0.0,0.0,0.0,0.0,0.0,0.0,0.0,0.0,0.0,0.0,0.0,0.0,0.0,0.0,0.0,0.0,0.0,1.6266,1.5655,1.5727,1.6574,1.733,1.7754,0.0,0.0,0.0,0.0,0.0,0.0,0.0,0.0,0.0,0.0,0.0,0.0,0.0,0.0,0.0,0.0,0.0,0.0,0.0,0.0,0.0,0.0,0.0,0.0,0.0,0.0,0.0,0.0,0.0,0.0,0.0,0.0,0.0,0.0,0.0,0.0,0.0,0.0,0.0,0.0,0.0,0.0,0.0,0.0,0.0,0.0,0.0,0.0,0.0,0.0,0.0,0.0,0.0,0.0,0.0,0.0,0.0,0.0,0.0,0.0,0.0,0.0,0.0,0.0,0.0,0.0,0.0,0.0,0.0,0.0,0.0,0.0,0.0,0.0,0.0,0.0,0.0,0.0,0.0,0.0,0.0,0.0,0.0,0.0,0.0,0.0,0.0,0.0,0.0,0.0,0.0,0.0,0.0,0.0,0.0,0.0,0.0,0.0,0.0,0.0,0.0,0.0,0.0,0.0,0.0,0.0,0.0,0.0,0.0,1.5618,1.597,1.6291,1.6582,1.6871,1.7274,0.0,0.0,0.0,0.0,0.0,0.0,0.0,0.0,0.0,0.0,0.0,0.0,0.0,0.0,0.0,0.0,0.0,0.0,0.0,0.0,0.0,0.0,0.0,0.0,0.0,0.0,0.0,0.0,0.0,0.0,0.0,0.0,0.0,0.0,0.0,0.0,0.0,0.0,0.0,0.0,0.0,0.0,0.0,0.0,0.0,0.0,0.0,0.0,0.0,0.0,0.0,0.0,0.0,0.0,0.0,0.0,0.0,0.0,0.0,0.0,0.0,0.0,0.0,0.0,0.0,0.0,0.0,0.0,0.0,0.0,0.0,0.0,0.0,0.0,0.0,0.0,0.0,0.0,0.0,0.0,0.0,0.0,0.0,0.0,0.0,0.0,0.0,0.0,0.0,0.0,0.0,0.0,0.0,0.0,0.0,0.0,0.0,0.0,0.0,0.0,0.0,0.0,0.0,0.0,0.0,0.0,0.0,0.0,0.0,1.5212,0.0,1.6174,1.6174,1.6463,1.6715,0.0,0.0,0.0,0.0,0.0,0.0,0.0,0.0,0.0,0.0,0.0,0.0,0.0,0.0,0.0,0.0,0.0,0.0,0.0,0.0,0.0,0.0,0.0,0.0,0.0,0.0,0.0,0.0,0.0,0.0,0.0,0.0,0.0,0.0,0.0,0.0,0.0,0.0,0.0,0.0,0.0,0.0,0.0,0.0,0.0,0.0,0.0,0.0,0.0,0.0,0.0,0.0,0.0,0.0,0.0,0.0,0.0,0.0,0.0,0.0,0.0,0.0,0.0,0.0,0.0,0.0,0.0,0.0,0.0,0.0,0.0,0.0,0.0,0.0,0.0,0.0,0.0,0.0,0.0,0.0,0.0,0.0,0.0,0.0,0.0,0.0,0.0,0.0,0.0,0.0,0.0,0.0,0.0,0.0,0.0,0.0,0.0,0.0,0.0,0.0,0.0,0.0,0.0,0.0,0.0,0.0,0.0,0.0,1.5005,1.5191,1.5276,1.5404,1.5364,1.6155,1.6212,0.0,0.0,0.0,0.0,0.0,0.0,0.0,0.0,0.0,0.0,0.0,0.0,0.0,0.0,0.0,0.0,0.0,0.0,0.0,0.0,0.0,0.0,0.0,0.0,0.0,0.0,0.0,0.0,0.0,0.0,0.0,0.0,0.0,0.0,0.0,0.0,0.0,0.0,0.0,0.0,0.0,0.0,0.0,0.0,0.0,0.0,0.0,0.0,0.0,0.0,0.0,0.0,0.0,0.0,0.0,0.0,0.0,0.0,0.0,0.0,0.0,0.0,0.0,0.0,0.0,0.0,0.0,0.0,0.0,0.0,0.0,0.0,0.0,0.0,0.0,0.0,0.0,0.0,0.0,0.0,0.0,0.0,0.0,0.0,0.0,0.0,0.0,0.0,0.0,0.0,0.0,0.0,0.0,0.0,0.0,0.0,0.0,0.0,0.0,0.0,0.0,0.0,0.0,0.0,0.0,0.0,0.0,0.0,0.0,1.5277,1.5298,1.5846,1.6926,1.6174,1.6405,0.0,0.0,0.0,0.0,0.0,0.0,0.0,0.0,0.0,0.0,0.0,0.0,0.0,0.0,0.0,0.0,0.0,0.0,0.0,0.0,0.0,0.0,0.0,0.0,0.0,0.0,0.0,0.0,0.0,0.0,0.0,0.0,0.0,0.0,0.0,0.0,0.0,0.0,0.0,0.0,0.0,0.0,0.0,0.0,0.0,0.0,0.0,0.0,0.0,0.0,0.0,0.0,0.0,0.0,0.0,0.0,0.0,0.0,0.0,0.0,0.0,0.0,0.0,0.0,0.0,0.0,0.0,0.0,0.0,0.0,0.0,0.0,0.0,0.0,0.0,0.0,0.0,0.0,0.0,0.0,0.0,0.0,0.0,0.0,0.0,0.0,0.0,0.0,0.0,0.0,0.0,0.0,0.0,0.0,0.0,0.0,0.0,0.0,0.0,0.0,0.0,0.0,0.0,0.0,0.0,0.0,0.0,0.0,0.0,1.5805,1.5788,1.6271,1.7314,1.633,1.6514,1.8078,0.0,0.0,0.0,0.0,0.0,0.0,0.0,0.0,0.0,0.0,0.0,0.0,0.0,0.0,0.0,0.0,0.0,0.0,0.0,0.0,0.0,0.0,0.0,0.0,0.0,0.0,0.0,0.0,0.0,0.0,0.0,0.0,0.0,0.0,0.0,0.0,0.0,0.0,0.0,0.0,0.0,0.0,0.0,0.0,0.0,0.0,0.0,0.0,0.0,0.0,0.0,0.0,0.0,0.0,0.0,0.0,0.0,0.0,0.0,0.0,0.0,0.0,0.0,0.0,0.0,0.0,0.0,0.0,0.0,0.0,0.0,0.0,0.0,0.0,0.0,0.0,0.0,0.0,0.0,0.0,0.0,0.0,0.0,0.0,0.0,0.0,0.0,0.0,0.0,0.0,0.0,0.0,0.0,0.0,0.0,0.0,0.0,0.0,0.0,0.0,0.0,0.0,0.0,0.0,0.0,0.0,0.0,0.0,1.6752,1.6792,1.6773,1.6695,1.6618,1.6648,0.0,0.0,0.0,0.0,0.0,0.0,0.0,0.0,0.0,0.0,0.0,0.0,0.0,0.0,0.0,0.0,0.0,0.0,0.0,0.0,0.0,0.0,0.0,0.0,0.0,0.0,0.0,0.0,0.0,0.0,0.0,0.0,0.0,0.0,0.0,0.0,0.0,0.0,0.0,0.0,0.0,0.0,0.0,0.0,0.0,0.0,0.0,0.0,0.0,0.0,0.0,0.0,0.0,0.0,0.0,0.0,0.0,0.0,0.0,0.0,0.0,0.0,0.0,0.0,0.0,0.0,0.0,0.0,0.0,0.0,0.0,0.0,0.0,0.0,0.0,0.0,0.0,0.0,0.0,0.0,0.0,0.0,0.0,0.0,0.0,0.0,0.0,0.0,0.0,0.0,0.0,0.0,0.0,0.0,0.0,0.0,0.0,0.0,0.0,0.0,0.0,0.0,0.0,0.0,0.0,0.0,0.0,0.0,0.0,1.8403,1.9066,1.878,1.7545,1.6908,1.7226,0.0,0.0,0.0,0.0,0.0,0.0,0.0,0.0,0.0,0.0,0.0,0.0,0.0,0.0,0.0,0.0,0.0,0.0,0.0,0.0,0.0,0.0,0.0,0.0,0.0,0.0,0.0,0.0,0.0,0.0,0.0,0.0,0.0,0.0,0.0,0.0,0.0,0.0,0.0,0.0,0.0,0.0,0.0,0.0,0.0,0.0,0.0,0.0,0.0,0.0,0.0,0.0,0.0,0.0,0.0,0.0,0.0,0.0,0.0,0.0,0.0,0.0,0.0,0.0,0.0,0.0,0.0,0.0,0.0,0.0,0.0,0.0,0.0,0.0,0.0,0.0,0.0,0.0,0.0,0.0,0.0,0.0,0.0,0.0,0.0,0.0,0.0,0.0,0.0,0.0,0.0,0.0,0.0,0.0,0.0,0.0,0.0,0.0,0.0,0.0,0.0,0.0,0.0,0.0,0.0,0.0,0.0,0.0,1.8295,1.9621,2.0498,2.027,1.8935,1.845,1.8512,0.0,0.0,0.0,0.0,0.0,0.0,0.0,0.0,0.0,0.0,0.0,0.0,0.0,0.0,0.0,0.0,0.0,0.0,0.0,0.0,0.0,0.0,0.0,0.0,0.0,0.0,0.0,0.0,0.0,0.0,0.0,0.0,0.0,0.0,0.0,0.0,0.0,0.0,0.0,0.0,0.0,0.0,0.0,0.0,0.0,0.0,0.0,0.0,0.0,0.0,0.0,0.0,0.0,0.0,0.0,0.0,0.0,0.0,0.0,0.0,0.0,0.0,0.0,0.0,0.0,0.0,0.0,0.0,0.0,0.0,0.0,0.0,0.0,0.0,0.0,0.0,0.0,0.0,0.0,0.0,0.0,0.0,0.0,0.0,0.0,0.0,0.0,0.0,0.0,0.0,0.0,0.0,0.0,0.0,0.0,0.0,0.0,0.0,0.0,0.0,0.0,0.0,0.0,0.0,0.0,0.0,0.0,0.0,1.9566,2.0515,2.1298,2.1395,2.0824,2.0555,2.0013,0.0,0.0,0.0,0.0,0.0,0.0,0.0,0.0,0.0,0.0,0.0,0.0,0.0,0.0,0.0,0.0,0.0,0.0,0.0,0.0,0.0,0.0,0.0,0.0,0.0,0.0,0.0,0.0,0.0,0.0,0.0,0.0,0.0,0.0,0.0,0.0,0.0,0.0,0.0,0.0,0.0,0.0,0.0,0.0,0.0,0.0,0.0,0.0,0.0,0.0,0.0,0.0,0.0,0.0,0.0,0.0,0.0,0.0,0.0,0.0,0.0,0.0,0.0,0.0,0.0,0.0,0.0,0.0,0.0,0.0,0.0,0.0,0.0,0.0,0.0,0.0,0.0,0.0,0.0,0.0,0.0,0.0,0.0,0.0,0.0,0.0,0.0,0.0,0.0,0.0,0.0,0.0,0.0,0.0,0.0,0.0,0.0,0.0,0.0,0.0,0.0,0.0,0.0,0.0,0.0,0.0,0.0,0.0,1.9821,2.1296,2.1585,2.2239,2.336,2.1438,2.0014,0.0,0.0,0.0,0.0,0.0,0.0,0.0,0.0,0.0,0.0,0.0,0.0,0.0,0.0,0.0,0.0,0.0,0.0,0.0,0.0,0.0,0.0,0.0,0.0,0.0,0.0,0.0,0.0,0.0,0.0,0.0,0.0,0.0,0.0,0.0,0.0,0.0,0.0,0.0,0.0,0.0,0.0,0.0,0.0,0.0,0.0,0.0,0.0,1.5835,0.0,0.0,0.0,0.0,0.0,0.0,0.0,0.0,0.0,0.0,0.0,0.0,0.0,0.0,0.0,0.0,0.0,0.0,0.0,0.0,0.0,0.0,0.0,0.0,0.0,0.0,0.0,0.0,0.0,0.0,0.0,0.0,0.0,0.0,0.0,0.0,0.0,0.0,0.0,0.0,0.0,0.0,0.0,0.0,0.0,0.0,0.0,0.0,0.0,0.0,0.0,0.0,0.0,0.0,0.0,0.0,0.0,0.0,0.0,1.9888,2.1542,2.1631,2.2081,2.2926,2.1697,2.0808,0.0,0.0,0.0,0.0,0.0,0.0,0.0,0.0,0.0,0.0,0.0,0.0,0.0,0.0,0.0,0.0,0.0,0.0,0.0,0.0,0.0,0.0,0.0,0.0,0.0,0.0,0.0,0.0,0.0,0.0,0.0,0.0,0.0,0.0,0.0,0.0,0.0,0.0,0.0,0.0,0.0,0.0,0.0,0.0,0.0,0.0,0.0,0.0,0.0,0.0,0.0,0.0,0.0,0.0,0.0,0.0,0.0,0.0,0.0,0.0,0.0,0.0,0.0,0.0,0.0,0.0,0.0,0.0,0.0,0.0,0.0,0.0,0.0,0.0,0.0,0.0,0.0,0.0,0.0,0.0,0.0,0.0,0.0,0.0,0.0,0.0,0.0,0.0,0.0,0.0,0.0,0.0,0.0,0.0,0.0,0.0,0.0,0.0,0.0,0.0,0.0,0.0,0.0,0.0,0.0,0.0,0.0,1.8852,1.9995,2.1522,2.1466,2.1549,2.1855,2.1627,2.1542,2.168,0.0,0.0,0.0,0.0,0.0,0.0,0.0,0.0,0.0,0.0,0.0,0.0,0.0,0.0,0.0,0.0,0.0,0.0,0.0,0.0,0.0,0.0,0.0,0.0,0.0,0.0,0.0,0.0,0.0,0.0,0.0,0.0,0.0,0.0,0.0,0.0,0.0,0.0,1.5686,1.6935,0.0,0.0,0.0,0.0,0.0,0.0,0.0,0.0,1.7693,0.0,0.0,0.0,0.0,0.0,0.0,0.0,0.0,0.0,0.0,0.0,0.0,0.0,0.0,0.0,0.0,0.0,0.0,0.0,0.0,0.0,0.0,0.0,0.0,0.0,0.0,0.0,0.0,0.0,0.0,0.0,0.0,0.0,0.0,0.0,0.0,0.0,0.0,0.0,0.0,0.0,0.0,0.0,0.0,0.0,0.0,0.0,0.0,0.0,0.0,0.0,0.0,0.0,0.0,0.0,0.0,1.9875,2.0026,2.0576,2.1559,2.0885,2.1217,2.2571,2.1278,2.0891,2.1621,0.0,0.0,0.0,0.0,0.0,0.0,0.0,0.0,0.0,0.0,0.0,0.0,0.0,0.0,0.0,0.0,0.0,0.0,0.0,0.0,0.0,0.0,0.0,0.0,0.0,0.0,0.0,0.0,0.0,0.0,0.0,0.0,0.0,0.0,0.0,0.0,0.0,0.0,0.0,1.7721,1.8224,0.0,0.0,0.0,0.0,0.0,0.0,0.0,0.0,1.7325,0.0,0.0,0.0,0.0,0.0,0.0,0.0,0.0,0.0,0.0,0.0,0.0,0.0,0.0,0.0,0.0,0.0,0.0,0.0,0.0,0.0,0.0,0.0,0.0,0.0,0.0,0.0,0.0,0.0,0.0,0.0,0.0,0.0,0.0,0.0,0.0,0.0,0.0,0.0,0.0,0.0,0.0,0.0,0.0,0.0,0.0,0.0,0.0,0.0,0.0,0.0,0.0,0.0,0.0,0.0,1.9678,2.0062,2.0507,2.0894,2.0561,2.0759,2.1541,2.0819,2.0622,0.0,0.0,0.0,0.0,0.0,0.0,0.0,0.0,0.0,0.0,0.0,0.0,0.0,0.0,0.0,0.0,0.0,0.0,0.0,0.0,0.0,0.0,0.0,0.0,0.0,0.0,0.0,0.0,0.0,0.0,0.0,0.0,0.0,0.0,0.0,0.0,0.0,0.0,0.0,0.0,1.79,1.8206,1.9083,0.0,0.0,0.0,0.0,0.0,0.0,1.7835,1.7781,0.0,0.0,0.0,0.0,0.0,0.0,0.0,0.0,0.0,0.0,0.0,0.0,0.0,0.0,0.0,0.0,0.0,0.0,0.0,0.0,0.0,0.0,0.0,0.0,0.0,0.0,0.0,0.0,0.0,0.0,0.0,0.0,0.0,0.0,0.0,0.0,0.0,0.0,0.0,0.0,0.0,0.0,0.0,0.0,0.0,0.0,0.0,0.0,0.0,0.0,0.0,0.0,0.0,0.0,0.0,1.931,1.9928,2.0287,2.0286,2.0361,2.0377,2.0378,2.045,2.048,0.0,0.0,0.0,0.0,0.0,0.0,0.0,0.0,0.0,0.0,0.0,0.0,0.0,0.0,0.0,0.0,0.0,0.0,0.0,0.0,0.0,0.0,0.0,0.0,0.0,0.0,0.0,0.0,0.0,0.0,0.0,0.0,0.0,0.0,0.0,0.0,0.0,0.0,0.0,0.0,0.0,1.841,1.9192,1.9152,0.0,0.0,0.0,0.0,1.8847,1.8861,0.0,0.0,0.0,0.0,0.0,0.0,0.0,0.0,0.0,0.0,0.0,0.0,0.0,0.0,0.0,0.0,0.0,0.0,0.0,0.0,0.0,0.0,0.0,0.0,0.0,0.0,0.0,0.0,0.0,0.0,0.0,0.0,0.0,0.0,0.0,0.0,0.0,0.0,0.0,0.0,0.0,0.0,0.0,0.0,0.0,0.0,0.0,0.0,0.0,0.0,0.0,0.0,0.0,0.0,0.0,0.0,2.0161,2.0251,2.03,2.0304,2.0293,2.0308,2.0308,2.0374,2.0417,0.0,0.0,0.0,0.0,0.0,0.0,0.0,0.0,0.0,0.0,0.0,0.0,0.0,0.0,0.0,0.0,0.0,0.0,0.0,0.0,0.0,0.0,0.0,0.0,0.0,0.0,0.0,0.0,0.0,0.0,0.0,0.0,0.0,0.0,0.0,0.0,0.0,0.0,0.0,0.0,0.0,1.9162,1.9065,1.9133,1.9168,0.0,0.0,1.9652,1.907,2.0408,0.0,0.0,0.0,0.0,0.0,0.0,0.0,0.0,0.0,0.0,0.0,0.0,0.0,0.0,0.0,0.0,0.0,0.0,0.0,0.0,0.0,0.0,0.0,0.0,0.0,0.0,0.0,0.0,0.0,0.0,0.0,0.0,0.0,0.0,0.0,0.0,0.0,0.0,0.0,0.0,0.0,0.0,0.0,0.0,0.0,0.0,0.0,0.0,0.0,0.0,0.0,0.0,0.0,0.0,0.0,2.1253,2.1685,2.124,2.0997,2.098,2.1021,2.0815,2.0323,2.0848,2.1164,0.0,0.0,0.0,0.0,0.0,0.0,0.0,0.0,0.0,0.0,0.0,0.0,0.0,0.0,0.0,0.0,0.0,0.0,0.0,0.0,0.0,0.0,0.0,0.0,0.0,0.0,0.0,0.0,0.0,0.0,0.0,0.0,0.0,0.0,0.0,0.0,0.0,0.0,0.0,0.0,0.0,0.0,1.9212,1.9139,0.0,0.0,0.0,2.0682,2.0854,0.0,0.0,0.0,0.0,0.0,0.0,0.0,0.0,0.0,0.0,0.0,0.0,0.0,0.0,0.0,0.0,0.0,0.0,0.0,0.0,0.0,0.0,0.0,0.0,0.0,0.0,0.0,0.0,0.0,0.0,0.0,0.0,0.0,0.0,0.0,0.0,0.0,0.0,0.0,0.0,0.0,0.0,0.0,0.0,0.0,0.0,0.0,0.0,0.0,0.0,0.0,0.0,0.0,0.0,0.0,0.0,0.0,2.2752,2.2171,2.1833,2.1814,2.1887,2.1591,2.0953,2.1421,0.0,0.0,0.0,0.0,0.0,0.0,0.0,0.0,0.0,0.0,0.0,0.0,0.0,0.0,0.0,0.0,0.0,0.0,0.0,0.0,0.0,0.0,0.0,0.0,0.0,0.0,0.0,2.0057,0.0,0.0,0.0,0.0,0.0,0.0,0.0,0.0,0.0,0.0,0.0,0.0,0.0,0.0,1.9977,1.9759,1.9752,1.9982,0.0,0.0,2.1361,2.1951,2.2418,2.2676,0.0,0.0,0.0,0.0,0.0,0.0,0.0,0.0,0.0,0.0,0.0,0.0,0.0,0.0,0.0,0.0,0.0,0.0,0.0,0.0,0.0,0.0,0.0,0.0,0.0,0.0,0.0,0.0,0.0,0.0,0.0,0.0,0.0,0.0,0.0,0.0,0.0,0.0,0.0,0.0,0.0,0.0,0.0,0.0,0.0,0.0,0.0,0.0,0.0,0.0,0.0,0.0,0.0,0.0,2.2752,2.2791,2.275,2.272,2.272,2.2722,2.2688,2.2613,2.197,2.204,0.0,0.0,0.0,0.0,0.0,0.0,0.0,0.0,0.0,0.0,0.0,0.0,0.0,0.0,0.0,0.0,0.0,0.0,0.0,0.0,0.0,0.0,0.0,0.0,0.0,0.0,0.0,0.0,0.0,0.0,0.0,0.0,0.0,0.0,0.0,0.0,0.0,0.0,0.0,0.0,0.0,2.237,2.0822,2.1305,2.1778,0.0,2.1466,2.1303,2.1362,2.3166,2.388,2.1944,0.0,0.0,0.0,0.0,0.0,0.0,0.0,0.0,0.0,0.0,0.0,0.0,0.0,0.0,0.0,0.0,0.0,0.0,0.0,0.0,0.0,0.0,0.0,0.0,0.0,0.0,0.0,0.0,0.0,0.0,0.0,0.0,0.0,0.0,0.0,0.0,0.0,0.0,0.0,0.0,0.0,0.0,0.0,0.0,0.0,0.0,0.0,0.0,0.0,0.0,0.0,0.0,0.0,2.3847,2.4322,2.3841,2.361,2.3607,2.3605,2.3336,2.2797,2.3018,2.336,0.0,0.0,0.0,0.0,0.0,0.0,0.0,0.0,0.0,0.0,0.0,0.0,0.0,0.0,0.0,0.0,0.0,0.0,0.0,0.0,0.0,0.0,0.0,0.0,0.0,0.0,0.0,0.0,2.063,2.0957,2.1842,0.0,0.0,0.0,0.0,0.0,0.0,0.0,0.0,0.0,0.0,2.3043,2.2398,2.2155,0.0,0.0,2.2671,2.2436,2.3388,2.4179,2.4342,2.3389,2.3161,0.0,0.0,0.0,0.0,0.0,0.0,0.0,0.0,0.0,0.0,0.0,0.0,0.0,0.0,0.0,0.0,0.0,0.0,0.0,0.0,0.0,0.0,0.0,0.0,0.0,0.0,0.0,0.0,0.0,0.0,0.0,0.0,0.0,0.0,0.0,0.0,0.0,0.0,0.0,0.0,0.0,0.0,0.0,0.0,0.0,0.0,0.0,0.0,0.0,0.0,0.0,0.0,2.4714,2.5288,2.4738,2.4471,2.4469,2.4452,2.418,2.3584,2.3913,2.4265,0.0,0.0,0.0,0.0,0.0,0.0,0.0,0.0,0.0,0.0,0.0,0.0,0.0,0.0,0.0,0.0,0.0,0.0,0.0,0.0,0.0,0.0,0.0,0.0,0.0,0.0,0.0,0.0,2.1594,2.2091,2.3339,0.0,0.0,0.0,0.0,0.0,0.0,0.0,0.0,0.0,0.0,2.3952,2.3469,2.3083,2.3223,2.4172,2.3376,2.3084,2.4282,2.4471,2.4349,2.401,0.0,0.0,0.0,0.0,0.0,0.0,0.0,0.0,0.0,0.0,0.0,0.0,0.0,0.0,0.0,0.0,0.0,0.0,0.0,0.0,0.0,0.0,0.0,0.0,0.0,0.0,0.0,0.0,0.0,0.0,2.5195,0.0,0.0,0.0,0.0,0.0,0.0,0.0,0.0,0.0,0.0,0.0,0.0,0.0,0.0,0.0,0.0,0.0,0.0,0.0,0.0,0.0,0.0,2.5269,2.5308,2.5269,2.5269,2.525,2.5269,2.5231,2.5192,2.4507,2.4514,2.5334,0.0,0.0,0.0,0.0,0.0,0.0,0.0,0.0,0.0,0.0,0.0,0.0,0.0,0.0,0.0,0.0,0.0,0.0,0.0,0.0,0.0,0.0,0.0,0.0,0.0,0.0,2.276,2.2559,2.2824,0.0,0.0,0.0,0.0,0.0,0.0,0.0,0.0,0.0,0.0,2.5055,2.5446,2.3884,2.4185,2.4496,2.4197,2.3394,2.2979,2.3501,2.3766,2.375,0.0,0.0,0.0,0.0,0.0,0.0,0.0,0.0,0.0,0.0,0.0,0.0,0.0,0.0,0.0,0.0,0.0,0.0,0.0,0.0,0.0,0.0,0.0,0.0,0.0,0.0,0.0,2.5225,2.5225,0.0,0.0,0.0,0.0,0.0,0.0,0.0,0.0,0.0,0.0,0.0,2.5209,2.5215,0.0,0.0,0.0,0.0,0.0,0.0,0.0,0.0,0.0,0.0,0.0,0.0,2.5308,2.5308,2.5308,2.5308,2.5308,2.5308,2.5308,2.5308,2.5041,2.5054,2.5381,0.0,0.0,0.0,0.0,0.0,0.0,0.0,0.0,0.0,0.0,0.0,0.0,0.0,0.0,0.0,0.0,0.0,0.0,0.0,0.0,0.0,0.0,0.0,0.0,0.0,2.4004,0.0,0.0,0.0,0.0,0.0,0.0,0.0,0.0,0.0,0.0,0.0,2.4831,2.4594,2.5525,2.6024,2.5415,2.5062,2.5024,0.0,0.0,0.0,0.0,0.0,0.0,0.0,0.0,0.0,0.0,0.0,0.0,0.0,0.0,2.4033,2.2902,2.2181,2.1733,2.1692,0.0,0.0,0.0,0.0,0.0,0.0,0.0,0.0,0.0,0.0,0.0,0.0,0.0,0.0,2.6052,0.0,2.6003,0.0,0.0,0.0,0.0,0.0,0.0,0.0,0.0,2.6095,2.6062,2.6057,2.6062,2.6065,0.0,2.5775,2.5655,0.0,0.0,0.0,0.0,0.0,0.0,0.0,0.0,2.529,2.5264,2.5261,2.5264,2.5293,2.5293,2.5298,2.5305,2.5308,2.5334,2.5389,2.5441,2.5478,0.0,0.0,0.0,0.0,0.0,0.0,0.0,0.0,0.0,0.0,0.0,0.0,0.0,0.0,0.0,0.0,0.0,0.0,0.0,0.0,0.0,0.0,0.0,2.4613,0.0,0.0,0.0,0.0,0.0,0.0,0.0,0.0,0.0,2.4901,2.5012,2.5106,2.51,2.5561,2.586,2.5823,0.0,0.0,0.0,0.0,0.0,0.0,0.0,2.5099,2.5384,2.5323,2.5267,2.5339,2.5593,2.5713,2.5548,0.0,0.0,2.4005,2.3191,2.272,2.2792,2.2693,2.2558,2.2567,2.2947,2.3286,0.0,0.0,0.0,0.0,0.0,0.0,0.0,0.0,2.7392,2.7695,0.0,2.7477,0.0,0.0,0.0,0.0,0.0,2.7296,0.0,0.0,2.7644,2.7676,2.7682,2.7663,2.7701,2.7644,2.6826,2.6478,2.6508,2.571,0.0,0.0,0.0,0.0,0.0,0.0,2.5274,2.5214,2.5212,2.5244,2.5306,2.5292,2.5302,2.5308,2.5308,2.5331,2.54,2.5387,2.5425,2.5495,2.5562,0.0,0.0,0.0,0.0,0.0,0.0,0.0,0.0,0.0,0.0,0.0,0.0,0.0,0.0,0.0,0.0,0.0,0.0,0.0,0.0,2.5522,0.0,0.0,0.0,0.0,0.0,0.0,0.0,0.0,0.0,0.0,2.5223,2.5174,2.5171,2.5332,0.0,0.0,0.0,0.0,2.4809,2.4714,2.5296,2.5714,2.5588,2.6403,2.7006,2.6851,0.0,0.0,2.5948,2.602,2.6116,2.5772,2.6024,2.6105,2.5915,2.507,2.4569,2.4778,2.4401,2.4082,2.405,2.4116,2.4174,3.0689,0.0,0.0,0.0,0.0,2.7695,2.7989,2.8031,2.8387,2.8484,2.8308,2.7825,0.0,0.0,0.0,0.0,0.0,0.0,2.7354,2.7482,2.7492,2.756,2.7701,2.7701,2.7701,2.7701,2.7453,2.7342,2.7351,2.7109,2.6396,2.5241,0.0,0.0,0.0,0.0,2.522,2.5212,2.5209,2.5214,2.5241,2.5262,2.5302,2.5308,2.5308,2.5303,2.5331,2.5329,2.5357,2.5423,2.545,0.0,0.0,0.0,0.0,0.0,0.0,0.0,0.0,0.0,0.0,0.0,0.0,0.0,0.0,0.0,0.0,0.0,0.0,0.0,2.5513,2.5515,2.5522,0.0,0.0,0.0,0.0,0.0,0.0,0.0,0.0,0.0,2.5406,2.5389,2.5579,0.0,0.0,2.5409,2.5836,2.5952,2.5955,2.5788,2.6475,0.0,2.6947,2.7023,2.7284,2.7848,2.8186,2.8285,2.8098,2.7955,2.7831,2.7687,2.7761,2.7774,2.7587,2.6315,2.5348,2.5295,2.5391,2.5433,2.5278,2.557,2.5841,3.3666,3.0106,2.9643,2.9423,2.9522,3.0269,3.0547,3.0517,3.0811,3.0834,3.0605,2.9804,2.9344,2.9181,2.921,0.0,0.0,0.0,2.8933,2.8739,2.8745,2.8643,2.8457,2.8446,2.8632,2.8894,2.8252,2.8093,2.8389,2.7767,2.6973,2.6007,0.0,0.0,2.5729,2.571,2.5704,2.5674,2.5351,2.5206,2.5198,2.5239,2.5262,2.5278,2.5288,2.5293,2.5293,2.5303,2.5334,2.5357,2.5406,2.5465,0.0,0.0,0.0,0.0,0.0,0.0,0.0,0.0,0.0,0.0,0.0,2.5695,2.565,0.0,0.0,0.0,2.5611,2.5597,2.559,2.5551,0.0,0.0,0.0,0.0,0.0,0.0,0.0,2.5551,2.552,2.5516,2.5516,2.5521,2.565,2.6044,2.5938,2.5824,2.5835,0.0,2.6854,2.6384,2.7337,2.8089,2.8061,2.8141,2.8269,2.8383,2.886,2.9026,2.8647,2.8734,2.8833,2.8737,2.87,2.8644,2.8471,2.7456,2.6637,2.6496,2.6533,2.6565,2.6396,2.6702,2.6906,3.6661,3.5151,3.4079,3.3395,3.3106,3.3599,3.3697,3.3589,3.4004,3.4059,3.3731,3.266,3.2212,3.2302,3.2057,0.0,3.0873,3.1618,3.1531,3.0878,3.0803,3.0386,2.9716,2.9622,2.9992,3.0663,2.9139,2.8792,2.9411,2.8042,2.7296,2.7256,2.7695,2.744,2.6583,2.6554,2.6548,2.6466,2.5772,2.5397,2.54,2.533,2.5302,2.5305,2.5296,2.5306,2.5306,2.531,2.5322,2.5406,2.5451,2.5483,2.5507,0.0,0.0,0.0,0.0,0.0,0.0,0.0,0.0,0.0,0.0,0.0,0.0,0.0,0.0,0.0,2.56,0.0,2.5696,2.5643,0.0,0.0,0.0,2.5614,2.5599,2.5611,2.5625,2.5703,0.0,0.0,2.5597,2.5622,2.5559,2.5519,2.6159,2.6364,2.5695,2.6992,2.7624,2.6902,2.8023,2.8989,2.8999,2.9414,2.9433,2.8614,2.9082,2.9195,2.8349,2.8623,2.9056,2.9041,2.8972,2.8831,2.8576,2.8452,2.8401,2.7959,2.7689,2.746,2.742,2.7414,2.7378,4.0038,3.9139,3.8956,3.6782,3.359,3.5041,3.5298,3.4785,3.56,3.5188,3.3829,3.3097,3.2398,3.171,3.1548,3.1366,3.1194,3.142,3.1525,3.1461,3.0852,3.0542,3.049,2.9903,2.9697,2.9847,2.949,2.9465,2.978,2.9425,2.896,2.8531,2.9221,2.8721,2.7034,2.7104,2.7185,2.7182,2.7128,2.7103,2.7092,2.6511,2.6183,2.6184,2.5562,2.5222,2.5222,2.5265,2.5607,2.6227,2.569,2.568,2.6421,2.5857,0.0,0.0,0.0,0.0,0.0,0.0,0.0,0.0,0.0,2.5699,2.5703,0.0,2.5701,0.0,2.566,2.568,2.5703,2.5643,0.0,0.0,2.5601,2.5624,2.5664,2.5629,2.5862,2.6515,2.6524,2.6485,2.6485,2.6498,2.6257,2.5691,2.6211,2.7029,2.7937,2.8559,2.8825,2.8515,2.9264,2.9969,2.9768,2.9847,2.9573,2.8761,2.9171,2.9303,2.8442,2.83,2.8496,2.9011,2.854,2.8291,2.8759,2.8737,2.8568,2.8447,2.8295,2.8094,2.7897,2.7808,2.7717,4.1768,4.1044,4.1098,3.9401,3.6742,3.7588,3.7473,3.6718,3.7045,3.6594,3.5598,3.4803,3.4109,3.3498,3.344,3.3198,3.2876,3.2898,3.2588,3.1992,3.1556,3.1222,3.1017,3.0577,3.0569,3.0902,3.019,3.0076,3.0448,2.9796,2.927,2.8908,2.9409,2.9097,2.8003,2.8032,2.8028,2.7938,2.7774,2.7708,2.7701,2.7268,2.7045,2.7021,2.6577,2.6295,2.6295,2.6368,2.6642,2.7097,2.6691,2.6701,2.7236,2.6902,2.6697,0.0,0.0,0.0,0.0,0.0,0.0,0.0,0.0,0.0,0.0,0.0,2.6124,2.5736,2.6043,2.626,2.6269,2.6582,2.6797,2.6797,2.6811,2.6806,2.6852,2.6793,2.6939,2.7422,2.7443,2.7278,2.6908,2.6835,2.665,2.6199,2.6493,2.7055,2.7904,2.8709,2.9139,2.8691,2.9275,2.9598,2.9084,2.9194,2.9097,2.8438,2.902,2.948,2.8707,2.8719,2.8994,2.9301,2.8944,2.8622,2.8945,2.8893,2.8761,2.8619,2.8554,2.8445,2.8304,2.8233,2.8138,4.2484,4.185,4.1859,4.1379,4.0627,4.0329,3.9698,3.8818,3.84,3.8034,3.7625,3.6655,3.6142,3.5977,3.5985,3.5537,3.4798,3.4794,3.3992,3.2582,3.2454,3.2057,3.1447,3.135,3.168,3.2355,3.0943,3.0564,3.112,2.985,2.9141,2.8974,2.9153,2.9225,2.92,2.9192,2.9085,2.881,2.828,2.8026,2.8007,2.7908,2.7851,2.7851,2.7762,2.7714,2.7714,2.7754,2.7844,2.7944,2.7922,2.793,2.8063,2.807,2.8094,0.0,2.8258,0.0,0.0,0.0,0.0,0.0,0.0,0.0,0.0,2.7177,2.6866,2.6089,2.6708,2.7174,2.7177,2.7846,2.8298,2.8298,2.8281,2.83,2.8299,2.8252,2.8261,2.8353,2.8359,2.8054,2.7424,2.711,2.6973,2.6797,2.6614,2.6675,2.6958,2.8146,2.8823,2.8085,2.8553,2.8673,2.7994,2.8197,2.8271,2.7702,2.848,2.9309,2.8619,2.8896,2.9389,2.9549,2.934,2.9138,2.9056,2.9071,2.8963,2.8755,2.8718,2.8682,2.86,2.8568,2.8581,4.2819,4.2674,4.2674,4.2185,4.1488,4.1406,4.0906,4.0154,4.004,3.8935,3.7116,3.6269,3.5895,3.5841,3.5877,3.5462,3.4742,3.4765,3.4284,3.3343,3.2698,3.2315,3.2146,3.1521,3.1316,3.1432,3.1133,3.0808,3.0494,3.085,3.042,2.9368,3.0124,3.0469,3.0331,0.0,0.0,0.0,2.9792,2.9726,2.9711,2.9035,2.8685,2.8666,2.8026,0.0,2.7708,2.7714,2.8042,2.8708,2.8176,0.0,0.0,0.0,0.0,0.0,0.0,0.0,0.0,0.0,0.0,0.0,2.9524,2.876,2.8128,2.807,2.7992,2.7837,2.7953,2.8069,2.805,2.8208,2.8287,2.8288,2.831,2.8295,2.83,2.8301,2.8514,2.9175,2.9244,2.9189,2.8949,2.8395,2.7671,2.7005,2.6272,2.6141,2.6832,2.7733,2.8219,2.8098,2.8075,2.8011,2.7714,2.7736,2.7497,2.6852,2.724,2.7866,2.779,2.7297,2.7801,2.929,2.8606,2.8093,2.9204,2.9346,2.922,2.9177,2.9174,2.9064,2.8682,2.86,2.8593,4.291,0.0,4.291,4.2674,0.0,4.2303,4.2067,4.1633,4.0845,3.984,3.8689,3.7912,3.7576,3.7558,3.7201,3.659,3.5846,3.5856,3.5454,3.4676,3.4276,3.4091,3.4102,3.3698,3.353,3.3536,3.2718,3.2165,3.187,3.1474,3.095,3.0254,3.0781,3.1009,3.0903,3.1334,3.1315,3.0835,3.0418,3.0208,3.0188,2.978,2.9529,2.9532,2.9153,0.0,0.0,0.0,0.0,0.0,0.0,0.0,0.0,0.0,0.0,2.9168,2.9689,2.9996,2.9998,3.0055,3.0292,3.0761,3.0382,2.9798,2.9005,2.8556,2.8283,2.8302,2.8674,2.8928,2.8947,2.9278,2.9532,2.9532,2.9532,2.9535,2.9522,2.9528,2.9707,3.0055,3.0141,3.0005,2.9542,2.9155,2.8503,2.7684,2.7189,2.7005,2.7429,2.7472,2.7459,2.7438,2.6954,2.6638,2.6626,2.6862,2.688,2.6477,2.6954,2.7437,2.749,2.7149,2.7407,2.8889,2.8491,2.8299,2.9274,2.9518,2.942,2.9329,2.9304,2.9241,2.899,2.8875,2.8785,4.2854,4.291,4.291,4.291,4.291,4.291,4.291,4.2801,0.0,0.0,0.0,3.9713,3.9478,3.9514,3.8617,3.7911,3.743,3.714,3.6643,3.6011,3.5884,3.5825,3.588,3.5888,3.5836,3.5681,3.4491,3.376,3.3452,3.2275,3.1549,3.132,3.1411,3.1516,3.1611,3.1932,3.2037,3.1855,3.1054,3.0629,3.0643,3.0643,3.0643,3.0647,3.0624,3.0643,3.0647,3.0643,3.0635,3.064,3.064,3.0654,3.0714,3.0775,3.0813,3.0808,3.0918,3.0998,3.0997,3.1106,3.1201,3.1219,3.1239,3.0834,2.9899,2.9159,2.875,2.8751,2.9397,2.9807,2.9827,3.0372,3.0801,3.0801,3.0801,3.0781,3.0782,3.0792,3.072,3.08,3.0758,3.0547,2.9874,2.9582,2.9249,2.8582,2.819,2.819,2.8088,2.7434,2.6897,2.685,2.624,2.5517,2.551,2.5861,2.6175,2.6097,2.6611,2.7104,2.725,2.7164,2.7456,2.8302,2.8385,2.853,2.92,2.9395,2.9429,2.9426,2.941,2.941,2.9395,2.9246,2.9103,4.2747,4.291,4.291,4.291,4.291,4.291,4.291,4.2819,4.1931,4.1144,4.0465,3.9731,3.9749,4.0266,3.8852,3.8517,3.8961,3.7611,3.6941,3.6796,3.6127,3.5794,3.582,3.5809,3.5455,3.4865,3.5256,3.4759,3.3582,3.3879,3.3426,3.2243,3.239,3.277,3.3151,3.3246,3.3308,3.3366,3.2647,3.2297,3.2352,3.2352,3.2355,3.2355,3.2317,3.2355,3.2355,3.2317,3.2359,3.2344,3.234,3.2344,3.2374,3.2382,3.2438,3.2376,3.2445,3.2484,3.2471,3.2626,3.2754,3.2928,3.296,3.2307,3.0778,3.0529,3.0437,3.0448,3.0604,3.0625,3.0645,3.078,3.0858,3.0819,3.08,3.08,3.08,3.0783,3.079,3.0798,3.08,3.0779,3.0528,2.997,2.9546,2.9251,2.8855,2.8287,2.8248,2.7446,2.6947,2.6775,2.6124,2.5587,2.5464,2.5449,2.5558,2.539,2.5524,2.5883,2.6399,2.5978,2.6126,2.7413,2.7167,2.7343,2.8527,2.8815,2.9127,2.9571,2.9774,2.9787,2.9756,2.9607,2.9455,4.2658,4.2747,4.2844,4.291,4.291,4.291,4.291,4.2873,4.252,4.2158,4.1741,4.099,4.0845,4.1035,3.9958,3.9659,3.9967,3.9242,3.8898,3.8862,3.8509,3.8129,3.7785,3.7757,3.7396,3.6752,3.6525,3.6204,3.5758,3.5539,3.4816,3.3719,3.3435,3.3659,3.4366,3.4106,3.4062,3.4254,3.3103,3.2535,3.264,3.2648,3.2664,3.2676,3.268,3.268,3.268,3.268,3.268,3.268,3.268,3.268,3.2699,3.2729,3.2732,3.2726,3.2757,3.28,3.28,3.2976,3.3096,3.318,3.3258,3.2986,3.2214,3.2154,3.2147,3.2155,3.2156,3.2157,3.2137,3.1767,3.1514,3.1495,3.1104,3.0798,3.0788,3.0789,3.0797,3.0791,3.0797,3.08,3.0799,3.0454,3.0203,3.0169,2.9785,2.9575,2.9554,2.8832,2.7935,2.7049,2.621,2.5688,2.5528,2.5475,2.5406,2.5316,2.524,2.5351,2.566,2.5278,2.564,2.6536,2.6485,2.6983,2.8385,2.8738,2.9091,2.9688,2.9911,2.9911,2.988,2.9826,2.9667,4.2892,4.2791,4.314,4.3182,4.3001,4.2849,4.2776,4.2776,4.2749,4.2767,4.2668,4.2011,4.1795,4.1877,4.0935,4.07,4.0972,4.0646,4.061,4.0754,4.0591,4.0175,3.9695,3.9641,3.9317,3.8692,3.7893,3.764,3.768,3.6791,3.5948,3.5247,3.4685,3.4825,3.5606,3.5175,3.5062,3.5218,3.3907,3.3151,3.312,3.3124,3.3158,3.3205,3.3233,3.3226,3.3241,3.3241,3.3272,3.3253,3.3272,3.3272,3.3253,3.3249,3.3253,3.328,3.3309,3.3365,3.3423,3.3542,3.3657,3.3715,3.3805,3.3868,3.3854,3.386,3.3688,3.3387,3.3216,3.3235,3.3159,3.2749,3.2359,3.232,3.16,3.1161,3.108,3.0927,3.0795,3.0791,3.0788,3.0795,3.0799,3.0798,3.0765,3.0733,3.0786,3.0802,3.0703,3.006,2.8911,2.7802,2.6633,2.6042,2.589,2.5669,2.5532,2.5437,2.5341,2.531,2.5284,2.52,2.5297,2.5901,2.6031,2.6508,2.7822,2.8388,2.8749,2.9387,2.9743,2.9948,2.9936,2.9909,2.9809,4.3816,4.3483,4.4089,4.4025,4.3321,4.2662,4.2415,4.2397,4.2359,4.2359,4.233,4.1907,4.2103,4.2529,4.1198,4.1307,4.2429,4.1153,4.0917,4.1451,4.0845,4.0447,4.0392,4.0392,4.0012,3.9393,3.9204,3.883,3.8285,3.7374,3.6725,3.6327,3.6437,3.6572,3.6878,3.682,3.6836,3.6859,3.6013,3.5294,3.4718,3.469,3.4695,3.4709,3.4795,3.4873,3.4759,3.4935,3.4957,3.4976,3.4915,3.4934,3.4915,3.4953,3.4938,3.4934,3.4927,3.507,3.5184,3.527,3.527,3.5538,3.5456,3.5486,3.549,3.5514,3.4885,3.3781,3.3348,3.3423,3.3291,3.3231,3.317,3.3149,3.2451,3.197,3.1893,3.1292,3.0785,3.0786,3.0834,3.0792,3.0789,3.0798,3.08,3.08,3.0795,3.0789,3.0744,3.0177,2.9612,2.9028,2.7919,2.6905,2.6667,2.6122,2.5745,2.5565,2.5487,2.542,2.533,2.5244,2.5258,2.5597,2.5425,2.5869,2.6582,2.7146,2.8037,2.8931,2.954,3.0068,3.0014,3.0003,2.9887,4.4163,4.3961,4.4406,4.4435,4.4014,4.3294,4.2955,4.2901,4.2476,4.2297,4.2282,4.2121,4.2227,4.2498,4.1976,4.2132,4.2656,4.2156,4.2085,4.2375,4.2067,4.1687,4.1234,4.1198,4.088,4.0329,4.0298,4.0191,3.9778,3.8566,3.7932,3.7893,3.7111,3.6923,3.7542,3.7277,3.711,3.7091,3.6785,3.6474,3.6134,3.5296,3.4869,3.4903,3.4969,3.4988,3.4992,3.501,3.5028,3.5028,3.5023,3.5009,3.5009,3.5004,3.5054,3.5121,3.5181,3.5254,3.5299,3.5448,3.5531,3.5643,3.5732,3.5793,3.5793,3.5793,3.5481,3.494,3.4754,3.4774,3.4715,3.4328,3.4001,3.3902,3.3278,3.2819,3.2797,3.2041,3.1522,3.1518,3.1102,3.0821,3.0798,3.0798,3.0798,3.0795,3.0798,3.0842,3.0762,3.0494,3.0313,3.0119,2.9204,2.8054,2.7198,2.6671,2.6233,2.5789,2.5564,2.5486,2.5508,2.5357,2.5406,2.5841,2.5932,2.6222,2.7029,2.7286,2.7851,2.8633,2.944,3.0091,3.0072,3.0068,2.9999,4.4687,4.4563,4.4686,4.4754,4.4665,4.3872,4.3546,4.3464,4.2953,4.2626,4.2448,4.242,4.2306,4.217,4.2381,4.252,4.254,4.267,4.2729,4.2729,4.2747,4.2431,4.1907,4.1871,4.1649,4.1297,4.1042,4.0969,4.0924,4.0044,3.956,3.964,3.8564,3.8319,3.8942,3.8465,3.81,3.8087,3.7705,3.7418,3.7247,3.6117,3.5462,3.5496,3.5512,3.5522,3.5527,3.5552,3.5585,3.5585,3.5585,3.5585,3.5585,3.5585,3.5524,3.5385,3.5229,3.5132,3.5185,3.5303,3.5418,3.5476,3.562,3.5753,3.5769,3.5784,3.5793,3.5758,3.5793,3.5738,3.5736,3.5236,3.4888,3.4808,3.4128,3.3635,3.358,3.2866,3.2389,3.2351,3.1969,3.1482,3.1462,3.135,3.1198,3.1211,3.1186,3.1004,3.0865,3.0786,3.0768,3.0767,3.0198,2.9321,2.7918,2.7411,2.6983,2.6668,2.6427,2.6403,2.6209,2.6174,2.6178,2.6908,2.6911,2.6996,2.7353,2.7647,2.7759,2.8405,2.9153,2.9755,2.9672,2.9862,3.0064,4.5712,4.5104,4.5081,4.5105,4.5011,4.4232,4.3898,4.3915,4.3815,4.3423,4.2837,4.2756,4.2358,4.178,4.2217,4.2308,4.2308,4.2348,4.2351,4.2369,4.2359,4.232,4.2282,4.2274,4.2251,4.2113,4.158,4.1087,4.08,4.1234,4.1569,4.149,4.1368,4.162,4.149,4.0766,4.0572,4.024,3.8976,3.8244,3.8169,3.7435,3.7015,3.7019,3.7016,3.6977,3.7044,3.7191,3.7232,3.7256,3.7175,3.7213,3.7237,3.72,3.6859,3.6192,3.541,3.5044,3.5193,3.5283,3.5338,3.5451,3.5679,3.5635,3.592,3.5977,3.603,3.5872,3.5967,3.5911,3.5892,3.5736,3.5639,3.5603,3.4944,3.4501,3.4445,3.3728,3.3295,3.323,3.3076,3.2905,3.3108,3.2489,3.207,3.2009,3.2031,3.1792,3.1102,3.0884,3.0883,3.0817,3.0655,3.0392,2.9496,2.8639,2.8171,2.776,2.7518,2.784,2.7964,2.7985,2.7928,2.7912,2.7909,2.7881,2.7841,2.7819,2.7854,2.8229,2.8683,2.9065,2.931,2.9723,2.9956,4.6056,4.5823,4.5805,4.5805,4.5723,4.4992,4.4676,4.4624,4.4115,4.3775,4.3447,4.3015,4.2903,4.3073,4.2738,4.2408,4.2069,4.2225,4.2297,4.2297,4.2297,4.2297,4.2297,4.2297,4.2442,4.2635,4.2565,4.224,4.1769,4.1739,4.1621,4.1494,4.1648,4.1815,4.1821,4.121,4.0797,4.0685,3.9658,3.9138,3.9132,3.8838,3.8707,3.8631,3.7671,3.713,3.7149,3.7169,3.721,3.7205,3.7229,3.721,3.7221,3.7233,3.7162,3.686,3.662,3.6515,3.6568,3.6615,3.6654,3.674,3.6838,3.6932,3.7131,3.7204,3.7265,3.7271,3.6856,3.6651,3.6518,3.6146,3.5793,3.5756,3.5525,3.5292,3.5177,3.4595,3.4053,3.3996,3.3656,3.3312,3.3373,3.3048,3.2848,3.2858,3.291,3.2535,3.1879,3.1644,3.1436,3.0947,3.0782,3.0697,3.0444,2.9598,2.8931,2.8405,2.8128,2.8145,2.8244,2.8354,2.8291,2.8814,2.8891,2.8764,2.8678,2.8509,2.8436,2.8176,2.8615,2.9133,2.9055,2.9727,2.9971,4.6202,4.6202,4.6202,4.6202,4.6144,4.5665,4.5454,4.5384,4.4875,4.4518,4.422,4.3752,4.3711,4.3799,4.3377,4.2936,4.2582,4.275,4.2796,4.2825,4.2825,4.2672,4.2477,4.247,4.2522,4.272,4.3169,4.3136,4.281,4.2615,4.2445,4.2318,4.243,4.2547,4.2592,4.1965,4.1565,4.1422,4.0791,4.0297,4.0059,3.9984,3.9852,3.9495,3.8506,3.7912,3.7918,3.7899,3.7893,3.7899,3.7912,3.7899,3.7905,3.7662,3.7551,3.7544,3.736,3.7308,3.7316,3.7398,3.7467,3.7513,3.7666,3.7866,3.8012,3.8076,3.8172,3.8125,3.787,3.7495,3.7381,3.6977,3.6438,3.5969,3.5793,3.5793,3.5773,3.5292,3.4964,3.4808,3.4227,3.3909,3.4029,3.3843,3.3726,3.3707,3.3761,3.3437,3.2711,3.2224,3.1953,3.1347,3.0969,3.0848,3.069,3.0198,2.9931,2.9481,2.9146,2.8971,2.8835,2.8873,2.9039,2.959,2.9758,2.9617,2.9447,2.9285,2.8958,2.855,2.9088,2.976,2.9795,2.9876,3.0126,4.6202,4.6214,4.6202,4.6302,4.6302,4.6249,4.6196,4.6196,4.6109,4.563,4.5115,4.501,4.4589,4.4132,4.4009,4.3898,4.3956,4.3974,4.3868,4.3745,4.3751,4.3435,4.2872,4.2877,4.2713,4.2493,4.3151,4.349,4.3413,4.3736,4.3945,4.4121,4.3998,4.3953,4.4225,4.3362,4.3046,4.2798,4.2127,4.1491,4.0903,4.0791,4.0459,3.9777,3.9552,3.9458,3.9477,3.9458,3.9389,3.9445,3.9464,3.9577,3.9295,3.8731,3.83,3.8218,3.7642,3.7253,3.7263,3.7489,3.7682,3.7804,3.7927,3.8244,3.8418,3.8472,3.8532,3.8594,3.8423,3.8302,3.8307,3.819,3.7582,3.6183,3.603,3.595,3.5892,3.5814,3.5773,3.56,3.5002,3.4941,3.5368,3.5031,3.4583,3.4591,3.4597,3.4306,3.3492,3.2886,3.2299,3.2,3.1722,3.1482,3.115,3.0837,3.0822,3.0733,3.0494,3.0278,3.0103,3.0084,3.0002,3.0389,3.0368,3.0214,2.9899,2.9726,2.947,2.9286,2.9928,3.0238,3.025,3.0272,3.0462,4.6202,4.6284,4.6805,4.7029,4.7029,4.7016,4.7016,4.6958,4.6472,4.6074,4.5775,4.5343,4.5226,4.5331,4.498,4.4998,4.5472,4.5442,4.4928,4.4062,4.3933,4.3828,4.3629,4.3547,4.3529,4.3484,4.37,4.3707,4.3559,4.3635,4.3691,4.3791,4.4093,4.4252,4.4229,4.3504,4.3081,4.2969,4.2279,4.1741,4.1563,4.1551,4.1184,4.0534,4.0422,4.019,3.9646,3.9614,3.9614,3.9614,3.9614,3.9614,3.9539,3.9345,3.9195,3.9176,3.8988,3.8838,3.8831,3.8865,3.8933,3.9114,3.9242,3.9456,3.9703,3.9758,3.9834,3.9887,3.9539,3.9189,3.9111,3.8634,3.8152,3.7642,3.7061,3.661,3.6477,3.6127,3.5853,3.5775,3.5564,3.5578,3.5721,3.5451,3.5392,3.542,3.544,3.5112,3.4433,3.3943,3.3571,3.3101,3.2705,3.235,3.2154,3.1879,3.1714,3.1411,3.1133,3.0834,3.0793,3.0789,3.0785,3.08,3.08,3.0677,3.0367,3.0176,2.9941,2.9769,3.0001,3.0222,3.0424,3.0769,3.1198,4.6648,4.67,4.7187,4.7555,4.7748,4.7538,4.7397,4.7327,4.6858,4.6472,4.6144,4.5735,4.5752,4.6039,4.5717,4.5788,4.6196,4.6202,4.5688,4.4905,4.4953,4.4869,4.466,4.4628,4.4659,4.475,4.4839,4.4801,4.4541,4.4262,4.4122,4.4221,4.4156,4.4142,4.4166,4.3741,4.3431,4.3382,4.3019,4.2588,4.2361,4.2312,4.1928,4.1294,4.1163,4.092,4.0484,4.0453,4.0184,3.9739,3.9614,3.9614,3.9614,3.9595,3.9614,3.9614,3.9595,3.9577,3.962,3.9585,3.9749,3.9892,4.0035,4.0204,4.045,4.0557,4.0684,4.069,4.0344,4.0029,3.9954,3.9599,3.9274,3.9265,3.7887,3.702,3.6656,3.6153,3.5847,3.5791,3.5775,3.5793,3.5811,3.5813,3.5851,3.5869,3.5872,3.5832,3.5212,3.4843,3.4369,3.389,3.3433,3.3235,3.3274,3.2998,3.2641,3.209,3.1539,3.1085,3.0787,3.0798,3.0791,3.0784,3.08,3.08,3.0553,3.0615,3.051,3.037,3.0469,3.1306,3.1956,3.2115,3.2361,4.7397,4.745,4.752,4.7994,4.8455,4.7924,4.7708,4.759,4.738,4.6946,4.6407,4.6161,4.6144,4.6196,4.6109,4.6144,4.6202,4.6214,4.6161,4.6174,4.6441,4.6429,4.5956,4.5947,4.5925,4.5957,4.6224,4.6357,4.6102,4.5591,4.5324,4.5103,4.4517,4.4042,4.4044,4.4116,4.4072,4.4042,4.4084,4.3721,4.3105,4.3087,4.269,4.1939,4.1896,4.1844,4.1693,4.1657,4.1102,3.9921,3.9689,3.9614,3.9614,3.9614,3.9614,3.9614,3.9614,3.9614,3.9644,3.9714,3.9843,3.99,4.0177,4.0485,4.0492,4.0635,4.0736,4.0797,4.0724,4.072,4.0703,4.0624,4.0566,4.0355,3.8658,3.7213,3.6165,3.609,3.6252,3.6134,3.5967,3.589,3.5967,3.5919,3.5805,3.5805,3.5864,3.5824,3.5723,3.5311,3.492,3.4561,3.4295,3.4254,3.4331,3.3824,3.3488,3.3174,3.2467,3.1741,3.1089,3.0982,3.0796,3.0789,3.0861,3.084,3.0879,3.0957,3.1231,3.1389,3.1963,3.2975,3.3312,3.3278,3.3196,4.7713,4.8262,4.885,4.9218,4.9346,4.9166,4.9078,4.8937,4.7884,4.7345,4.6976,4.6442,4.6232,4.6202,4.6202,4.6202,4.6239,4.6214,4.6202,4.6343,4.7078,4.7299,4.7153,4.7138,4.7001,4.6801,4.6883,4.674,4.6515,4.6327,4.5926,4.5305,4.5146,4.4618,4.4124,4.4092,4.4055,4.4055,4.4059,4.4057,4.3916,4.3849,4.3498,4.2777,4.2759,4.252,4.2011,4.1939,4.156,4.0553,3.9883,3.9614,3.9671,3.9671,3.9671,3.9614,3.9614,3.9614,3.9608,3.9687,3.9786,3.9868,4.0203,4.0191,4.0477,4.0554,4.0675,4.0765,4.0806,4.0806,4.0809,4.0796,4.055,3.9898,3.9207,3.8475,3.7751,3.7637,3.7645,3.7608,3.705,3.6768,3.6565,3.6241,3.587,3.583,3.5841,3.5883,3.5806,3.5774,3.539,3.5595,3.5485,3.5426,3.5231,3.4705,3.4353,3.4216,3.355,3.2687,3.1956,3.138,3.1058,3.0796,3.1024,3.108,3.1194,3.129,3.1721,3.2074,3.2827,3.3497,3.3813,3.39,3.3847,4.8557,4.903,4.9499,4.9903,5.0132,4.9851,4.971,4.9552,4.8797,4.7954,4.7415,4.6928,4.6507,4.6232,4.6202,4.6314,4.6453,4.6277,4.6319,4.6613,4.7248,4.7749,4.803,4.8127,4.8022,4.7831,4.7785,4.7716,4.75,4.72,4.6754,4.6382,4.5974,4.5379,4.4644,4.4533,4.4321,4.4079,4.4005,4.4055,4.4119,4.4119,4.3911,4.3483,4.3505,4.3269,4.2929,4.2662,4.2147,4.1397,4.0854,4.0466,4.0128,4.009,3.9959,3.9683,3.9614,3.9614,3.9695,3.995,4.0235,4.042,4.0737,4.1003,4.1021,4.1016,4.115,4.0839,4.0813,4.0794,4.0794,4.0794,4.0561,4.0222,4.0072,3.9592,3.8421,3.8169,3.8262,3.8164,3.7887,3.7371,3.7141,3.6623,3.6222,3.5919,3.5828,3.5873,3.5883,3.5902,3.5898,3.5953,3.5996,3.5836,3.5738,3.5329,3.5115,3.4997,3.4509,3.3648,3.2958,3.2187,3.1984,3.1743,3.152,3.1415,3.1627,3.1761,3.1878,3.2384,3.3203,3.3846,3.4196,3.4387,3.4356,4.9643,4.9833,4.9815,5.0237,5.0711,5.0132,4.9903,4.9851,4.9622,4.8902,4.7901,4.7485,4.6963,4.6332,4.6419,4.653,4.6851,4.6602,4.6777,4.7158,4.7735,4.8305,4.8973,4.8796,4.8739,4.8699,4.8854,4.8771,4.85,4.8054,4.7749,4.7386,4.6865,4.6215,4.5517,4.5313,4.4849,4.4321,4.4079,4.4023,4.4039,4.4039,4.3972,4.3924,4.3918,4.4013,4.393,4.361,4.2992,4.231,4.2129,4.1554,4.096,4.0929,4.0647,4.0165,4.0115,4.0078,4.0046,4.0763,4.1135,4.1201,4.2038,4.2443,4.1614,4.1466,4.1302,4.0848,4.0813,4.0794,4.0794,4.0794,4.0755,4.0642,4.0722,3.9993,3.8924,3.8465,3.8476,3.8511,3.8535,3.8018,3.7567,3.7175,3.6979,3.6807,3.6522,3.6271,3.6174,3.6043,3.597,3.5898,3.595,3.6011,3.5972,3.5913,3.5836,3.5719,3.5251,3.4606,3.4095,3.3521,3.332,3.3041,3.2488,3.2265,3.2315,3.2371,3.2467,3.301,3.4025,3.4394,3.4643,3.4716,3.4726,5.0035,5.0641,5.0641,5.0729,5.0869,5.0729,5.0641,5.057,4.9973,4.9517,4.8973,4.7954,4.7362,4.7129,4.6938,4.6835,4.7113,4.7292,4.7567,4.8057,4.8788,4.935,4.9674,4.9337,4.8956,4.8964,4.8909,4.8909,4.8816,4.8723,4.8314,4.7738,4.7571,4.7051,4.6308,4.574,4.5239,4.4915,4.4395,4.4042,4.3997,4.3997,4.3997,4.4005,4.4104,4.4188,4.4252,4.4139,4.3996,4.3617,4.2784,4.206,4.1817,4.1742,4.1598,4.1392,4.1354,4.141,4.1524,4.1644,4.1889,4.2032,4.201,4.1536,4.1666,4.1289,4.1042,4.0781,4.0794,4.0968,4.091,4.0832,4.0832,4.0832,4.0777,4.0642,4.03,4.0184,4.0102,4.0026,3.9594,3.9168,3.8957,3.8285,3.7991,3.7756,3.7352,3.6909,3.6655,3.6414,3.6409,3.6464,3.6244,3.6345,3.6265,3.6187,3.6011,3.6011,3.568,3.5446,3.4935,3.4484,3.4127,3.3732,3.3279,3.3154,3.3143,3.3588,3.3823,3.4365,3.4712,3.4946,3.5089,3.5115,3.5174,5.0415,5.0887,5.0891,5.0891,5.0891,5.0891,5.0891,5.0834,5.0483,5.0044,4.9587,4.8762,4.8275,4.7927,4.8004,4.816,4.8429,4.883,4.9057,4.9269,4.9764,5.0177,5.0407,5.0193,4.993,4.9596,4.9494,4.9309,4.9076,4.9243,4.9094,4.8333,4.8277,4.7831,4.7163,4.6568,4.6011,4.5342,4.4886,4.4451,4.4079,4.3997,4.3997,4.4005,4.407,4.4131,4.4233,4.4259,4.4285,4.4126,4.3526,4.29,4.2661,4.2593,4.2424,4.2061,4.1986,4.1986,4.2011,4.2479,4.2811,4.2979,4.2993,4.3029,4.2957,4.2537,4.2253,4.2067,4.1973,4.1877,4.1432,4.1374,4.1258,4.0855,4.0832,4.0813,4.0813,4.0813,4.08,4.0741,4.0346,3.9904,3.9522,3.9136,3.8692,3.8282,3.811,3.771,3.773,3.752,3.7451,3.734,3.6909,3.6698,3.6598,3.6402,3.605,3.6011,3.5913,3.5817,3.56,3.5189,3.4777,3.448,3.4241,3.404,3.411,3.4615,3.4789,3.4787,3.496,3.5327,3.5494,3.5404,3.5577,5.0675,5.0846,5.0836,5.0863,5.0891,5.0877,5.0877,5.0891,5.0891,5.0483,4.9921,4.978,4.9148,4.8891,4.9138,4.9654,5.0154,5.046,5.0418,5.0304,5.0799,5.1074,5.1181,5.1287,5.1193,5.058,5.0376,4.9959,4.9763,4.9893,4.9893,4.9224,4.9094,4.8649,4.8036,4.7646,4.7033,4.6038,4.5648,4.5249,4.4711,4.4581,4.4544,4.4321,4.405,4.4081,4.4142,4.4158,4.4214,4.427,4.4278,4.3977,4.3638,4.3412,4.3212,4.2461,4.2627,4.2697,4.284,4.3284,4.3789,4.3891,4.4492,4.4786,4.4313,4.3932,4.3564,4.3333,4.3034,4.2818,4.2299,4.2222,4.1874,4.1471,4.1258,4.1126,4.0987,4.0987,4.1029,4.078,4.0657,4.0349,4.0098,3.9771,3.9291,3.8887,3.8716,3.8607,3.8609,3.8429,3.8254,3.8093,3.7656,3.7505,3.7421,3.7281,3.6852,3.6344,3.6285,3.6128,3.6109,3.5718,3.5364,3.5498,3.5319,3.504,3.4861,3.5112,3.5189,3.5052,3.5183,3.5546,3.5635,3.5652,3.5859,5.0523,5.0643,5.0523,5.0641,5.0846,5.0716,5.0774,5.0891,5.0945,5.0834,5.0646,5.0018,4.9767,4.9657,4.9774,5.0378,5.1139,5.1434,5.1379,5.1386,5.1898,5.2213,5.2232,5.2317,5.2271,5.2048,5.1602,5.1138,5.0896,5.1082,5.0729,5.0079,4.9903,4.9485,4.8816,4.811,4.7776,4.7125,4.6605,4.6141,4.59,4.5807,4.5509,4.4997,4.4432,4.4124,4.4039,4.4036,4.4085,4.4207,4.4214,4.4173,4.4086,4.4095,4.402,4.3962,4.3988,4.392,4.3999,4.4291,4.4693,4.4756,4.466,4.4561,4.4388,4.4074,4.3917,4.3669,4.3498,4.3305,4.3127,4.3089,4.3034,4.2841,4.257,4.2376,4.1893,4.1583,4.1335,4.0893,4.0784,4.0735,4.0485,4.0328,4.0098,3.9776,3.9607,3.949,3.9462,3.9084,3.8644,3.851,3.8356,3.8337,3.8362,3.8222,3.7907,3.7125,3.6813,3.6441,3.6324,3.6089,3.5951,3.5871,3.5871,3.5693,3.5631,3.5647,3.5627,3.5569,3.5657,3.5781,3.588,3.5976,3.5796,5.0439,5.0509,5.0492,5.0592,5.0747,5.076,5.0959,5.1232,5.1258,5.1408,5.1469,5.124,5.1062,5.1161,5.1464,5.2012,5.2455,5.2642,5.2642,5.2791,5.3023,5.3209,5.319,5.32,5.3218,5.3125,5.2791,5.2104,5.1528,5.1844,5.15,5.0962,5.0757,5.0562,5.0116,4.9429,4.876,4.8314,4.759,4.694,4.6595,4.6531,4.6085,4.5398,4.4896,4.4469,4.4042,4.3997,4.4039,4.4096,4.4104,4.415,4.4218,4.4292,4.4378,4.4562,4.472,4.4843,4.4838,4.4986,4.5099,4.528,4.4902,4.4904,4.5051,4.4926,4.4523,4.4543,4.4562,4.4407,4.4036,4.3978,4.3746,4.3305,4.3034,4.2589,4.2086,4.1699,4.1374,4.1045,4.0893,4.0842,4.0793,4.0714,4.0792,4.0682,4.0457,4.0342,4.024,3.9888,3.9379,3.9389,3.9314,3.9039,3.9044,3.8964,3.8688,3.7985,3.7497,3.7125,3.6636,3.6441,3.6168,3.5971,3.601,3.6322,3.597,3.583,3.5947,3.61,3.6274,3.6383,3.6335,3.6276,3.6378,5.0355,5.0415,5.0505,5.0653,5.0816,5.0915,5.128,5.1658,5.1732,5.1934,5.2258,5.2251,5.221,5.2407,5.278,5.3279,5.3775,5.3738,5.3664,5.3645,5.3683,5.3766,5.3794,5.3813,5.3738,5.3645,5.3608,5.3144,5.2419,5.2587,5.2327,5.1844,5.1639,5.1491,5.1138,5.0525,4.9921,4.9383,4.8612,4.7794,4.7163,4.6791,4.6457,4.5751,4.5499,4.4934,4.4451,4.4098,4.4023,4.4023,4.4031,4.4036,4.4135,4.4184,4.4342,4.4617,4.4789,4.4962,4.503,4.5229,4.5318,4.543,4.5485,4.5591,4.5676,4.561,4.5668,4.5803,4.5707,4.5455,4.491,4.4833,4.4539,4.4059,4.3382,4.2763,4.2667,4.2434,4.2125,4.1719,4.1238,4.1009,4.0977,4.0809,4.0808,4.0828,4.0605,4.0643,4.057,4.0688,4.0429,4.0501,4.0331,3.9835,3.9685,3.9608,3.9235,3.8629,3.8336,3.8063,3.7418,3.6832,3.6636,3.6597,3.6852,3.7046,3.6539,3.6109,3.6205,3.6429,3.6807,3.706,3.7146,3.7575,3.7937,5.0302,5.0415,5.0411,5.0816,5.136,5.1339,5.1653,5.2159,5.2183,5.2241,5.2436,5.2368,5.2402,5.2533,5.2929,5.3383,5.3688,5.3813,5.3813,5.3813,5.3813,5.3813,5.3813,5.3813,5.3813,5.3813,5.3813,5.3747,5.3339,5.3441,5.3218,5.2605,5.2401,5.2178,5.1751,5.1398,5.1212,5.0933,5.0228,4.9373,4.8556,4.7897,4.759,4.6995,4.6197,4.5313,4.4989,4.4488,4.4116,4.3997,4.3997,4.4013,4.4036,4.4142,4.4306,4.4558,4.4806,4.499,4.4918,4.5211,4.5463,4.5524,4.552,4.5599,4.5734,4.5803,4.5803,4.5803,4.5803,4.5745,4.5571,4.561,4.5552,4.532,4.4836,4.4465,4.4194,4.3073,4.2763,4.255,4.2125,4.1548,4.1242,4.0993,4.0806,4.0805,4.0806,4.0826,4.0861,4.0913,4.0958,4.0902,4.0898,4.0474,4.0289,4.0211,3.9762,3.9234,3.9039,3.8863,3.816,3.7555,3.7575,3.7594,3.7809,3.7614,3.7008,3.6675,3.6578,3.6913,3.7504,3.7824,3.8073,3.8637,3.9228,5.0228,5.0302,5.0355,5.063,5.1013,5.1101,5.1571,5.2194,5.2322,5.2627,5.3062,5.3143,5.3143,5.3182,5.3434,5.362,5.3775,5.3813,5.3813,5.3813,5.3813,5.3813,5.3813,5.3813,5.3813,5.3813,5.3813,5.3813,5.3813,5.3775,5.3562,5.3348,5.3246,5.3181,5.2549,5.2271,5.2122,5.1825,5.1203,5.0163,4.9262,4.89,4.8603,4.7749,4.6995,4.6215,4.5443,4.5026,4.4432,4.4191,4.3997,4.4005,4.4005,4.4044,4.4151,4.4218,4.4553,4.4842,4.5098,4.543,4.5585,4.5654,4.5661,4.5703,4.5796,4.5803,4.5803,4.5803,4.5803,4.5803,4.5803,4.5803,4.5803,4.5745,4.5571,4.52,4.4717,4.4059,4.3382,4.3189,4.2995,4.2512,4.1932,4.1435,4.1225,4.1119,4.1001,4.0883,4.0883,4.091,4.0964,4.0974,4.1015,4.0974,4.0874,4.0797,4.0289,3.98,3.9585,3.9312,3.8747,3.8376,3.8434,3.8337,3.8317,3.7985,3.7458,3.7457,3.7593,3.7922,3.8276,3.8583,3.8903,3.9447,3.9914,5.0178,5.0217,5.0383,5.0543,5.0772,5.1092,5.1701,5.2402,5.2641,5.3109,5.3631,5.3756,5.3765,5.3803,5.3756,5.3765,5.3803,5.3813,5.3813,5.3813,5.3813,5.3813,5.3813,5.3813,5.3813,5.3813,5.3813,5.3813,5.3813,5.3794,5.3794,5.3813,5.3683,5.3701,5.3599,5.319,5.2828,5.2401,5.1714,5.0748,4.9875,4.9624,4.916,4.851,4.7831,4.7125,4.6104,4.5639,4.5202,4.4562,4.4413,4.4397,4.4199,4.4151,4.4232,4.4365,4.4644,4.4935,4.524,4.5513,4.5704,4.5791,4.5803,4.577,4.5796,4.5803,4.5803,4.5803,4.5803,4.5803,4.5803,4.5803,4.5803,4.5649,4.5394,4.5104,4.4852,4.4523,4.4349,4.4311,4.4098,4.373,4.3053,4.2167,4.1725,4.1512,4.1273,4.1043,4.1022,4.1102,4.1043,4.1097,4.1152,4.1173,4.1109,4.0973,4.0581,4.0385,4.0151,3.9995,3.9605,3.9391,3.9391,3.9235,3.9001,3.8922,3.8726,3.8687,3.8665,3.8824,3.9025,3.9397,3.9793,4.0245,4.0416,5.0077,5.0217,5.0492,5.0816,5.1184,5.1848,5.236,5.2831,5.3328,5.3579,5.3765,5.3813,5.3813,5.3813,5.3813,5.3813,5.3813,5.3813,5.3813,5.3813,5.3813,5.3813,5.3813,5.3813,5.3813,5.3813,5.3813,5.3813,5.3813,5.3813,5.3813,5.3813,5.3813,5.3813,5.3775,5.3608,5.3144,5.2679,5.2011,5.1491,5.0636,5.006,4.9383,4.9401,4.85,4.7608,4.7478,4.6799,4.6056,4.5257,4.5053,4.4885,4.4575,4.4383,4.4426,4.4637,4.4812,4.508,4.5303,4.5451,4.5565,4.5712,4.5801,4.5803,4.5803,4.5803,4.5803,4.5803,4.5803,4.5803,4.5803,4.5803,4.5803,4.5726,4.5591,4.5533,4.5432,4.5474,4.5339,4.5413,4.5142,4.4659,4.4407,4.356,4.2708,4.2457,4.2132,4.19,4.1546,4.1498,4.1294,4.1244,4.1308,4.1277,4.1131,4.1012,4.105,4.0913,4.0679,4.0738,4.0718,4.0562,4.0171,4.0113,3.9937,3.9976,3.9937,3.9644,3.9477,3.9544,3.9731,3.9978,4.012,4.0384,4.0481,5.0725,5.1079,5.1257,5.1283,5.1223,5.1475,5.2066,5.2791,5.3112,5.3442,5.3831,5.3813,5.3813,5.3831,5.3813,5.3813,5.3813,5.3813,5.3813,5.3813,5.3813,5.3813,5.3813,5.3868,5.3813,5.3868,5.385,5.3813,5.3813,5.3905,5.3813,5.3813,5.3887,5.3813,5.3813,5.3775,5.3348,5.294,5.2587,5.2308,5.0692,5.0673,5.0107,4.9216,4.902,4.8147,4.7738,4.7423,4.6773,4.6149,4.5637,4.5335,4.5108,4.4775,4.4724,4.4857,4.5028,4.5148,4.5292,4.5442,4.5647,4.5739,4.5801,4.5803,4.5803,4.5803,4.5803,4.5803,4.5803,4.5803,4.5803,4.5803,4.5803,4.5803,4.5803,4.5803,4.5803,4.5803,4.5784,4.5629,4.5591,4.5378,4.5223,4.5026,4.4175,4.3424,4.309,4.2726,4.2342,4.211,4.201,4.1971,4.207,4.1768,4.1604,4.162,4.1675,4.1499,4.1284,4.1362,4.144,4.1069,4.0757,4.0777,4.0894,4.0913,4.0777,4.0406,4.0248,4.0249,4.0287,4.0402,4.051,4.0534,4.0519,5.1262,5.1606,5.1701,5.1588,5.1365,5.1525,5.2198,5.3016,5.3111,5.3498,5.4156,5.4156,5.4342,5.4416,5.4249,5.4193,5.4137,5.3952,5.3831,5.3905,5.4054,5.411,5.424,5.4463,5.4769,5.449,5.4249,5.4258,5.4723,5.4323,5.4249,5.423,5.4137,5.41,5.3813,5.3775,5.3515,5.3255,5.2977,5.3032,5.1416,5.1193,5.1305,5.006,4.9689,4.9094,4.8612,4.8259,4.7646,4.7027,4.6483,4.6068,4.5792,4.5524,4.5293,4.521,4.5281,4.541,4.5404,4.5522,4.5718,4.5777,4.5806,4.5809,4.58,4.5803,4.5803,4.5803,4.5803,4.5803,4.5803,4.5803,4.5803,4.5803,4.5803,4.5803,4.5803,4.5803,4.5803,4.5765,4.5726,4.5687,4.5629,4.5436,4.4891,4.4202,4.3934,4.3523,4.3046,4.2927,4.2993,4.2998,4.3066,4.2632,4.2193,4.2444,4.2636,4.2436,4.2241,4.2045,4.1948,4.1635,4.1753,4.2104,4.2143,4.1928,4.187,4.1869,4.1425,4.0932,4.0844,4.0645,4.0536,4.0512,4.0508,5.1619,5.1606,5.1669,5.1669,5.1756,5.2297,5.3029,5.376,5.3655,5.4033,5.4796,5.488,5.5345,5.5707,5.5233,5.501,5.4862,5.4342,5.411,5.4314,5.4769,5.4936,5.5215,5.553,5.5697,5.593,5.5493,5.5354,5.6004,5.5307,5.5029,5.4787,5.4583,5.436,5.385,5.3813,5.3775,5.3683,5.3079,5.307,5.2828,5.2029,5.1751,5.1193,5.045,4.9726,4.9299,4.8872,4.8296,4.7764,4.7588,4.7102,4.6427,4.6921,4.6653,4.5903,4.6455,4.6367,4.5754,4.5729,4.5792,4.58,4.5792,4.581,4.5816,4.5803,4.5803,4.5803,4.5803,4.5803,4.5803,4.5803,4.5803,4.5803,4.5803,4.5803,4.5803,4.5803,4.5803,4.5803,4.5803,4.5803,4.5803,4.5687,4.5316,4.4934,4.4733,4.4367,4.3927,4.3926,4.4101,4.398,4.4023,4.3592,4.3253,4.3483,4.3577,4.3377,4.3119,4.2846,4.2729,4.2592,4.2865,4.3353,4.3197,4.2807,4.3157,4.3527,4.2724,4.1854,4.1058,4.0759,4.06,4.0743,4.105,5.2338,5.2672,5.2654,5.2672,5.2654,5.2572,5.3237,5.4296,5.4451,5.466,5.4935,5.4992,5.5475,5.593,5.606,5.5837,5.5782,5.5744,5.5447,5.5466,5.5735,5.5819,5.6023,5.6199,5.6413,5.6265,5.5967,5.5957,5.6227,5.5957,5.5475,5.5103,5.4694,5.41,5.3868,5.3813,5.3794,5.3775,5.3515,5.3311,5.3014,5.2457,5.1899,5.1268,5.0562,5.0005,4.9577,4.9179,4.8723,4.8379,4.8281,4.78,4.7398,4.787,4.7447,4.7151,4.762,4.7293,4.6721,4.6473,4.6228,4.6008,4.5792,4.5799,4.5816,4.5803,4.5803,4.5803,4.5803,4.5803,4.5803,4.5803,4.5803,4.5803,4.5803,4.5803,4.5803,4.5803,4.5803,4.5803,4.5803,4.5803,4.5803,4.5803,4.5533,4.5499,4.5337,4.5433,4.5149,4.5273,4.541,4.5098,4.4902,4.451,4.4292,4.4444,4.4304,4.4025,4.3747,4.3451,4.3392,4.3529,4.3607,4.39,4.3802,4.3705,4.3956,4.4046,4.3519,4.2788,4.2111,4.1537,4.1428,4.1824,4.2374,5.2872,5.3203,5.3196,5.3217,5.318,5.2915,5.3427,5.4379,5.5029,5.5415,5.5465,5.5475,5.6143,5.6737,5.658,5.658,5.6636,5.6376,5.6283,5.6357,5.6636,5.6692,5.6766,5.696,5.7332,5.7063,5.6859,5.683,5.7249,5.6867,5.6477,5.5846,5.4787,5.4453,5.4193,5.4063,5.3813,5.3794,5.3664,5.3534,5.3255,5.2884,5.2549,5.1742,5.0999,5.0395,4.98,4.9317,4.889,4.8759,4.8603,4.8309,4.8359,4.8454,4.815,4.8231,4.8043,4.7793,4.7447,4.7312,4.6957,4.6285,4.597,4.58,4.5801,4.5816,4.5803,4.5803,4.5861,4.5842,4.5861,4.5861,4.5803,4.5803,4.5803,4.5803,4.5803,4.5803,4.5803,4.5803,4.5803,4.5803,4.5803,4.5803,4.5726,4.582,4.592,4.6048,4.613,4.6133,4.6152,4.5879,4.5683,4.537,4.5212,4.5325,4.5087,4.4674,4.4415,4.4175,4.4446,4.4621,4.4524,4.4505,4.4759,4.4855,4.4656,4.4447,4.4152,4.3865,4.344,4.2908,4.2405,4.273,4.3301,5.3185,5.3196,5.3196,5.3241,5.3277,5.3238,5.3465,5.3898,5.5452,5.6123,5.6226,5.6076,5.6633,5.7823,5.696,5.6793,5.7286,5.6775,5.6719,5.6785,5.7305,5.7453,5.7759,5.8112,5.8167,5.8186,5.8019,5.7796,5.8456,5.7647,5.7239,5.696,5.5716,5.5215,5.4862,5.4434,5.4035,5.3868,5.3775,5.3701,5.3534,5.3608,5.3311,5.2652,5.1983,5.1268,5.0562,4.9856,4.9206,4.903,4.9107,4.8938,4.9088,4.9618,4.9097,4.8687,4.8385,4.8351,4.8178,4.8159,4.7715,4.7013,4.6385,4.6028,4.5997,4.6223,4.645,4.6322,4.6287,4.6093,4.5977,4.5881,4.5803,4.5803,4.5803,4.5803,4.5803,4.5803,4.5803,4.5803,4.5803,4.5803,4.5803,4.5803,4.5814,4.5876,4.596,4.606,4.6128,4.6211,4.623,4.623,4.6113,4.6191,4.6112,4.5914,4.5832,4.54,4.5256,4.5113,4.5423,4.5558,4.5403,4.5461,4.5969,4.5987,4.5536,4.5258,4.5034,4.4748,4.4513,4.397,4.3403,4.3458,4.382,5.3196,5.3196,5.3196,5.3217,5.323,5.3277,5.3722,5.4472,5.5013,5.5449,5.5983,5.5412,5.5973,5.6776,5.6924,5.7169,5.7497,5.7833,5.8019,5.8112,5.8056,5.8279,5.8427,5.8557,5.8687,5.8613,5.8483,5.8372,5.8427,5.7889,5.7555,5.7239,5.6459,5.6032,5.5586,5.5066,5.4416,5.3943,5.3813,5.3813,5.3813,5.3813,5.3553,5.2986,5.2624,5.1815,5.0839,5.0288,4.9637,4.9159,4.9276,4.9269,4.9575,4.9929,4.9868,5.0077,4.9918,4.9745,4.9183,4.9029,4.8673,4.8013,4.7552,4.72,4.7075,4.7129,4.7418,4.7185,4.6925,4.677,4.6616,4.648,4.6229,4.6055,4.6035,4.5958,4.5939,4.5803,4.5803,4.5803,4.5803,4.5803,4.5803,4.5803,4.5821,4.5867,4.5942,4.6052,4.6138,4.6218,4.6269,4.6289,4.6289,4.6289,4.6289,4.6151,4.6207,4.6164,4.5923,4.5779,4.5892,4.5988,4.6086,4.6164,4.6262,4.6301,4.6203,4.5925,4.5608,4.5756,4.5556,4.4964,4.4502,4.4473,4.4506,5.3196,5.3196,5.3196,5.3196,5.3206,5.3233,5.3765,5.4491,5.4669,5.5014,5.5346,5.4942,5.5194,5.608,5.6566,5.6988,5.7456,5.8176,5.8539,5.8539,5.8687,5.8632,5.8669,5.8687,5.8687,5.8687,5.8687,5.8613,5.8539,5.8335,5.8011,5.7945,5.7183,5.6655,5.6116,5.5345,5.4546,5.4063,5.3813,5.3813,5.3813,5.3813,5.3441,5.3154,5.2958,5.2144,5.1384,5.1024,5.0279,4.9733,4.983,4.9665,4.9943,5.0243,5.0432,5.0567,5.0534,5.0322,4.9995,4.9938,4.9413,4.8976,4.8903,4.876,4.8304,4.8133,4.8176,4.8071,4.7808,4.7583,4.7389,4.7177,4.677,4.6403,4.6287,4.6171,4.6016,4.5842,4.5803,4.5803,4.5803,4.5803,4.5803,4.5803,4.5824,4.5864,4.5947,4.6064,4.6143,4.6215,4.6269,4.6289,4.6289,4.6289,4.6289,4.6289,4.6306,4.6302,4.6218,4.6153,4.6304,4.6281,4.6223,4.6242,4.6281,4.6301,4.6301,4.6301,4.6139,4.621,4.6126,4.558,4.5176,4.519,4.5265,5.3067,5.3196,5.3196,5.3196,5.3196,5.3214,5.361,5.4292,5.443,5.4634,5.4689,5.4597,5.4968,5.5651,5.6119,5.6727,5.7427,5.8258,5.8687,5.8687,5.8687,5.8687,5.8687,5.8687,5.8687,5.8687,5.8687,5.8687,5.8687,5.8539,5.8483,5.8632,5.7992,5.7398,5.683,5.579,5.5047,5.4602,5.4073,5.3813,5.3813,5.3813,5.3813,5.3758,5.349,5.3057,5.2739,5.2107,5.124,5.0942,5.0681,5.0374,5.0663,5.0702,5.086,5.0774,5.0803,5.063,5.0515,5.0476,5.0168,4.9995,5.0173,4.9956,4.9476,4.915,4.9138,4.9061,4.8821,4.8562,4.8353,4.7966,4.756,4.7308,4.7154,4.7018,4.6848,4.6558,4.6248,4.6171,4.5919,4.59,4.5803,4.5803,4.5803,4.5848,4.5944,4.6082,4.6164,4.6233,4.6328,4.6348,4.6289,4.6289,4.6289,4.6289,4.6307,4.6303,4.6299,4.6293,4.6288,4.6304,4.6301,4.6301,4.6301,4.6301,4.6301,4.6301,4.6278,4.6245,4.6136,4.5971,4.5814,4.5688,4.5609,5.2095,5.3196,5.3196,5.3196,5.3196,5.3196,5.3287,5.3492,5.3581,5.3986,5.4354,5.4043,5.4189,5.5061,5.5852,5.6551,5.7402,5.8221,5.8613,5.8687,5.8687,5.8687,5.8687,5.8687,5.8687,5.8687,5.8687,5.8687,5.8687,5.8687,5.8687,5.8669,5.8335,5.8056,5.7685,5.657,5.567,5.5159,5.4286,5.385,5.3813,5.3841,5.3879,5.4034,5.395,5.3755,5.3512,5.3242,5.2556,5.2101,5.2145,5.2235,5.2494,5.1936,5.1654,5.151,5.1068,5.0861,5.0688,5.0688,5.0495,5.0457,5.0519,5.0529,5.0417,5.0282,5.0117,5.0,4.9834,4.956,4.9262,4.8817,4.843,4.8237,4.8063,4.7889,4.7695,4.7254,4.6828,4.6519,4.6209,4.6016,4.5919,4.5823,4.5803,4.5869,4.5995,4.6107,4.6184,4.6289,4.6504,4.6504,4.6328,4.6289,4.6289,4.6289,4.6288,4.6305,4.6302,4.6297,4.631,4.6305,4.6301,4.6301,4.6301,4.6301,4.6301,4.6301,4.6277,4.6249,4.6112,4.5932,4.5829,4.572,4.5641,5.1536,5.2674,5.3049,5.3196,5.3196,5.3196,5.3196,5.3206,5.3251,5.3524,5.3907,5.3609,5.3738,5.4542,5.5519,5.6366,5.7198,5.8194,5.8557,5.8687,5.8687,5.8687,5.8687,5.8687,5.8687,5.8687,5.8687,5.8687,5.8687,5.8687,5.8687,5.8687,5.8687,5.852,5.8149,5.697,5.6134,5.5605,5.4453,5.3933,5.3831,5.3832,5.386,5.4063,5.4261,5.4206,5.4248,5.4084,5.3748,5.3238,5.3069,5.2921,5.2931,5.2668,5.2255,5.189,5.1486,5.1087,5.088,5.0784,5.0784,5.0784,5.0726,5.0673,5.0625,5.0488,5.0535,5.0439,5.0467,5.0232,5.0198,4.9877,4.9432,4.9165,4.8952,4.874,4.8353,4.7889,4.7676,4.7583,4.7138,4.6616,4.6422,4.5958,4.593,4.5861,4.5991,4.6169,4.6255,4.6629,4.6758,4.6797,4.6699,4.6426,4.6289,4.6289,4.6289,4.6287,4.65,4.6376,4.6406,4.6324,4.6301,4.6301,4.632,4.6301,4.6301,4.6301,4.6301,4.6277,4.6105,4.5907,4.5853,4.5865,4.5834,5.0986,5.1914,5.2839,5.3196,5.3196,5.3196,5.3196,5.3196,5.3198,5.3233,5.3373,5.3467,5.3565,5.4383,5.5258,5.5946,5.6869,5.8165,5.8613,5.8687,5.8687,5.8687,5.8687,5.8687,5.8687,5.8687,5.8687,5.8687,5.8687,5.8687,5.8687,5.8687,5.8557,5.8382,5.761,5.6878,5.6283,5.554,5.4667,5.4026,5.3859,5.3822,5.387,5.408,5.4413,5.4776,5.4775,5.4778,5.4655,5.4451,5.4059,5.3921,5.3687,5.3544,5.3082,5.2678,5.2274,5.1818,5.1433,5.1342,5.1149,5.0976,5.088,5.0827,5.0837,5.076,5.0824,5.0806,5.0816,5.0835,5.0801,5.0709,5.0283,5.0012,4.978,4.9606,4.9142,4.8659,4.8566,4.8527,4.7989,4.7389,4.6983,4.648,4.6292,4.6184,4.6175,4.6227,4.6487,4.711,4.7519,4.748,4.7344,4.7012,4.6797,4.6816,4.6992,4.7128,4.7322,4.6865,4.6562,4.6714,4.6672,4.6339,4.6339,4.6554,4.6398,4.6301,4.6301,4.632,4.6075,4.5958,4.6304,4.6288,4.615,4.9664,5.1151,5.2572,5.3196,5.3196,5.3196,5.3196,5.3217,5.3235,5.3297,5.3328,5.3559,5.4159,5.5582,5.5825,5.6523,5.761,5.8489,5.8621,5.8687,5.8687,5.8687,5.8687,5.8677,5.8687,5.8687,5.8687,5.8687,5.8687,5.8687,5.8687,5.8687,5.8687,5.8557,5.8372,5.7602,5.6749,5.5952,5.5275,5.4689,5.4102,5.4038,5.4018,5.4246,5.4583,5.4928,5.516,5.5386,5.5434,5.5395,5.5228,5.5049,5.4818,5.4472,5.4049,5.3606,5.3203,5.2794,5.2452,5.2318,5.2145,5.1702,5.1606,5.1356,5.1212,5.0871,5.0851,5.0752,5.0769,5.0848,5.0839,5.0871,5.0593,5.0593,5.0457,5.0457,5.0225,4.9761,4.9451,4.9184,4.8759,4.8353,4.8101,4.7773,4.7641,4.7581,4.7581,4.76,4.7209,4.7724,4.8309,4.8183,4.8066,4.832,4.8418,4.8105,4.8164,4.8262,4.8182,4.7766,4.7483,4.7378,4.7218,4.7022,4.6983,4.7139,4.6905,4.6574,4.6359,4.633,4.6076,4.603,4.6481,4.6737,4.6619]}]]